[[{"header":{"parameterUnit":"m.s-1","parameterCategory":1,"la1":30.6,"la2":28.766,"lo1":-90.7593,"lo2":-88.6598,"dy":0.0162,"dx":0.0183,"nx":116,"ny":114,"refTime":"2024-07-06T06:00:00:Z","depth":0,"parameterNumber":2,"parameterNumberName":"U-component_of_WINDS"},"data":[0.0,0.0,0.0,0.0,0.0,0.0,0.0,0.0,0.0,0.0,0.0,0.0,0.0,0.0,0.0,0.0,0.0,0.0,0.0,0.0,0.0,0.0,0.0,0.0,0.0,0.0,0.0,0.0,0.0,0.0,0.0,0.0,0.0,0.0,0.0,0.0,0.0,0.0,0.0,0.0,0.0,0.0,0.0,0.0,0.0,0.0,0.0,0.0,0.0,0.0,0.0,0.0,0.0,0.0,0.0,0.0,0.0,0.0,0.0,0.0,0.0,0.0,0.0,0.0,0.0,0.0,0.0,0.0,0.0,0.0,0.0,0.0,0.0,0.0,0.0,0.0,0.0,0.0,0.0,0.0,0.0,0.0,0.0,0.0,0.0,0.0,0.0,0.0,0.0,0.0,0.0,0.0,0.0,0.0,0.0,0.0,0.0,0.0,0.0,0.0,0.0,0.0,0.0,0.0,0.0,0.0,0.0,0.0,0.0,0.0,0.0,0.0,0.0,0.0,0.0,0.0,0.0,0.0,0.0,0.0,0.0,0.0,0.0,0.0,0.0,0.0,0.0,0.0,0.0,0.0,0.0,0.0,0.0,0.0,0.0,0.0,0.0,0.0,0.0,0.0,0.0,0.0,0.0,0.0,0.0,0.0,0.0,0.0,0.0,0.0,0.0,0.0,0.0,0.0,0.0,0.0,0.0,0.0,0.0,0.0,0.0,0.0,0.0,0.0,0.0,0.0,0.0,0.0,0.0,0.0,0.0,0.0,0.0,0.0,0.0,0.0,0.0,0.0,0.0,0.0,0.0,0.0,0.0,0.0,0.0,0.0,0.0,0.0,0.0,0.0,0.0,0.0,0.0,0.0,0.0,0.0,0.0,0.0,0.0,0.0,0.0,0.0,0.0,0.0,0.0,0.0,0.0,0.0,0.0,0.0,0.0,0.0,0.0,0.0,0.0,0.0,0.0,0.0,0.0,0.0,0.0,0.0,0.0,0.0,0.0,0.0,0.0,0.0,0.0,0.0,0.0,0.0,0.0,0.0,0.0,0.0,0.0,0.0,0.0,0.0,0.0,0.0,0.0,0.0,0.0,0.0,0.0,0.0,0.0,0.0,0.0,0.0,0.0,0.0,0.0,0.0,0.0,0.0,0.0,0.0,0.0,0.0,0.0,0.0,0.0,0.0,0.0,0.0,0.0,0.0,0.0,0.0,0.0,0.0,0.0,0.0,0.0,0.0,0.0,0.0,0.0,0.0,0.0,0.0,0.0,0.0,0.0,0.0,0.0,0.0,0.0,0.0,0.0,0.0,0.0,0.0,0.0,0.0,0.0,0.0,0.0,0.0,0.0,0.0,0.0,0.0,0.0,0.0,0.0,0.0,0.0,0.0,0.0,0.0,0.0,0.0,0.0,0.0,0.0,0.0,0.0,0.0,0.0,0.0,0.0,0.0,0.0,0.0,0.0,0.0,0.0,0.0,0.0,0.0,0.0,0.0,0.0,0.0,0.0,0.0,0.0,0.0,0.0,0.0,0.0,0.0,0.0,0.0,0.0,0.0,0.0,0.0,0.0,0.0,0.0,0.0,0.0,0.0,0.0,0.0,0.0,0.0,0.0,0.0,0.0,0.0,0.0,0.0,0.0,0.0,0.0,0.0,0.0,0.0,0.0,0.0,0.0,0.0,0.0,0.0,0.0,0.0,0.0,0.0,0.0,0.0,0.0,0.0,0.0,0.0,0.0,0.0,0.0,0.0,0.0,0.0,0.0,0.0,0.0,0.0,0.0,0.0,0.0,0.0,0.0,0.0,0.0,0.0,0.0,0.0,0.0,0.0,0.0,0.0,0.0,0.0,0.0,0.0,0.0,0.0,0.0,0.0,0.0,0.0,0.0,0.0,0.0,0.0,0.0,0.0,0.0,0.0,0.0,0.0,0.0,0.0,0.0,0.0,0.0,0.0,0.0,0.0,0.0,0.0,0.0,0.0,0.0,0.0,0.0,0.0,0.0,0.0,0.0,0.0,0.0,0.0,0.0,0.0,0.0,0.0,0.0,0.0,0.0,0.0,0.0,0.0,0.0,0.0,0.0,0.0,0.0,0.0,0.0,0.0,0.0,0.0,0.0,0.0,0.0,0.0,0.0,0.0,0.0,0.0,0.0,0.0,0.0,0.0,0.0,0.0,0.0,0.0,0.0,0.0,0.0,0.0,0.0,0.0,0.0,0.0,0.0,0.0,0.0,0.0,0.0,0.0,0.0,0.0,0.0,0.0,0.0,0.0,0.0,0.0,0.0,0.0,0.0,0.0,0.0,0.0,0.0,0.0,0.0,0.0,0.0,0.0,0.0,0.0,0.0,0.0,0.0,0.0,0.0,0.0,0.0,0.0,0.0,0.0,0.0,0.0,0.0,0.0,0.0,0.0,0.0,0.0,0.0,0.0,0.0,0.0,0.0,0.0,0.0,0.0,0.0,0.0,0.0,0.0,0.0,0.0,0.0,0.0,0.0,0.0,0.0,0.0,0.0,0.0,0.0,0.0,0.0,0.0,0.0,0.0,0.0,0.0,0.0,0.0,0.0,0.0,0.0,0.0,0.0,0.0,0.0,0.0,0.0,0.0,0.0,0.0,0.0,0.0,0.0,0.0,0.0,0.0,0.0,0.0,0.0,0.0,0.0,0.0,0.0,0.0,0.0,0.0,0.0,0.0,0.0,0.0,0.0,0.0,0.0,0.0,0.0,0.0,0.0,0.0,0.0,0.0,0.0,0.0,0.0,0.0,0.0,0.0,0.0,0.0,0.0,0.0,0.0,0.0,0.0,0.0,0.0,0.0,0.0,0.0,0.0,0.0,0.0,0.0,0.0,0.0,0.0,0.0,0.0,0.0,0.0,0.0,0.0,0.0,0.0,0.0,0.0,0.0,0.0,0.0,0.0,0.0,0.0,0.0,0.0,0.0,0.0,0.0,0.0,0.0,0.0,0.0,0.0,0.0,0.0,0.0,0.0,0.0,0.0,0.0,0.0,0.0,0.0,0.0,0.0,0.0,0.0,0.0,0.0,0.0,0.0,0.0,0.0,0.0,0.0,0.0,0.0,0.0,0.0,0.0,0.0,0.0,0.0,0.0,0.0,0.0,0.0,0.0,0.0,0.0,0.0,0.0,0.0,0.0,0.0,0.0,0.0,0.0,0.0,0.0,0.0,0.0,0.0,0.0,0.0,0.0,0.0,0.0,0.0,0.0,0.0,0.0,0.0,0.0,0.0,0.0,0.0,0.0,0.0,0.0,0.0,0.0,0.0,0.0,0.0,0.0,0.0,0.0,0.0,0.0,0.0,0.0,0.0,0.0,0.0,0.0,0.0,0.0,0.0,0.0,0.0,0.0,0.0,0.0,0.0,0.0,0.0,0.0,0.0,0.0,0.0,0.0,0.0,0.0,0.0,0.0,0.0,0.0,0.0,0.0,0.0,0.0,0.0,0.0,0.0,0.0,0.0,0.0,0.0,0.0,0.0,0.0,0.0,0.0,0.0,0.0,0.0,0.0,0.0,0.0,0.0,0.0,0.0,0.0,0.0,0.0,0.0,0.0,0.0,0.0,0.0,0.0,0.0,0.0,0.0,0.0,0.0,0.0,0.0,0.0,0.0,0.0,0.0,0.0,0.0,0.0,0.0,0.0,0.0,0.0,0.0,0.0,0.0,0.0,0.0,0.0,0.0,0.0,0.0,0.0,0.0,0.0,0.0,0.0,0.0,0.0,0.0,0.0,0.0,0.0,0.0,0.0,0.0,0.0,0.0,0.0,0.0,0.0,0.0,0.0,0.0,0.0,0.0,0.0,0.0,0.0,0.0,0.0,0.0,0.0,0.0,0.0,0.0,0.0,0.0,0.0,0.0,0.0,0.0,0.0,0.0,0.0,0.0,0.0,0.0,0.0,0.0,0.0,0.0,0.0,0.0,0.0,0.0,0.0,0.0,0.0,0.0,0.0,0.0,0.0,0.0,0.0,0.0,0.0,0.0,0.0,0.0,0.0,0.0,0.0,0.0,0.0,0.0,0.0,0.0,0.0,0.0,0.0,0.0,0.0,0.0,0.0,0.0,0.0,0.0,0.0,0.0,0.0,0.0,0.0,0.0,0.0,0.0,0.0,0.0,0.0,0.0,0.0,0.0,0.0,0.0,0.0,0.0,0.0,0.0,0.0,0.0,0.0,0.0,0.0,0.0,0.0,0.0,0.0,0.0,0.0,0.0,0.0,0.0,0.0,0.0,0.0,0.0,0.0,0.0,0.0,0.0,0.0,0.0,0.0,0.0,0.0,0.0,0.0,0.0,0.0,0.0,0.0,0.0,0.0,0.0,0.0,0.0,0.0,0.0,0.0,0.0,0.0,0.0,0.0,0.0,0.0,0.0,0.0,0.0,0.0,0.0,0.0,0.0,0.0,0.0,0.0,0.0,0.0,0.0,0.0,0.0,0.0,0.0,0.0,0.0,0.0,0.0,0.0,0.0,0.0,0.0,0.0,0.0,0.0,0.0,0.0,0.0,0.0,0.0,0.0,0.0,0.0,0.0,0.0,0.0,0.0,0.0,0.0,0.0,0.0,0.0,0.0,0.0,0.0,0.0,0.0,0.0,0.0,0.0,0.0,0.0,0.0,0.0,0.0,0.0,0.0,0.0,0.0,0.0,0.0,0.0,0.0,0.0,0.0,0.0,0.0,0.0,0.0,0.0,0.0,0.0,0.0,0.0,0.0,0.0,0.0,0.0,0.0,0.0,0.0,0.0,0.0,0.0,0.0,0.0,0.0,0.0,0.0,0.0,0.0,0.0,0.0,0.0,0.0,0.0,0.0,0.0,0.0,0.0,0.0,0.0,0.0,0.0,0.0,0.0,0.0,0.0,0.0,0.0,0.0,0.0,0.0,0.0,0.0,0.0,0.0,0.0,0.0,0.0,0.0,0.0,0.0,0.0,0.0,0.0,0.0,0.0,0.0,0.0,0.0,0.0,0.0,0.0,0.0,0.0,0.0,0.0,0.0,0.0,0.0,0.0,0.0,0.0,0.0,0.0,0.0,0.0,0.0,0.0,0.0,0.0,0.0,0.0,0.0,0.0,0.0,0.0,0.0,0.0,0.0,0.0,0.0,0.0,0.0,0.0,0.0,0.0,0.0,0.0,0.0,0.0,0.0,0.0,0.0,0.0,0.0,0.0,0.0,0.0,0.0,0.0,0.0,0.0,0.0,0.0,0.0,0.0,0.0,0.0,0.0,0.0,0.0,0.0,0.0,0.0,0.0,0.0,0.0,0.0,0.0,0.0,0.0,0.0,0.0,0.0,0.0,0.0,0.0,0.0,0.0,0.0,0.0,0.0,0.0,0.0,0.0,0.0,0.0,0.0,0.0,0.0,0.0,0.0,0.0,0.0,0.0,0.0,0.0,0.0,0.0,0.0,0.0,0.0,0.0,0.0,0.0,0.0,0.0,0.0,0.0,0.0,0.0,0.0,0.0,0.0,0.0,0.0,0.0,0.0,0.0,0.0,0.0,0.0,0.0,0.0,0.0,0.0,0.0,0.0,0.0,0.0,0.0,0.0,0.0,0.0,0.0,0.0,0.0,0.0,0.0,0.0,0.0,0.0,0.0,0.0,0.0,0.0,0.0,0.0,0.0,0.0,0.0,0.0,0.0,0.0,0.0,0.0,0.0,0.0,0.0,0.0,0.0,0.0,0.0,0.0,0.0,0.0,0.0,0.0,0.0,0.0,0.0,0.0,0.0,0.0,0.0,0.0,0.0,0.0,0.0,0.0,0.0,0.0,0.0,0.0,0.0,0.0,0.0,0.0,0.0,0.0,0.0,0.0,0.0,0.0,0.0,0.0,0.0,0.0,0.0,0.0,0.0,0.0,0.0,0.0,0.0,0.0,0.0,0.0,0.0,0.0,0.0,0.0,0.0,0.0,0.0,0.0,0.0,0.0,0.0,0.0,0.0,0.0,0.0,0.0,0.0,0.0,0.0,0.0,0.0,0.0,0.0,0.0,0.0,0.0,0.0,0.0,0.0,0.0,0.0,0.0,0.0,0.0,0.0,0.0,0.0,0.0,0.0,0.0,0.0,0.0,0.0,0.0,0.0,0.0,0.0,-1.0971,0.0,0.0,0.0,0.0,0.0,0.0,0.0,0.0,0.0,0.0,0.0,0.0,0.0,0.0,0.0,0.0,0.0,0.0,0.0,0.0,0.0,0.0,0.0,0.0,-0.6498,-0.6463,-0.6292,-0.6405,-0.6476,-0.6476,0.0,0.0,0.0,0.0,0.0,-0.5881,-0.561,-0.5776,-0.6355,-0.639,-0.716,-0.8581,-0.8193,-0.7622,-0.6951,0.0,0.0,0.0,0.0,0.0,0.0,0.0,0.0,0.0,0.0,0.0,0.0,0.0,0.0,0.0,0.0,0.0,0.0,0.0,0.0,0.0,0.0,0.0,0.0,0.0,0.0,0.0,0.0,0.0,0.0,0.0,0.0,0.0,0.0,0.0,0.0,0.0,0.0,0.0,0.0,0.0,0.0,0.0,0.0,0.0,0.0,0.0,0.0,0.0,0.0,0.0,0.0,0.0,0.0,0.0,0.0,0.0,0.0,0.0,0.0,0.0,0.0,0.0,0.0,0.0,0.0,0.0,0.0,0.0,0.0,0.0,-1.2385,0.0,0.0,0.0,0.0,0.0,0.0,0.0,0.0,0.0,0.0,0.0,0.0,0.0,0.0,0.0,0.0,0.0,0.0,0.0,0.0,0.0,-0.668,-0.6754,-0.6856,-0.696,-0.705,-0.7192,-0.7288,-0.7328,-0.724,0.0,0.0,0.0,-0.6988,-0.6725,-0.647,-0.6785,-0.769,-0.8136,-0.9149,-1.0667,-1.09,-1.0229,-0.8818,-0.8166,0.0,0.0,0.0,0.0,0.0,0.0,0.0,0.0,0.0,0.0,0.0,0.0,0.0,0.0,0.0,0.0,0.0,0.0,0.0,0.0,0.0,0.0,0.0,0.0,0.0,0.0,0.0,0.0,0.0,0.0,0.0,0.0,0.0,0.0,0.0,0.0,0.0,0.0,0.0,0.0,0.0,0.0,0.0,0.0,0.0,0.0,0.0,0.0,0.0,0.0,0.0,0.0,0.0,0.0,0.0,0.0,0.0,0.0,0.0,0.0,0.0,0.0,0.0,-1.7035,-1.7566,-1.8078,-1.8286,-1.8811,-1.9459,-1.7038,-1.6007,-1.592,-1.4136,0.0,0.0,0.0,0.0,0.0,0.0,0.0,0.0,0.0,0.0,0.0,0.0,0.0,0.0,0.0,0.0,0.0,0.0,0.0,-0.6989,-0.7344,-0.7404,-0.7594,-0.8061,-0.7761,-0.7621,-0.7801,-0.7427,0.0,0.0,-0.7197,-0.7057,-0.6798,-0.7135,-0.7688,-0.8454,-1.0394,-1.1462,-1.1722,-1.2313,-1.2461,-1.2211,-1.1019,-1.0159,-0.9536,0.0,0.0,0.0,0.0,0.0,0.0,0.0,0.0,0.0,0.0,0.0,0.0,0.0,0.0,0.0,0.0,0.0,0.0,0.0,0.0,0.0,0.0,0.0,0.0,0.0,0.0,0.0,0.0,0.0,0.0,0.0,0.0,0.0,0.0,0.0,0.0,0.0,0.0,0.0,0.0,0.0,-0.9102,-0.9667,0.0,0.0,0.0,0.0,0.0,0.0,0.0,0.0,0.0,0.0,0.0,0.0,0.0,-1.6059,-1.7073,-1.8035,-1.877,-1.9221,-2.0517,-2.1183,-2.122,-2.1668,-2.1922,-2.1963,-2.0769,0.0,-1.7863,-1.6898,0.0,0.0,0.0,0.0,0.0,0.0,0.0,0.0,0.0,0.0,0.0,0.0,0.0,0.0,0.0,0.0,0.0,0.0,0.0,0.0,0.0,-0.8795,-0.9516,-0.9946,-1.0109,-1.0005,-0.9554,-0.9081,-0.8574,-0.8014,-0.7993,-0.8047,-0.8145,-0.8467,-0.9325,-1.0735,-1.2648,-1.3625,-1.3714,-1.4271,-1.4522,-1.4501,-1.3951,-1.2669,-1.0844,-1.0015,0.0,0.0,0.0,0.0,0.0,0.0,0.0,0.0,0.0,0.0,0.0,0.0,0.0,0.0,0.0,0.0,0.0,0.0,0.0,0.0,0.0,0.0,0.0,0.0,0.0,0.0,0.0,0.0,0.0,0.0,0.0,0.0,0.0,0.0,0.0,0.0,0.0,0.0,0.0,-0.8937,-1.0303,-1.0339,-1.0783,-1.0664,0.0,0.0,0.0,0.0,0.0,0.0,0.0,0.0,0.0,-1.7827,-1.8252,-1.9049,-2.0306,-2.1022,-2.1332,-2.1223,-2.1858,-2.2026,-2.1784,-2.2522,-2.282,-2.282,-2.2382,-2.1623,-2.0429,-1.8209,-1.6804,-1.5864,0.0,0.0,0.0,0.0,-1.28,-1.2967,0.0,0.0,0.0,0.0,0.0,0.0,0.0,0.0,0.0,0.0,0.0,0.0,-0.8731,-1.0072,-1.1102,-1.1565,-1.1931,-1.1856,-1.1198,-1.037,-0.9611,-0.9007,-0.8854,-0.8988,-0.9425,-1.0178,-1.135,-1.2902,-1.4387,-1.518,-1.5301,-1.5636,-1.5811,-1.5811,-1.5811,-1.4564,-1.2446,-1.1593,-1.0565,-0.9416,0.0,0.0,0.0,0.0,0.0,0.0,0.0,0.0,0.0,0.0,0.0,0.0,0.0,0.0,0.0,0.0,0.0,0.0,0.0,0.0,0.0,0.0,0.0,0.0,0.0,0.0,0.0,0.0,0.0,0.0,0.0,0.0,0.0,0.0,0.0,0.0,0.0,-1.0552,-1.1828,-1.137,-1.2599,-1.2913,0.0,0.0,0.0,0.0,0.0,0.0,-1.7122,-1.7581,-1.8691,-2.0528,-2.0743,-2.142,-2.2625,-2.2836,-2.2745,-2.2342,-2.2717,-2.2721,-2.2402,-2.3073,-2.3428,-2.3383,-2.284,-2.2571,-2.2274,-1.9398,-1.8191,-1.7963,-1.6042,-1.5177,-1.5041,-1.5348,-1.5388,-1.539,0.0,0.0,0.0,0.0,0.0,0.0,0.0,0.0,0.0,0.0,0.0,-0.8485,-1.0026,-1.0834,-1.1595,-1.2369,-1.2128,-1.1984,-1.2113,-1.0381,-0.9552,-1.0004,-0.9541,-0.9504,-1.0031,-1.232,-1.375,-1.4307,-1.5277,-1.5753,-1.5778,-1.58,-1.5811,-1.5811,-1.5811,-1.5459,-1.4849,-1.3868,-1.2893,-1.1871,-1.0029,0.0,0.0,0.0,0.0,0.0,0.0,0.0,0.0,0.0,0.0,0.0,0.0,0.0,0.0,0.0,0.0,0.0,0.0,0.0,0.0,0.0,0.0,0.0,0.0,0.0,0.0,0.0,0.0,0.0,0.0,0.0,0.0,0.0,0.0,0.0,0.0,0.0,0.0,-1.3362,-1.5654,0.0,0.0,0.0,0.0,-1.6109,-1.6765,-1.7868,-1.9441,-2.027,-2.1387,-2.2978,-2.2536,-2.2539,-2.3085,-2.2546,-2.2217,-2.2245,-2.3553,-2.4215,-2.4188,-2.4234,-2.4234,-2.4142,-2.222,-2.1872,-2.2564,-2.0871,-1.93,-1.7943,-1.7383,-1.674,-1.6126,-1.615,-1.6579,-1.7151,0.0,0.0,0.0,-0.7264,-0.7153,-0.7072,-0.7001,-0.7044,-0.7241,-0.7737,-0.8458,-0.9559,-1.1212,-1.2614,-1.3847,-1.4923,-1.4913,-1.4636,-1.4104,-1.2253,-1.1257,-1.1439,-1.0404,-1.0627,-1.2383,-1.3565,-1.4526,-1.5287,-1.5931,-1.6247,-1.6258,-1.6612,-1.6929,-1.7196,-1.6907,-1.6667,-1.6426,-1.5113,-1.3949,-1.2869,-1.1674,-1.0199,0.0,0.0,0.0,0.0,0.0,0.0,0.0,0.0,0.0,0.0,0.0,0.0,0.0,0.0,0.0,0.0,0.0,0.0,0.0,0.0,0.0,0.0,0.0,0.0,0.0,0.0,0.0,0.0,0.0,0.0,0.0,0.0,0.0,0.0,0.0,0.0,0.0,-1.5655,-1.7576,0.0,-1.7032,-1.7823,-1.8701,-1.9339,-2.0159,-2.1169,-2.2357,-2.2941,-2.3596,-2.4445,-2.3939,-2.368,-2.3881,-2.2963,-2.2209,-2.1616,-2.2126,-2.2046,-2.1475,-2.2093,-2.2378,-2.233,-2.1618,-2.1475,-2.1709,-2.0517,-1.9965,-1.969,-1.8669,-1.8101,-1.7846,-1.7846,-1.8057,-1.8279,-0.7834,-0.7694,0.0,-0.7274,-0.7161,-0.708,-0.7001,-0.721,-0.7606,-0.8277,-0.9399,-1.0768,-1.2427,-1.4001,-1.5254,-1.6053,-1.6198,-1.5944,-1.5159,-1.3436,-1.2436,-1.2438,-1.1719,-1.2132,-1.3915,-1.4724,-1.5498,-1.6302,-1.6787,-1.7103,-1.7256,-1.7595,-1.7923,-1.8228,-1.7901,-1.7787,-1.7722,-1.6721,-1.5473,-1.4071,-1.3228,-1.2002,-1.0615,0.0,0.0,0.0,0.0,0.0,0.0,0.0,0.0,0.0,0.0,0.0,0.0,0.0,0.0,0.0,0.0,0.0,0.0,0.0,0.0,0.0,0.0,0.0,0.0,0.0,0.0,0.0,0.0,0.0,0.0,0.0,0.0,0.0,0.0,0.0,-1.784,-1.7499,-1.9485,-2.0451,-1.9339,-2.0248,-2.126,-2.2183,-2.2842,-2.3588,-2.4498,-2.4472,-2.4591,-2.4895,-2.3825,-2.3271,-2.3271,-2.2399,-2.1616,-2.1003,-2.147,-2.1383,-2.0802,-2.1431,-2.1676,-2.1676,-2.1334,-2.1195,-2.1138,-2.0385,-2.0289,-2.0556,-1.954,-1.9177,-1.9177,-1.9177,-1.9105,-1.8994,-0.7657,-0.7605,-0.7484,-0.7155,-0.7101,-0.7082,-0.7015,-0.7504,-0.829,-0.9352,-1.0621,-1.2035,-1.3664,-1.4905,-1.5639,-1.5651,-1.5767,-1.5619,-1.5164,-1.3757,-1.2918,-1.291,-1.3456,-1.3991,-1.4484,-1.5826,-1.6798,-1.735,-1.7791,-1.825,-1.8687,-1.8687,-1.8698,-1.8709,-1.8698,-1.8698,-1.8709,-1.8698,-1.7531,-1.562,-1.4674,-1.4134,-1.3716,0.0,0.0,0.0,0.0,0.0,0.0,0.0,0.0,0.0,0.0,0.0,0.0,0.0,0.0,0.0,0.0,0.0,0.0,0.0,0.0,0.0,0.0,0.0,0.0,0.0,0.0,0.0,0.0,0.0,0.0,0.0,0.0,0.0,-1.6313,-1.8267,-1.9567,-1.9017,-2.1504,-2.2708,-2.1373,-2.2459,-2.3619,-2.4476,-2.4538,-2.4964,-2.5834,-2.492,-2.4368,-2.4322,-2.2422,-2.1391,-2.1343,-2.0752,-2.044,-2.0448,-2.1837,-2.246,-2.246,-2.246,-2.246,-2.2409,-2.1409,-2.0948,-2.0909,-2.0567,-2.0416,-2.0377,-2.0052,-1.9917,-1.9917,-1.9917,-1.971,-1.9336,-0.765,-0.7514,-0.7382,-0.7134,-0.7101,-0.708,-0.7001,-0.7504,-0.829,-0.9352,-1.086,-1.2483,-1.4197,-1.5453,-1.6342,-1.6734,-1.6473,-1.6239,-1.6107,-1.4464,-1.3493,-1.3488,-1.4275,-1.5269,-1.6486,-1.6863,-1.7475,-1.8334,-1.8436,-1.8567,-1.8687,-1.8687,-1.8884,-1.92,-1.8851,-1.8884,-1.9189,-1.884,-1.8381,-1.7756,-1.6716,-1.5336,-1.3813,0.0,0.0,0.0,0.0,0.0,0.0,0.0,0.0,0.0,0.0,0.0,0.0,0.0,0.0,0.0,0.0,0.0,0.0,0.0,0.0,0.0,0.0,0.0,0.0,0.0,0.0,0.0,0.0,0.0,0.0,0.0,-1.7278,-1.8939,-1.8755,-2.0444,-2.1924,-2.2429,-2.3464,-2.4104,-2.4063,-2.4404,-2.4902,-2.5471,-2.5513,-2.5616,-2.591,-2.5956,-2.5621,-2.4816,-2.4091,-2.33,-2.2544,-2.1911,-2.1581,-2.1581,-2.1933,-2.214,-2.214,-2.214,-2.214,-2.214,-2.1831,-2.1528,-2.1246,-2.1143,-2.0961,-2.0718,-2.0156,-1.9917,-1.9917,-1.9917,-1.9853,-1.9765,-0.7761,-0.7605,-0.7437,-0.7262,-0.7153,-0.7083,-0.7053,-0.7726,-0.8634,-0.9743,-1.1554,-1.3314,-1.4807,-1.6023,-1.6767,-1.6859,-1.665,-1.6236,-1.5574,-1.4561,-1.4082,-1.4287,-1.5192,-1.6197,-1.7284,-1.7475,-1.8043,-1.8993,-1.8993,-1.9102,-1.9299,-1.9299,-1.942,-1.9682,-1.943,-1.9431,-1.9671,-1.9387,-1.9179,-1.8949,-1.8292,-1.7013,-1.5322,-1.4682,-1.3731,-1.2667,-1.2059,-1.1442,-1.0835,-1.0249,0.0,0.0,0.0,0.0,0.0,0.0,0.0,0.0,0.0,0.0,0.0,0.0,0.0,0.0,0.0,0.0,0.0,0.0,0.0,0.0,0.0,0.0,0.0,0.0,-1.9726,-2.1225,-2.1418,-2.2405,-2.3339,-2.4074,-2.4507,-2.489,-2.5158,-2.5399,-2.5689,-2.6179,-2.621,-2.633,-2.6713,-2.6615,-2.6302,-2.584,-2.5267,-2.4693,-2.4067,-2.3159,-2.2683,-2.2692,-2.2218,-2.2011,-2.2011,-2.2011,-2.2011,-2.2011,-2.2011,-2.1846,-2.1663,-2.1663,-2.1457,0.0,0.0,0.0,0.0,0.0,-2.0132,-2.0116,-0.7935,-0.7739,-0.7552,-0.7422,-0.7251,-0.7128,-0.7099,-0.8015,-0.9111,-1.0254,-1.2329,-1.4145,-1.5296,-1.6382,-1.6833,-1.6428,-1.6408,-1.5856,-1.4578,-1.4484,-1.4748,-1.5345,-1.6147,-1.6863,-1.7459,-1.7912,-1.86,-1.9464,-1.9464,-1.9693,-2.0118,-2.0118,-2.014,-2.0194,-2.0194,-2.0227,-2.0282,-2.0282,-1.9998,-1.9583,-1.9583,-1.8776,-1.7525,-1.6622,-1.5784,-1.4986,-1.422,-1.3315,-1.2431,-1.1755,0.0,0.0,0.0,0.0,0.0,0.0,0.0,0.0,0.0,0.0,0.0,0.0,0.0,0.0,0.0,0.0,0.0,0.0,0.0,0.0,0.0,0.0,0.0,0.0,-2.2063,-2.3443,-2.396,-2.4033,-2.4178,-2.4528,-2.4983,-2.5282,-2.5334,-2.573,-2.621,-2.6729,-2.677,-2.7096,-2.7955,0.0,0.0,0.0,0.0,-2.5631,-2.5381,-2.4316,-2.3751,-2.36,-2.26,-2.2131,-2.2131,-2.2131,-2.2131,-2.2131,-2.2131,-2.2107,-2.2075,-2.2075,-2.1814,-2.142,-2.1024,-2.0925,-2.0885,-2.0567,-2.0456,-2.0408,-0.7957,-0.7739,-0.7552,-0.7422,-0.7368,-0.7288,-0.7123,-0.8015,-0.9132,-1.0327,-1.1991,-1.3549,-1.48,-1.5464,-1.597,-1.6382,-1.6018,-1.5897,-1.6191,-1.5437,-1.5568,-1.6894,-1.709,-1.754,-1.8403,-1.8895,-1.9398,-1.9976,-1.9976,-2.002,-2.0118,-2.0118,-2.0325,-2.0763,-2.0763,-2.0948,-2.1308,-2.1308,-2.1024,-2.061,-2.061,-1.9672,-1.8242,-1.769,-1.697,-1.6192,-1.5669,-1.5048,-1.4388,-1.3811,-1.338,-1.2925,-1.1934,0.0,0.0,0.0,0.0,0.0,0.0,0.0,0.0,0.0,0.0,0.0,0.0,0.0,0.0,0.0,0.0,0.0,0.0,0.0,0.0,-2.1065,-2.2656,-2.4033,-2.4861,-2.4964,-2.4962,-2.5044,-2.5482,-2.5896,-2.6279,-2.6428,-2.6775,-2.7593,-2.7655,-2.7903,-2.8452,-2.8284,-2.7804,-2.7024,-2.714,-2.6312,-2.4452,-2.4556,-2.4124,-2.3134,0.0,0.0,-2.2815,-2.2815,-2.2815,-2.2815,-2.2815,-2.2649,-2.2386,-2.2386,-2.218,-2.1798,-2.1171,-2.0925,-2.0909,-2.0845,-2.0821,-2.0813,-0.8061,-0.7863,-0.7694,-0.7522,-0.7446,-0.7329,-0.7134,-0.8011,-0.9037,-0.9975,-1.1479,-1.2825,-1.3789,-1.4353,-1.4655,-1.4655,-1.4496,0.0,0.0,-1.5752,-1.6031,-1.7335,-1.7551,-1.7977,-1.8676,-1.9168,-1.9627,-2.0118,-2.0118,-2.0118,-2.0118,-2.0358,-2.0631,-2.0905,-2.1157,-2.1363,-2.1592,-2.1592,-2.145,-2.1244,-2.0993,-2.0435,-1.9586,-1.8705,-1.7864,-1.7092,-1.6634,-1.6119,-1.5622,-1.5104,-1.4675,-1.4209,-1.3442,-1.2695,-1.1997,0.0,0.0,0.0,0.0,0.0,0.0,0.0,0.0,0.0,0.0,0.0,0.0,0.0,0.0,-1.7503,-1.8699,0.0,-2.144,-2.307,-2.4028,-2.4788,-2.5461,-2.5751,-2.5813,-2.5585,-2.5947,-2.6366,-2.6594,-2.6982,-2.7438,-2.7883,-2.8142,-2.8473,-2.8938,-2.8959,-2.8809,-2.8509,-2.8679,-2.8246,-2.7115,-2.6678,-2.6173,-2.5571,-2.4437,-2.3896,-2.3896,-2.3287,-2.3014,-2.3014,-2.3014,-2.2911,-2.2736,-2.2561,-2.2378,-2.2226,-2.1648,-2.1338,-2.1111,-2.0937,-2.0925,-2.0925,-0.8155,-0.8012,-0.7863,-0.7642,-0.7507,-0.736,-0.7131,-0.7922,-0.8831,-0.9595,-1.086,-1.1973,-1.2758,-1.3208,-1.336,-1.3098,-1.3336,0.0,0.0,-1.6161,-1.6587,-1.7656,-1.8087,-1.8482,-1.8876,-1.9317,-1.9778,-2.0291,-2.0172,-2.0162,-2.026,-2.0719,-2.0993,-2.119,-2.1559,-2.1778,-2.1865,-2.1865,-2.1811,-2.1691,-2.1233,-2.0948,-2.0661,-1.949,-1.8564,-1.7864,-1.7397,-1.6858,-1.635,-1.5977,-1.5515,-1.5052,-1.4633,-1.4049,-1.3422,-1.2892,-1.2173,0.0,0.0,0.0,0.0,0.0,0.0,0.0,0.0,0.0,-1.6783,-1.7837,-1.8614,-1.965,-2.1278,-2.191,-2.2866,-2.4854,-2.5261,-2.5513,-2.5947,-2.6376,-2.6511,-2.6231,-2.6521,-2.6781,-2.6817,-2.7489,-2.7997,-2.8183,-2.8535,-2.8949,-2.9415,-2.9435,-2.9611,-2.9984,-2.9994,-2.9889,-2.9659,-2.8445,-2.7741,-2.7527,-2.5423,-2.4445,-2.4398,-2.3456,-2.3014,-2.3014,-2.3014,-2.3014,-2.299,-2.2704,-2.2585,-2.2553,-2.2258,-2.1894,-2.1563,-2.133,-2.1179,-2.1123,-0.8171,-0.808,-0.7969,-0.765,-0.7597,-0.7469,-0.7147,-0.7601,-0.8394,-0.9553,-1.021,-1.1018,-1.2166,-1.2236,-1.2609,-1.3605,-1.425,0.0,-1.7691,-1.7438,-1.7711,-1.8776,-1.9142,-1.9415,-1.9567,-1.9856,-2.0333,-2.1008,-2.0388,-2.0325,-2.0818,-2.0861,-2.1354,-2.216,-2.2215,-2.2466,-2.2848,-2.2848,-2.2608,-2.2193,-2.1701,-2.1081,-2.0298,-1.9732,-1.92,-1.8701,-1.8224,-1.7355,-1.6402,-1.635,-1.6029,-1.5608,-1.5553,-1.5454,-1.5289,-1.4835,0.0,-1.3498,-1.4393,-1.5316,-1.6316,-1.7544,-1.7557,-1.8098,0.0,0.0,-2.0299,-2.2092,-2.2898,-2.3299,-2.3526,-2.4258,-2.4854,-2.5148,-2.5554,-2.6013,-2.647,-2.6584,-2.675,-2.7112,-2.7195,-2.7382,-2.7738,-2.7862,-2.8266,-2.9094,-2.9197,-2.9435,-2.9891,-2.9922,-2.9942,-2.9994,-2.9994,-2.9501,-2.8392,-2.7248,-2.6173,-2.5157,-2.384,-2.3183,-2.3183,-2.307,-2.3014,-2.3014,-2.3014,-2.3014,-2.3014,-2.2974,-2.2958,-2.2919,-2.2569,-2.241,-2.2363,-2.2323,-2.2116,-2.1892,-0.8155,-0.8094,-0.8025,-0.7812,-0.7679,-0.7522,-0.7306,-0.7625,-0.8203,-0.9067,-0.9587,-1.0203,-1.1057,-1.107,-1.1486,-1.2648,-1.3659,-1.5163,-1.7426,-1.7723,-1.8302,-1.9425,-1.9507,-1.9531,-1.9579,-1.9922,-2.0421,-2.1092,-2.0816,-2.0801,-2.1014,-2.1632,-2.1898,-2.192,-2.2466,-2.2826,-2.3001,-2.3001,-2.2892,-2.2652,-2.1887,-2.1392,-2.0926,-1.9889,-1.9061,-1.8424,-1.7744,-1.703,0.0,0.0,-1.5442,-1.5287,-1.5287,-1.5101,-1.4894,-1.4976,-1.4914,0.0,-1.6931,-1.7677,0.0,0.0,-1.9996,-2.0804,-2.21,-2.2179,-2.2316,-2.3371,-2.395,-2.426,-2.426,-2.4745,-2.5272,0.0,-2.5989,-2.649,-2.6957,-2.6781,-2.6687,-2.6884,-2.6905,-2.7138,-2.7852,-2.8173,-2.8597,-2.9259,-2.9559,-2.9787,-2.9984,-2.9994,-2.9994,-2.9994,-2.9994,-2.9774,-2.927,-2.8784,-2.8295,-2.7824,-2.6608,-2.5672,-2.502,-2.4334,-2.368,-2.3014,-2.3014,-2.3014,-2.3014,-2.3014,-2.3014,-2.3006,-2.2855,-2.2791,-2.2744,-2.2331,-2.2139,-2.2011,-0.8149,-0.8075,-0.8012,-0.7921,-0.7702,-0.7507,-0.7415,-0.7565,-0.7941,-0.8702,-0.9082,-0.9559,-1.0296,-1.0324,-1.0716,-1.1772,-1.3044,-1.4654,-1.6677,-1.7616,-1.8526,-1.951,-1.9701,-1.9762,-1.9784,-2.0162,-2.0603,-2.1092,-2.1092,-2.1161,-2.131,-2.222,-2.2479,-2.2182,-2.2842,-2.3167,-2.3167,-2.3167,-2.3059,-2.2811,-2.1981,-2.1424,-2.0978,-1.9586,-1.8523,-1.7705,-1.7141,-1.6535,0.0,0.0,-1.4914,-1.4831,-1.4956,-1.4769,-1.4635,-1.5349,-1.6063,-1.6922,-1.8351,0.0,0.0,-2.0772,-2.1942,-2.2822,-2.2615,-2.308,-2.366,-2.3991,-2.4322,-2.4497,-2.4497,-2.4879,-2.5334,-2.5802,-2.6314,-2.6781,-2.7247,-2.6915,-2.6667,-2.6791,-2.6687,-2.692,-2.7841,-2.8224,-2.8669,-2.9259,-2.9611,-2.986,-2.9984,-2.9994,-3.0056,-3.018,-3.018,-3.0253,-3.0367,-3.0038,-2.9878,-2.9868,-2.8702,-2.7478,-2.6324,-2.5031,-2.394,-2.3157,-2.3062,-2.3014,-2.3014,-2.3014,-2.3014,-2.3014,-2.3014,-2.3014,-2.295,-2.2434,-2.2306,-2.2306,-0.8149,-0.7991,-0.7906,-0.7899,-0.7635,-0.7407,-0.7399,-0.7241,-0.7528,-0.8648,-0.8762,-0.9131,-1.0194,-1.0299,-1.0624,-1.1435,-1.292,-1.4378,-1.5747,-1.7248,-1.8361,-1.8895,-1.9919,-2.0465,-2.0457,-2.0842,-2.1071,-2.1092,-2.1092,-2.1332,-2.1791,-2.2489,-2.3078,-2.3535,-2.3559,-2.3571,-2.3571,-2.3571,-2.3214,-2.2571,-2.2021,-2.1039,-1.9835,-1.8666,-1.7588,-1.6669,-1.6782,0.0,0.0,-1.5007,-1.4697,-1.4407,-1.4852,-1.4987,0.0,-1.6552,-1.7926,0.0,0.0,0.0,-2.1269,-2.2201,-2.3143,-2.395,-2.4321,-2.4435,-2.4456,-2.4476,-2.4487,-2.4497,-2.4497,-2.4879,-2.5334,-2.5802,-2.6314,-2.6781,-2.7247,-2.6915,-2.6781,-2.7226,-2.6895,-2.692,0.0,-2.7886,-2.8317,-2.9239,-2.9321,-2.9528,-2.9973,-2.9994,-3.0201,-3.0646,-3.0667,-3.0884,-3.1329,-3.0178,-2.9603,-2.9603,-2.8465,-2.7209,-2.5947,-2.4301,-2.353,-2.3449,-2.3165,-2.3014,-2.3014,-2.3014,-2.3014,-2.3014,-2.3014,-2.3014,-2.3014,-2.299,-2.2982,-2.2982,-0.8149,-0.7991,-0.7899,-0.7899,-0.7627,-0.7399,-0.7399,-0.7227,-0.7501,-0.8648,-0.9409,0.0,0.0,0.0,0.0,0.0,-1.2474,-1.3898,-1.5485,-1.6798,-1.7922,-1.8877,-1.9586,-1.9964,-1.9978,-2.0411,-2.0841,-2.1226,-2.1626,-2.1879,-2.2033,-2.3011,-2.3323,-2.3086,-2.3433,-2.3368,-2.2944,-2.2944,-2.2548,-2.1851,-2.1019,-2.0434,-1.9901,-1.8904,-1.761,-1.6333,0.0,0.0,0.0,-1.419,-1.3983,-1.3845,-1.4035,0.0,0.0,-1.6428,0.0,-1.8911,0.0,0.0,-2.2252,-2.3184,-2.3867,-2.4311,-2.4466,-2.4497,-2.4497,-2.4497,-2.4312,-2.4188,-2.4445,-2.4621,-2.4972,-2.5761,-2.6314,-2.6781,-2.7247,-2.7175,-2.7019,-2.6864,-2.6978,0.0,0.0,0.0,0.0,-2.9239,-2.9301,-2.9642,-3.0408,-3.045,-3.0667,-3.1133,-3.1143,-3.1215,-3.1381,-3.1031,-3.0791,-3.0791,-2.9587,-2.8784,-2.8324,-2.6148,-2.5184,-2.511,-2.3852,-2.3306,-2.329,-2.3109,-2.3014,-2.3014,-2.3014,-2.3014,-2.3014,-2.3014,-2.3014,-2.3014,-0.8149,-0.7934,-0.779,-0.779,-0.7514,0.0,0.0,0.0,0.0,0.0,0.0,0.0,0.0,0.0,0.0,0.0,0.0,-1.3415,-1.4588,-1.5886,-1.7094,-1.8244,-1.8631,-1.8981,-1.9382,-1.967,-2.0017,-2.037,-2.1001,-2.1386,-2.1538,-2.2514,-2.2849,-2.2658,-2.3016,-2.2927,-2.2519,-2.2285,-2.1806,-2.1146,-2.029,-1.9627,-1.9015,-1.8166,-1.6945,0.0,0.0,0.0,-1.4014,-1.369,-1.3597,0.0,0.0,0.0,0.0,0.0,-1.8392,-1.9748,-2.1559,-2.2387,-2.2967,-2.3888,-2.4333,-2.4497,-2.4497,-2.4497,-2.4456,-2.4333,-2.395,-2.3722,-2.4012,-2.3877,-2.4166,-2.5451,-2.603,-2.6599,-2.7386,-2.7489,-2.7448,-2.7314,-2.756,-2.7592,0.0,0.0,0.0,-2.9011,-2.9208,-2.9704,-3.0636,-3.0688,-3.0967,-3.1598,-3.1609,-3.1692,-3.1857,-3.1857,-3.1857,-3.1857,-3.0631,-3.0047,-2.998,-2.7812,-2.6884,-2.6809,-2.5571,-2.5007,-2.4741,-2.4128,-2.4003,-2.4206,-2.3784,-2.3888,-2.4261,-2.4261,-2.4261,-2.4158,-0.8149,-0.7826,-0.7605,0.0,0.0,0.0,0.0,0.0,0.0,0.0,0.0,0.0,0.0,0.0,0.0,0.0,0.0,0.0,-1.3175,-1.4575,0.0,-1.7055,-1.7173,-1.7672,-1.8684,-1.8772,-1.8767,-1.8727,-1.9385,-1.9971,-2.0455,-2.1145,-2.1747,-2.231,-2.2309,-2.2295,-2.2227,-2.1657,-2.102,-2.0349,-1.9793,-1.8672,-1.7274,-1.658,0.0,0.0,0.0,0.0,0.0,0.0,0.0,0.0,0.0,0.0,0.0,0.0,0.0,-2.1383,-2.2294,-2.2884,-2.3463,-2.428,-2.4497,-2.4497,-2.4497,-2.4476,-2.4332,-2.3908,-2.3422,-2.308,-2.3049,0.0,-2.306,-2.4828,-2.5564,-2.6397,-2.7728,-2.7945,-2.8121,0.0,0.0,0.0,0.0,0.0,0.0,-2.8711,0.0,-2.9756,-3.0708,-3.076,-3.1164,-3.1988,-3.2019,-3.2225,-3.2727,-3.2669,-3.2669,-3.268,-3.1478,-3.0888,-3.081,-2.9226,-2.8517,-2.8382,-2.8026,-2.7517,-2.6983,-2.5787,-2.5719,-2.6245,-2.5212,-2.547,-2.6436,-2.6481,-2.6481,-2.6155,0.0,0.0,0.0,0.0,0.0,0.0,0.0,0.0,0.0,0.0,0.0,0.0,0.0,0.0,0.0,0.0,0.0,0.0,-1.2919,-1.3767,0.0,0.0,-1.6741,-1.7323,-1.76,-1.8438,-1.8836,-1.8768,-1.9445,-1.9825,-1.992,-2.0579,-2.0975,-2.1144,-2.1119,-2.0862,-2.0369,-2.0225,-1.9775,-1.908,0.0,-1.7815,-1.7728,0.0,0.0,0.0,0.0,0.0,0.0,0.0,0.0,0.0,0.0,0.0,-1.9067,0.0,0.0,-2.2273,-2.2853,-2.3588,-2.4208,-2.4445,-2.4497,-2.4497,-2.4497,-2.4281,-2.3826,-2.3018,-2.2211,-2.1538,-2.1186,0.0,0.0,-2.3981,-2.5336,0.0,-2.7728,-2.8568,0.0,-2.8935,0.0,-2.9384,-2.9408,-2.9641,0.0,0.0,-2.9942,-3.0367,-3.1629,-3.1692,-3.1961,-3.2483,-3.2494,-3.2556,-3.2669,-3.2669,-3.2669,-3.2669,-3.2373,-3.219,-3.219,-3.0829,-2.9655,-2.8687,-2.7399,-2.6251,-2.5192,-2.4317,-2.4097,-2.4324,-2.4667,-2.5,-2.5313,-2.6164,-2.6481,-2.6427,0.0,0.0,0.0,0.0,0.0,0.0,0.0,0.0,0.0,0.0,0.0,0.0,0.0,0.0,0.0,0.0,0.0,0.0,0.0,-1.3069,-1.3922,-1.5055,-1.5487,-1.5931,-1.6441,-1.7081,-1.7394,-1.7343,0.0,0.0,-1.8261,-1.8877,-1.93,-1.9562,-1.981,-1.9709,-1.933,-1.9108,0.0,0.0,0.0,0.0,0.0,0.0,0.0,0.0,0.0,0.0,0.0,0.0,0.0,-1.8009,-1.8475,-1.9385,-2.0452,-2.1373,0.0,-2.2946,-2.3608,-2.4115,-2.4497,-2.4497,-2.4497,-2.4342,-2.3784,-2.3453,-2.2842,-2.1311,-2.0576,0.0,-1.9331,-2.0281,0.0,0.0,0.0,0.0,-2.7728,-2.8841,-2.9534,0.0,-3.0218,0.0,-3.0504,-3.0779,-3.1156,0.0,-3.1015,-3.1019,-3.1936,-3.1988,-3.2194,-3.2659,-3.2669,-3.2669,-3.2669,-3.2669,-3.2669,-3.2669,-3.2669,-3.2669,-3.2669,-3.196,-3.1237,-3.0509,0.0,-2.7835,-2.6876,-2.5419,-2.4887,-2.5074,-2.559,-2.5675,-2.5744,-2.7419,-2.7688,-2.7302,0.0,0.0,0.0,0.0,0.0,0.0,0.0,0.0,0.0,0.0,0.0,0.0,0.0,0.0,0.0,0.0,0.0,0.0,0.0,0.0,-1.3386,-1.4459,-1.4132,-1.438,-1.5375,-1.5466,-1.5487,0.0,0.0,0.0,0.0,0.0,0.0,0.0,0.0,0.0,0.0,0.0,0.0,0.0,0.0,0.0,0.0,0.0,0.0,0.0,0.0,0.0,0.0,0.0,-1.8711,-1.9505,-2.0097,-2.1109,-2.2252,-2.3111,-2.337,-2.3536,-2.428,-2.4497,-2.4497,-2.4497,-2.4456,-2.4063,-2.2791,-2.2356,-2.159,-1.9388,0.0,-1.8454,-1.7585,-1.8907,-2.0493,-2.1549,0.0,-2.62,-2.7755,-2.8896,-2.9853,-3.0505,-3.1347,-3.1857,-3.1721,-3.2051,-3.2497,-3.2976,-3.2151,-3.1833,-3.2172,-3.2137,-3.2256,-3.2659,-3.2669,-3.2669,-3.2669,-3.2669,-3.2669,-3.2669,-3.2669,-3.2669,-3.2669,-3.2669,-3.2612,-3.2373,-3.1305,-3.049,-2.9786,-2.7633,-2.6889,-2.7113,-2.7225,-2.7068,-2.6969,-2.9175,-2.9333,-2.8615,0.0,0.0,0.0,0.0,0.0,0.0,0.0,0.0,0.0,0.0,-1.1303,-1.0656,0.0,0.0,0.0,0.0,0.0,0.0,0.0,0.0,0.0,-1.3909,-1.4275,-1.4546,-1.4742,0.0,0.0,0.0,0.0,0.0,0.0,0.0,0.0,0.0,0.0,0.0,0.0,0.0,0.0,0.0,0.0,0.0,0.0,0.0,0.0,0.0,0.0,0.0,0.0,0.0,-1.9297,-2.1225,-2.2471,-2.3179,-2.3619,-2.4146,-2.4259,-2.4301,-2.4456,-2.4497,-2.4497,-2.4497,-2.426,-2.3732,-2.2729,-2.1611,0.0,0.0,0.0,-1.6713,-1.6146,-1.7522,0.0,-2.0959,0.0,0.0,0.0,0.0,-2.9827,0.0,0.0,0.0,0.0,0.0,0.0,0.0,0.0,-3.3142,-3.301,-3.2727,-3.2597,-3.2669,-3.2669,-3.2669,-3.2669,-3.2669,-3.2669,-3.2669,-3.2669,-3.2669,-3.2669,-3.2669,-3.2133,-3.1121,-3.0888,0.0,-2.9018,-2.8336,-2.7858,-2.762,-2.8289,-2.8279,-2.8062,-2.9491,-2.9889,-2.9722,0.0,0.0,0.0,0.0,0.0,0.0,0.0,-1.0857,-1.2075,-1.3268,-1.293,-1.2319,-1.1656,-1.0998,0.0,0.0,0.0,0.0,0.0,0.0,0.0,0.0,0.0,0.0,0.0,0.0,0.0,0.0,0.0,0.0,0.0,0.0,0.0,0.0,0.0,0.0,0.0,0.0,0.0,0.0,0.0,0.0,0.0,0.0,0.0,0.0,0.0,0.0,0.0,0.0,-1.8924,-2.0628,-2.2397,-2.3389,-2.3919,-2.4136,-2.4321,-2.4497,-2.4497,-2.4497,-2.4497,-2.4497,-2.4209,-2.3432,-2.1507,0.0,0.0,0.0,0.0,-1.5442,-1.4738,0.0,0.0,0.0,0.0,0.0,0.0,0.0,0.0,0.0,0.0,0.0,0.0,0.0,0.0,0.0,0.0,-3.3466,-3.3193,-3.2908,-3.2669,-3.2669,-3.2669,-3.2669,-3.2669,-3.2669,-3.2669,-3.2669,-3.2669,-3.2669,-3.2669,-3.2669,-3.2373,-3.1777,-3.1063,-3.0461,-2.9797,-2.9003,-2.826,-2.7796,-2.8788,-2.8417,-2.7517,-2.9333,-2.9606,-2.9164,0.0,0.0,0.0,0.0,0.0,0.0,0.0,-1.175,-1.3132,-1.4327,-1.4368,-1.3947,-1.2997,-1.175,-1.084,0.0,0.0,0.0,0.0,0.0,0.0,0.0,0.0,0.0,0.0,0.0,0.0,0.0,0.0,0.0,0.0,0.0,0.0,0.0,0.0,0.0,0.0,0.0,0.0,0.0,0.0,0.0,0.0,0.0,0.0,0.0,0.0,0.0,0.0,0.0,-1.8009,-1.8919,-2.085,-2.2449,-2.3598,-2.3701,-2.4053,-2.4373,-2.4476,-2.4497,-2.4497,-2.4497,-2.4064,-2.2944,-2.0384,-1.9212,0.0,0.0,-1.4521,-1.4511,-1.3879,0.0,0.0,0.0,0.0,0.0,0.0,0.0,0.0,0.0,0.0,0.0,0.0,0.0,0.0,0.0,0.0,0.0,-3.3193,-3.2965,-3.2794,-3.2669,-3.2669,-3.2669,-3.2669,-3.2669,-3.2669,-3.2669,-3.2669,-3.2669,-3.2669,-3.2669,-3.2669,-3.2612,-3.1662,-3.1189,-3.1121,-3.0109,-2.9257,-2.8559,-2.9475,-2.8775,-2.7473,-2.9333,-2.9386,-2.8721,0.0,0.0,0.0,0.0,0.0,0.0,0.0,-1.1845,-1.3757,-1.4955,-1.4642,-1.4259,-1.4151,-1.3008,-1.1696,0.0,0.0,0.0,0.0,0.0,0.0,0.0,0.0,0.0,0.0,0.0,0.0,0.0,0.0,0.0,0.0,0.0,0.0,0.0,0.0,0.0,0.0,0.0,0.0,0.0,0.0,0.0,0.0,0.0,0.0,0.0,0.0,0.0,0.0,0.0,0.0,-1.644,-1.7719,-2.0224,-2.2708,-2.3122,0.0,0.0,-2.4394,-2.4497,-2.4497,-2.4497,-2.3577,-2.2118,-2.0228,0.0,0.0,-1.4707,-1.4003,-1.3824,-1.4179,-1.479,0.0,0.0,0.0,0.0,0.0,0.0,0.0,0.0,0.0,0.0,0.0,0.0,0.0,0.0,0.0,0.0,-3.325,-3.3193,-3.3022,-3.2727,-3.2669,-3.2669,-3.2669,-3.2669,-3.2669,-3.2669,-3.2669,-3.2669,-3.2669,-3.2669,-3.2669,-3.2669,-3.2555,-3.2555,0.0,-3.2373,-3.184,-3.1086,-3.1196,-3.0586,-2.9722,-2.9942,-2.9942,-2.9827,0.0,0.0,0.0,0.0,0.0,0.0,-1.018,-1.1764,-1.3417,-1.4995,-1.4995,-1.4694,-1.4292,-1.3448,-1.2188,0.0,0.0,0.0,0.0,0.0,0.0,0.0,0.0,0.0,0.0,0.0,0.0,0.0,0.0,0.0,0.0,0.0,0.0,0.0,0.0,0.0,0.0,0.0,0.0,0.0,0.0,0.0,0.0,0.0,0.0,0.0,0.0,0.0,0.0,0.0,0.0,0.0,-1.5946,-1.7492,0.0,0.0,-2.2242,-2.3205,-2.3939,-2.4333,-2.4497,-2.4497,-2.3474,-2.1942,-1.9865,0.0,-1.6417,-1.4299,-1.3721,-1.3648,-1.3834,-1.4273,-1.5059,0.0,-1.7396,-1.91,0.0,0.0,0.0,0.0,0.0,0.0,0.0,0.0,0.0,0.0,0.0,0.0,-3.3749,-3.342,-3.3136,-3.3022,-3.2794,-3.2669,-3.2669,-3.2669,-3.2669,-3.2669,-3.2669,-3.2669,-3.2669,-3.2669,-3.2669,-3.2669,-3.2669,-3.2669,0.0,-3.237,-3.194,-3.135,-3.1071,-3.0563,-2.9994,-2.9994,-2.9994,-2.9994,0.0,0.0,0.0,0.0,0.0,-0.9032,-1.0247,-1.1465,-1.282,-1.4449,-1.4587,-1.4375,-1.3987,-1.3155,-1.2008,-1.0495,0.0,0.0,0.0,0.0,0.0,0.0,0.0,0.0,0.0,0.0,0.0,0.0,0.0,0.0,0.0,0.0,0.0,0.0,0.0,0.0,0.0,0.0,0.0,0.0,0.0,0.0,0.0,0.0,0.0,0.0,0.0,0.0,0.0,0.0,0.0,0.0,0.0,0.0,0.0,0.0,-2.0907,-2.2149,-2.335,-2.4002,-2.4301,-2.4301,-2.3308,-2.1694,0.0,0.0,-1.62,-1.4041,-1.3597,-1.3597,-1.3597,-1.3879,-1.4449,0.0,-1.63,-1.7849,-2.0984,0.0,0.0,0.0,0.0,0.0,0.0,0.0,0.0,0.0,0.0,0.0,-3.4255,-3.3759,-3.3363,-3.3193,-3.2851,-3.2669,-3.2669,-3.2669,-3.2669,-3.2669,-3.2669,-3.2669,-3.2669,-3.2669,-3.2669,-3.2669,-3.2669,0.0,0.0,-3.2122,-3.1702,-3.1143,-3.0812,-3.0398,-2.9994,-2.9994,-2.9994,-2.9994,0.0,0.0,0.0,0.0,0.0,0.0,-0.9625,-1.0828,-1.2034,-1.3254,-1.313,-1.3021,-1.3281,-1.1938,-1.1011,-1.0996,0.0,0.0,0.0,0.0,0.0,0.0,0.0,0.0,0.0,0.0,-1.4552,-1.5487,-1.6094,-1.6375,0.0,0.0,0.0,0.0,0.0,0.0,0.0,0.0,0.0,0.0,0.0,0.0,0.0,0.0,0.0,0.0,0.0,0.0,0.0,0.0,0.0,0.0,0.0,0.0,-1.4956,0.0,-1.9727,-2.0845,-2.2687,-2.3536,-2.3929,-2.3929,-2.2842,-2.1217,0.0,-1.7377,-1.5856,-1.4003,-1.3597,-1.3597,-1.3597,-1.3597,-1.4076,-1.5463,-1.6761,-1.8647,-2.1734,0.0,0.0,0.0,0.0,0.0,0.0,0.0,0.0,0.0,0.0,0.0,-3.4524,-3.4255,-3.3816,-3.3193,-3.2851,-3.2669,-3.2669,-3.2669,-3.2669,-3.2669,-3.2669,-3.2669,-3.2669,-3.2669,-3.2669,-3.2669,0.0,0.0,0.0,-3.1988,-3.1505,-3.0698,-3.0688,-3.0398,-2.9994,-2.9994,-2.9994,-2.9994,0.0,0.0,0.0,0.0,0.0,0.0,0.0,-0.9868,-1.0801,-1.2007,-1.2087,-1.2179,-1.264,-1.1925,-1.1349,-1.1214,0.0,0.0,0.0,0.0,0.0,0.0,0.0,0.0,0.0,-1.4219,-1.4777,-1.5487,-1.5735,-1.623,-1.6937,-1.6196,0.0,0.0,0.0,0.0,0.0,0.0,0.0,0.0,0.0,0.0,0.0,0.0,0.0,0.0,0.0,0.0,0.0,0.0,0.0,0.0,0.0,0.0,0.0,-1.5804,-1.7378,-1.8742,-1.9665,-2.0508,-2.1026,-2.0705,-2.0052,-1.9034,-1.7418,-1.6475,-1.5473,-1.3931,-1.3597,-1.3597,-1.3597,-1.3668,-1.4358,-1.6291,-1.7172,0.0,0.0,0.0,0.0,0.0,0.0,0.0,0.0,0.0,0.0,0.0,0.0,0.0,-3.4524,-3.4255,-3.403,-3.3816,-3.3466,-3.3296,-3.3296,-3.3126,-3.3022,-3.3022,-3.2784,-3.2669,-3.2669,-3.2669,-3.2669,0.0,0.0,0.0,0.0,-3.1371,-3.0946,-3.0657,-3.0336,-3.0129,-2.9994,-2.9994,-2.9994,-2.9994,0.0,0.0,0.0,0.0,0.0,0.0,0.0,-0.888,-0.9554,-1.076,-1.081,-1.1054,-1.1938,-1.1442,-1.1123,-1.1322,0.0,0.0,0.0,0.0,0.0,0.0,0.0,0.0,-1.356,-1.4258,-1.4886,-1.5487,-1.5564,-1.6048,-1.6913,-1.625,-1.5795,-1.5511,0.0,0.0,0.0,0.0,0.0,0.0,0.0,0.0,-1.5699,0.0,0.0,0.0,0.0,0.0,0.0,0.0,0.0,0.0,0.0,0.0,0.0,0.0,-1.5411,-1.6655,0.0,-1.8671,-1.9202,-1.8911,-1.8464,-1.7781,-1.6425,-1.5753,-1.509,-1.3845,-1.3597,-1.3597,-1.3597,-1.3716,-1.4334,-1.598,-1.7053,0.0,0.0,0.0,0.0,0.0,0.0,0.0,0.0,0.0,0.0,0.0,0.0,0.0,-3.4524,-3.4182,-3.3984,-3.3984,-3.3765,-3.3625,-3.3625,-3.3409,-3.3353,-3.3353,-3.2947,-3.2807,-3.274,-3.2563,-3.2479,0.0,0.0,0.0,0.0,-3.1023,-3.0638,-3.0546,-3.0161,-2.9994,-2.9994,-2.9994,-2.9994,-2.9994,0.0,0.0,0.0,0.0,0.0,0.0,0.0,0.0,-0.8429,-0.9638,-0.9529,-0.9855,-1.1189,-1.0625,-1.0469,-1.1269,0.0,0.0,0.0,0.0,0.0,0.0,0.0,0.0,-1.3233,-1.418,-1.4938,-1.5487,-1.5582,-1.5919,-1.65,-1.6423,-1.6123,-1.559,-1.5466,-1.4888,0.0,0.0,0.0,0.0,0.0,-1.5524,0.0,0.0,0.0,0.0,0.0,0.0,0.0,0.0,0.0,0.0,0.0,0.0,0.0,0.0,0.0,0.0,0.0,-1.7761,-1.8113,-1.8082,-1.7761,-1.712,-1.5835,-1.5235,0.0,-1.3796,-1.3597,-1.3628,-1.3721,-1.3809,-1.4181,-1.5179,0.0,0.0,0.0,0.0,0.0,0.0,0.0,0.0,0.0,0.0,0.0,0.0,0.0,0.0,-3.4414,-3.3988,-3.3737,-3.3737,-3.363,-3.3586,-3.3586,-3.3519,-3.3529,-3.3519,-3.3082,-3.287,-3.2859,-3.2412,-3.221,0.0,0.0,0.0,0.0,-3.0903,-3.0589,-3.0391,-3.0088,-2.9994,-2.9994,-2.9994,-2.9994,-2.9994,0.0,0.0,0.0,0.0,0.0,0.0,0.0,0.0,0.0,0.0,-0.9734,-0.9945,-1.0643,-1.0565,-1.0513,0.0,0.0,0.0,0.0,0.0,0.0,0.0,0.0,0.0,-1.3644,-1.4732,-1.5375,-1.5487,-1.5674,-1.6006,-1.6466,-1.5768,-1.549,-1.5569,-1.4822,-1.3924,0.0,0.0,0.0,0.0,-1.5293,-1.5211,0.0,0.0,0.0,0.0,-1.3991,-1.3994,0.0,0.0,0.0,0.0,0.0,0.0,0.0,0.0,-1.3669,-1.3876,-1.4413,0.0,-1.5183,-1.4821,-1.4925,-1.4909,0.0,-1.4293,-1.4304,-1.371,0.0,-1.3917,-1.5007,-1.4818,-1.5437,-1.8344,0.0,0.0,0.0,0.0,0.0,0.0,0.0,0.0,0.0,0.0,0.0,0.0,0.0,-3.341,-3.341,-3.33,-3.3235,-3.3235,-3.3236,-3.3193,-3.3193,-3.2965,-3.2856,-3.2856,-3.2532,-3.237,-3.237,-3.2263,-3.221,0.0,0.0,0.0,-3.1476,-3.0758,-3.0444,-3.0391,-3.0088,-2.9994,-2.9994,-2.9994,-2.9994,-2.9994,0.0,0.0,0.0,0.0,0.0,0.0,0.0,0.0,0.0,0.0,0.0,0.0,0.0,0.0,0.0,0.0,0.0,0.0,0.0,0.0,0.0,0.0,0.0,-1.2575,-1.3242,-1.4464,-1.512,-1.5184,-1.5314,-1.5538,-1.5856,-1.5557,-1.5513,-1.5638,-1.4704,-1.3691,0.0,0.0,0.0,0.0,-1.4732,0.0,0.0,0.0,0.0,0.0,-1.3232,-1.3216,0.0,-1.3203,-1.3366,-1.3411,0.0,0.0,0.0,0.0,-1.3597,-1.3597,-1.3597,-1.4107,-1.4562,-1.4314,-1.4438,-1.4552,-1.4304,0.0,0.0,0.0,0.0,-1.4056,-1.5242,-1.5739,0.0,0.0,0.0,0.0,0.0,0.0,0.0,0.0,0.0,0.0,0.0,0.0,0.0,0.0,0.0,-3.3124,-3.3124,-3.2927,-3.2807,-3.2807,-3.2525,-3.2623,-3.3113,-3.2899,-3.2846,-3.2846,-3.248,-3.2276,-3.2265,-3.2039,-3.1932,0.0,0.0,0.0,-3.1523,-3.0861,-3.0661,-3.0713,-3.0349,-3.0193,-3.0193,-3.0047,-2.9994,-2.9994,0.0,0.0,0.0,0.0,0.0,0.0,0.0,0.0,0.0,0.0,0.0,0.0,0.0,0.0,0.0,0.0,0.0,0.0,0.0,0.0,0.0,0.0,-1.2171,-1.2341,-1.2888,-1.4111,-1.4846,-1.5041,-1.5187,-1.5336,-1.5461,-1.572,-1.5666,-1.5338,-1.4614,-1.3655,0.0,0.0,0.0,0.0,0.0,0.0,0.0,0.0,0.0,0.0,0.0,0.0,0.0,-1.2494,-1.2791,-1.2967,-1.3369,0.0,0.0,0.0,0.0,0.0,-1.381,-1.4704,-1.5447,-1.5008,-1.5049,-1.5169,-1.506,0.0,0.0,0.0,0.0,0.0,0.0,-1.693,0.0,0.0,0.0,0.0,0.0,0.0,0.0,0.0,0.0,0.0,0.0,0.0,0.0,0.0,0.0,-3.2842,-3.2842,-3.2481,-3.2263,-3.2263,-3.1848,-3.2012,-3.2842,-3.2842,-3.2842,-3.2895,-3.2448,-3.2263,-3.2252,-3.1815,-3.1618,-3.1578,0.0,0.0,-3.1578,-3.1086,-3.0972,-3.1178,-3.0661,-3.0443,-3.0443,-3.0141,-3.0047,-3.0047,0.0,0.0,0.0,0.0,0.0,0.0,0.0,0.0,0.0,0.0,0.0,0.0,0.0,0.0,0.0,0.0,0.0,0.0,0.0,0.0,0.0,-1.3002,-1.3021,-1.3407,-1.4265,-1.5001,-1.5619,-1.6159,-1.6726,-1.7035,-1.702,-1.6312,-1.5039,-1.3351,-1.367,-1.3017,-1.1781,-1.3032,0.0,-1.3662,0.0,0.0,0.0,0.0,0.0,0.0,0.0,0.0,0.0,-1.1767,-1.2296,-1.2915,-1.2987,0.0,0.0,0.0,0.0,0.0,-1.4801,-1.6552,-1.754,-1.5022,-1.5216,-1.586,-1.5306,0.0,0.0,0.0,0.0,0.0,0.0,-1.9108,0.0,0.0,0.0,0.0,0.0,0.0,0.0,0.0,0.0,0.0,0.0,0.0,0.0,0.0,0.0,-3.1848,-3.1848,-3.1771,-3.1738,-3.1738,-3.1662,-3.1695,-3.1848,-3.1848,-3.1848,-3.1848,-3.1771,-3.1738,-3.1738,-3.1662,-3.1618,-3.1618,0.0,-3.1578,-3.1578,-3.1281,-3.1178,-3.1178,-3.0879,-3.0724,-3.0724,-3.0453,-3.0349,-3.0297,0.0,0.0,0.0,0.0,0.0,0.0,0.0,0.0,0.0,0.0,0.0,0.0,0.0,0.0,0.0,0.0,0.0,0.0,0.0,0.0,-1.2788,-1.3657,-1.3858,-1.4079,-1.4313,-1.5094,-1.5659,-1.5977,-1.6603,-1.6776,-1.6542,-1.6093,-1.4984,-1.3356,-1.3772,-1.3187,-1.1935,-1.2828,-1.338,-1.3592,0.0,0.0,0.0,0.0,0.0,0.0,0.0,0.0,0.0,0.0,-1.2037,-1.2606,-1.2822,0.0,0.0,0.0,0.0,0.0,-1.4359,-1.5931,-1.7285,-1.6499,-1.779,-1.9125,-1.8515,-1.8308,0.0,0.0,0.0,0.0,0.0,0.0,0.0,0.0,0.0,0.0,0.0,0.0,0.0,0.0,0.0,0.0,0.0,0.0,0.0,0.0,0.0,0.0,-3.1618,-3.1618,-3.1618,-3.1618,-3.1618,-3.1618,-3.1618,-3.1618,-3.1618,-3.1618,-3.1618,-3.1618,-3.1618,-3.1618,-3.1618,-3.1618,0.0,-3.1618,-3.1578,-3.1476,-3.1424,-3.1373,-3.1127,-3.1034,-3.0983,-3.0724,-3.0505,-3.0391,0.0,0.0,0.0,0.0,0.0,0.0,0.0,0.0,0.0,0.0,0.0,0.0,0.0,0.0,0.0,0.0,0.0,0.0,0.0,-1.2318,-1.3051,-1.3798,-1.4362,-1.4639,-1.4643,-1.5342,-1.5795,-1.598,-1.6464,-1.6414,-1.5846,-1.5804,-1.5031,-1.3662,-1.3816,-1.3228,-1.2202,-1.2654,-1.3004,-1.3222,0.0,0.0,0.0,0.0,0.0,0.0,0.0,0.0,0.0,0.0,0.0,0.0,0.0,0.0,0.0,-1.3597,-1.3716,-1.3886,-1.4107,-1.5419,-1.6951,-1.7975,-1.9727,-2.1227,-2.1493,-2.1163,0.0,0.0,0.0,0.0,0.0,0.0,0.0,0.0,0.0,0.0,0.0,0.0,0.0,0.0,0.0,0.0,0.0,0.0,0.0,0.0,0.0,0.0,-3.1618,-3.1618,-3.1618,-3.1618,-3.1618,-3.1618,-3.1618,-3.1618,-3.1618,-3.1618,-3.1618,-3.1618,-3.1618,-3.1618,-3.1618,-3.1618,-3.1618,-3.1618,-3.1618,-3.1618,-3.1618,-3.1578,-3.1373,-3.1281,-3.1178,-3.0983,-3.0713,-3.0495,0.0,0.0,0.0,0.0,0.0,0.0,0.0,0.0,0.0,0.0,0.0,0.0,0.0,0.0,0.0,0.0,0.0,0.0,0.0,-1.1944,-1.2477,-1.2962,-1.4134,-1.5238,-1.6225,-1.631,-1.6577,-1.7092,-1.7241,-1.6878,-1.5986,-1.5872,-1.4979,-1.3499,-1.3079,-1.2605,-1.2139,-1.2666,-1.2552,-1.2075,-1.2556,0.0,0.0,0.0,0.0,0.0,0.0,0.0,0.0,0.0,0.0,0.0,0.0,0.0,-1.3597,-1.3597,-1.3773,-1.4177,-1.5063,-1.6413,-1.7813,-1.8714,-1.8988,-1.9698,-2.2267,-2.2122,0.0,-2.3437,0.0,0.0,0.0,0.0,0.0,0.0,0.0,0.0,0.0,0.0,0.0,0.0,0.0,0.0,0.0,0.0,0.0,0.0,0.0,0.0,-3.1618,-3.1618,-3.1618,-3.1618,-3.1618,-3.1618,-3.1618,-3.1618,-3.1618,-3.1618,-3.1618,-3.1618,-3.1618,-3.1618,-3.1618,-3.1618,-3.1618,-3.1618,-3.1618,-3.1618,-3.1618,-3.1618,-3.1578,-3.1424,-3.1178,-3.1178,-3.0983,-3.0776,0.0,0.0,0.0,0.0,0.0,0.0,0.0,0.0,0.0,0.0,0.0,0.0,0.0,0.0,0.0,0.0,0.0,0.0,0.0,-1.1794,-1.2483,-1.3425,-1.4612,-1.5438,-1.5826,-1.6205,-1.6508,-1.6765,-1.6809,-1.6669,-1.6302,-1.6249,-1.5299,-1.3633,-1.3953,-1.3385,-1.2198,-1.2551,-1.2478,-1.2069,-1.1875,-1.1732,0.0,0.0,0.0,0.0,0.0,0.0,0.0,0.0,-1.1674,-1.2287,-1.2141,-1.2793,-1.3558,-1.3348,-1.3636,-1.4095,-1.4521,-1.6624,-1.8748,-1.9006,-2.0597,0.0,0.0,-2.5037,-2.6057,-2.6959,-2.7303,0.0,0.0,0.0,0.0,0.0,0.0,0.0,0.0,0.0,0.0,0.0,0.0,0.0,0.0,0.0,0.0,0.0,0.0,0.0,-3.1618,-3.1618,-3.1618,-3.1618,-3.1618,-3.1618,-3.1618,-3.1618,-3.1618,-3.1618,-3.1618,-3.1618,-3.1618,-3.1618,-3.1618,-3.1618,-3.1618,-3.1618,-3.1618,-3.1618,-3.1618,-3.1618,-3.1618,-3.1527,-3.1476,-3.1476,-3.1281,-3.1023,0.0,0.0,0.0,0.0,0.0,0.0,0.0,0.0,0.0,0.0,0.0,0.0,0.0,0.0,0.0,0.0,0.0,0.0,-1.1017,-1.1531,-1.2251,-1.3218,-1.4371,-1.5066,-1.5199,-1.5983,-1.641,-1.646,-1.6498,-1.6423,-1.6259,-1.6065,-1.5374,-1.4303,-1.4414,-1.3851,-1.2805,-1.2581,-1.2337,-1.2059,-1.161,-1.1369,0.0,0.0,0.0,0.0,0.0,0.0,0.0,0.0,-1.156,-1.2058,-1.2027,-1.2637,-1.3372,-1.3345,-1.3884,-1.4564,-1.4885,-1.6793,-1.8919,-1.9707,0.0,0.0,-2.5483,-2.7013,-2.8443,-2.9639,-2.9682,0.0,0.0,0.0,0.0,0.0,0.0,0.0,0.0,0.0,0.0,0.0,0.0,0.0,0.0,0.0,0.0,0.0,0.0,0.0,0.0,-3.1618,-3.1618,-3.1618,-3.1618,-3.1618,-3.1618,-3.1618,-3.1618,-3.1618,-3.1618,-3.1618,-3.1618,-3.1618,-3.1618,-3.1618,-3.1618,-3.1618,-3.1618,-3.1618,-3.1618,-3.1618,-3.1618,-3.1618,-3.1618,-3.1618,-3.1476,-3.1333,0.0,0.0,0.0,0.0,0.0,0.0,0.0,0.0,0.0,0.0,0.0,0.0,0.0,0.0,0.0,0.0,0.0,0.0,-1.0498,-1.1069,-1.1614,-1.2083,-1.3256,-1.4121,-1.4572,-1.5761,-1.6388,-1.6388,-1.6468,-1.6259,-1.5798,-1.5183,-1.5174,-1.5528,-1.4152,-1.3755,-1.4118,-1.2766,-1.2092,-1.1913,-1.1913,-1.1568,-1.1145,0.0,0.0,0.0,0.0,0.0,0.0,0.0,-1.1612,-1.1747,-1.2627,-1.2894,-1.302,-1.3627,-1.4653,-1.5741,-1.6415,-1.7047,-1.8188,0.0,0.0,0.0,-2.6824,-2.758,-2.8351,-3.1236,0.0,-3.0622,-3.061,0.0,0.0,0.0,0.0,0.0,0.0,0.0,0.0,0.0,0.0,0.0,0.0,0.0,0.0,0.0,0.0,0.0,0.0,-3.1607,-3.1607,-3.1607,-3.1607,-3.1607,-3.1607,-3.1607,-3.1607,-3.1607,-3.1607,-3.1567,-3.1618,-3.1618,-3.1618,-3.1618,-3.1618,-3.1618,-3.1618,-3.1618,-3.1618,-3.1618,-3.1618,-3.1618,-3.1618,-3.1618,-3.1618,-3.1618,0.0,0.0,0.0,0.0,0.0,0.0,0.0,0.0,0.0,0.0,0.0,0.0,0.0,0.0,0.0,0.0,0.0,0.0,-1.0424,-1.0991,-1.1546,-1.201,-1.3192,-1.3887,-1.404,-1.4773,-1.5539,-1.6388,-1.6041,-1.5994,-1.6225,-1.6038,-1.5706,-1.524,-1.515,-1.4587,-1.3662,-1.2923,-1.2785,-1.2957,-1.2101,-1.1768,-1.1801,0.0,0.0,0.0,0.0,0.0,0.0,0.0,0.0,0.0,-1.1902,0.0,-1.3395,-1.3436,-1.4178,-1.5039,-1.5441,-1.7707,0.0,-2.0807,0.0,0.0,0.0,-2.9052,0.0,0.0,-3.2864,-3.2573,-3.2159,0.0,0.0,-3.287,-3.3437,0.0,0.0,0.0,0.0,0.0,0.0,0.0,0.0,0.0,0.0,0.0,0.0,0.0,0.0,-3.0635,-3.0635,-3.0635,-3.0635,-3.0635,-3.0635,-3.0635,-3.0635,-3.0635,-3.0635,-3.0974,-3.1618,-3.1618,-3.1618,-3.1618,-3.1618,-3.1618,-3.1618,-3.1618,-3.1618,-3.1618,-3.1618,-3.1618,-3.1618,-3.1618,-3.1618,-3.1618,0.0,0.0,0.0,0.0,0.0,0.0,0.0,0.0,0.0,0.0,-1.0656,-1.0656,0.0,0.0,0.0,0.0,0.0,0.0,0.0,-1.0754,-1.1268,-1.2012,-1.2716,-1.3409,-1.4105,-1.4681,-1.5204,-1.5683,-1.5608,-1.5839,-1.6388,-1.5982,-1.586,-1.5928,-1.5646,-1.502,-1.4099,-1.3561,-1.3285,-1.317,-1.2481,-1.2113,-1.1985,0.0,0.0,0.0,0.0,0.0,0.0,0.0,0.0,0.0,-1.156,0.0,-1.3056,-1.3737,-1.4669,-1.5781,-1.7301,-1.9751,0.0,-2.3455,-2.6115,-2.8643,-2.9505,0.0,0.0,0.0,0.0,-3.3483,-3.3117,-3.3051,0.0,0.0,0.0,0.0,0.0,0.0,0.0,0.0,0.0,0.0,0.0,0.0,0.0,0.0,0.0,0.0,0.0,-3.0209,-3.0209,-3.0209,-3.0209,-3.0209,-3.0209,-3.0209,-3.0209,-3.0209,-3.0209,-3.0515,-3.1072,-3.1247,-3.1433,-3.1618,-3.1618,-3.1618,-3.1618,-3.1618,-3.1618,-3.1618,-3.1618,-3.1618,-3.1618,-3.1618,-3.1618,-3.1618,0.0,0.0,-0.7855,-0.8118,0.0,0.0,0.0,0.0,0.0,-1.0693,-1.0681,-1.0681,0.0,0.0,0.0,-1.0609,0.0,0.0,0.0,-1.0489,-1.0952,-1.2042,-1.218,-1.3001,-1.4655,-1.516,-1.5147,-1.4598,-1.5147,-1.5741,-1.631,-1.5381,-1.5732,-1.7073,-1.573,-1.5104,-1.4964,-1.4281,-1.3512,-1.2793,-1.2866,-1.247,-1.1865,-1.2163,0.0,0.0,0.0,0.0,0.0,0.0,0.0,0.0,-1.1516,-1.1774,-1.2335,-1.4228,-1.5602,-1.7231,-2.0496,0.0,0.0,0.0,0.0,0.0,0.0,0.0,0.0,0.0,0.0,0.0,0.0,0.0,0.0,0.0,0.0,0.0,0.0,0.0,0.0,0.0,0.0,0.0,0.0,0.0,0.0,0.0,0.0,0.0,0.0,-3.0078,-3.0078,-3.0078,-3.0078,-3.0078,-3.0078,-3.0078,-3.0078,-3.0078,-3.0078,-3.01,-3.0155,-3.0624,-3.1094,-3.1564,-3.1564,-3.1586,-3.1618,-3.1618,-3.1618,-3.1618,-3.1618,-3.1618,-3.1618,-3.1618,-3.1618,-3.1618,0.0,0.0,-0.9161,-0.9373,0.0,0.0,0.0,0.0,-1.0632,-1.0681,-1.0621,-1.0584,-1.0681,-1.0621,0.0,-1.0609,-1.056,0.0,0.0,-1.0846,-1.1373,-1.1983,-1.3317,-1.4441,-1.5296,-1.4964,-1.4733,-1.4598,-1.4733,-1.5095,-1.5683,-1.5479,-1.5829,-1.6625,-1.5835,-1.5081,-1.4337,-1.3439,-1.2917,-1.2611,-1.2332,-1.2138,-1.2034,-1.2059,-1.1701,0.0,0.0,0.0,0.0,0.0,0.0,0.0,-1.1675,-1.2128,-1.2626,-1.3553,-1.4776,-1.6356,0.0,-2.0832,0.0,0.0,0.0,0.0,0.0,0.0,0.0,0.0,0.0,0.0,0.0,0.0,0.0,0.0,0.0,0.0,0.0,0.0,0.0,0.0,0.0,0.0,0.0,0.0,0.0,0.0,0.0,0.0,-2.911,-2.911,-2.911,-2.911,-2.911,-2.911,-2.911,-2.911,-2.911,0.0,-2.911,-2.927,-2.9652,-3.0144,-3.0614,-3.105,-3.105,-3.1269,-3.1618,-3.1618,-3.1618,-3.1618,-3.1618,-3.1618,-3.1618,-3.1618,-3.1618,-3.1618,0.0,0.0,0.0,0.0,0.0,0.0,0.0,0.0,-1.0656,-1.0693,-1.0632,-1.0621,-1.0681,-1.0632,0.0,0.0,-1.0548,-1.0474,0.0,0.0,-1.1595,-1.24,-1.3827,-1.4642,-1.4676,-1.4642,-1.4598,-1.4598,-1.4598,-1.4917,-1.5513,-1.5834,-1.6453,-1.7238,-1.6405,-1.5633,-1.4893,-1.3795,-1.3072,-1.2649,-1.2287,-1.2081,-1.1992,-1.1862,-1.1547,-1.1204,-1.1204,0.0,0.0,0.0,0.0,0.0,0.0,0.0,-1.2319,-1.3584,-1.4496,-1.5846,0.0,0.0,0.0,0.0,0.0,0.0,0.0,0.0,0.0,0.0,0.0,0.0,0.0,0.0,0.0,0.0,0.0,0.0,0.0,0.0,0.0,0.0,0.0,0.0,0.0,0.0,0.0,0.0,0.0,-2.8803,-2.8803,-2.8803,-2.8803,-2.8803,-2.8803,-2.8803,-2.8803,-2.8803,-2.8803,-2.8803,-2.8803,-2.8935,-2.9208,-2.9882,-3.0341,-3.057,-3.057,-3.0832,-3.1269,-3.1269,-3.1411,-3.1618,-3.1618,-3.1618,-3.1618,-3.1618,-3.1618,-3.1618,0.0,0.0,0.0,0.0,0.0,0.0,0.0,0.0,0.0,-1.0693,-1.0681,-1.0681,-1.0693,-1.0668,-1.0632,0.0,0.0,0.0,-1.0399,0.0,0.0,-1.3006,-1.407,-1.4424,-1.3961,-1.4289,-1.4472,-1.4472,-1.4472,-1.493,-1.5813,-1.6365,-1.7098,-1.7909,-1.7016,-1.6262,-1.558,-1.4413,-1.3483,-1.2728,-1.2456,-1.2205,-1.1982,-1.1765,-1.1542,-1.1306,-1.126,-1.129,-1.1376,-1.1481,0.0,0.0,0.0,0.0,-1.1929,-1.3553,-1.4244,-1.5407,0.0,0.0,0.0,0.0,0.0,0.0,0.0,0.0,0.0,0.0,0.0,0.0,0.0,0.0,0.0,0.0,0.0,0.0,0.0,0.0,0.0,0.0,0.0,0.0,0.0,0.0,0.0,0.0,0.0,-2.8803,-2.8803,-2.8803,-2.8803,-2.8803,-2.8803,-2.8803,-2.8803,-2.8803,-2.8803,-2.8803,-2.8803,-2.8885,-2.9046,-2.9862,-3.0147,-3.0089,-3.0089,-3.0351,-3.0777,-3.0777,-3.1018,-3.1389,-3.1465,-3.1498,-3.1509,-3.1586,-3.1618,-3.1618,0.0,0.0,0.0,0.0,0.0,0.0,0.0,0.0,0.0,0.0,-1.0644,-1.0632,-1.0681,-1.0609,-1.0523,-1.0511,-1.0511,-1.0474,0.0,0.0,0.0,-1.3634,-1.4388,-1.4721,-1.4572,-1.4149,-1.3943,-1.3993,-1.3943,-1.4951,-1.6977,-1.7058,-1.7175,-1.7316,-1.7175,-1.6342,-1.4979,-1.4337,-1.3471,-1.2531,-1.2538,-1.2502,-1.2387,-1.2132,-1.194,-1.1774,-1.1485,-1.1309,-1.1305,-1.1836,-1.2016,0.0,0.0,0.0,0.0,-1.2421,-1.3465,-1.4866,0.0,0.0,0.0,0.0,0.0,0.0,0.0,0.0,0.0,0.0,0.0,0.0,0.0,0.0,0.0,0.0,0.0,0.0,0.0,0.0,0.0,0.0,0.0,0.0,0.0,0.0,0.0,0.0,-2.8803,-2.8803,-2.8803,-2.8803,-2.8803,-2.8803,-2.8803,-2.8803,-2.8803,-2.8803,-2.8803,-2.8803,-2.8803,-2.9244,-3.0045,-3.0137,-2.9993,-2.9576,-2.9576,-2.986,-3.0297,-3.0297,-3.0341,-3.0439,-3.0832,-3.0996,-3.104,-3.1465,-3.1618,-3.1618,0.0,0.0,0.0,0.0,0.0,0.0,0.0,0.0,0.0,0.0,0.0,-1.0621,-1.0632,-1.056,-1.0498,-1.0498,-1.0498,0.0,0.0,0.0,0.0,-1.2815,-1.344,-1.3598,-1.3203,-1.3268,-1.348,-1.3838,-1.3804,-1.5134,-1.7708,-1.8009,-1.8675,-1.9577,-1.8597,-1.7778,-1.6999,-1.4974,-1.3825,-1.3343,-1.2758,-1.3112,-1.3826,-1.2664,-1.2827,-1.3529,-1.2152,-1.1704,-1.1701,-1.1752,-1.1945,-1.2127,-1.1885,0.0,0.0,0.0,0.0,0.0,0.0,0.0,0.0,0.0,0.0,0.0,0.0,0.0,0.0,0.0,0.0,0.0,0.0,0.0,0.0,0.0,0.0,0.0,0.0,0.0,0.0,0.0,0.0,0.0,0.0,0.0,0.0,0.0,-2.9117,-2.8803,-2.8803,-2.8803,-2.8803,-2.8803,-2.9336,-2.9589,-2.9589,-2.9589,-2.9589,-2.96,-3.0125,-3.0564,-3.0956,-3.0956,-3.0602,-2.9881,-2.9881,-2.9844,-2.9805,-2.9805,-2.9969,-3.0231,-3.0428,-3.0668,-3.0919,-3.1138,-3.1389,-3.1618,0.0,0.0,0.0,0.0,0.0,0.0,0.0,0.0,0.0,0.0,0.0,-1.0584,-1.0609,0.0,0.0,0.0,-1.0498,0.0,0.0,0.0,0.0,0.0,-1.2658,-1.2696,-1.187,-1.2419,-1.293,-1.3376,-1.3503,-1.5139,-1.8114,-1.8806,-2.0139,-2.1851,-2.0283,-1.9251,-1.8522,-1.5967,-1.4809,-1.4606,-1.3809,-1.427,-1.5328,-1.4412,-1.4845,-1.5685,-1.3696,-1.2977,-1.2854,-1.2268,-1.2191,-1.2311,0.0,0.0,0.0,0.0,0.0,0.0,0.0,0.0,0.0,0.0,0.0,0.0,0.0,0.0,0.0,0.0,0.0,0.0,0.0,0.0,0.0,0.0,0.0,0.0,0.0,0.0,0.0,0.0,0.0,0.0,0.0,0.0,0.0,0.0,-2.8957,-2.8431,-2.8431,-2.8431,-2.8523,-2.8741,-2.9443,-2.9913,-3.0136,-3.0264,-3.0392,-3.0564,-3.1267,-3.1709,-3.1972,-3.1972,-3.1577,-3.0923,-3.0654,-3.0205,-2.9659,-2.9659,-2.988,-3.0175,-3.0066,-3.0242,-3.057,-3.081,-3.1127,-3.1455,0.0,0.0,0.0,0.0,0.0,0.0,0.0,0.0,0.0,0.0,0.0,-1.0535,-1.0597,-1.0486,-1.0424,-1.0498,-1.0498,0.0,0.0,0.0,0.0,0.0,0.0,0.0,-1.1455,-1.1971,-1.2217,-1.2188,-1.2694,-1.4703,-1.8127,-1.9237,-2.0963,-2.3052,-2.1904,-2.0165,-1.81,-1.7348,-1.6747,-1.6277,-1.6231,-1.6251,-1.651,-1.8193,-1.8595,-1.8035,-1.6512,-1.5658,-1.5068,0.0,-1.3248,-1.2857,-1.2824,-1.254,-1.2103,0.0,0.0,0.0,0.0,0.0,0.0,0.0,0.0,0.0,0.0,0.0,0.0,0.0,0.0,0.0,0.0,0.0,0.0,0.0,0.0,0.0,0.0,0.0,0.0,0.0,0.0,0.0,0.0,0.0,0.0,0.0,-2.7855,-2.7392,-2.7392,-2.7392,-2.7767,-2.8573,-2.866,-2.9079,-2.9929,-3.0419,-3.0953,-3.1533,-3.1577,-3.2059,-3.295,-3.295,-3.2895,-3.2809,-3.1928,-3.1024,-3.0159,-3.0159,-3.0182,-3.0171,-2.9703,-2.9532,-2.9663,-3.057,-3.0908,-3.0996,0.0,0.0,0.0,0.0,0.0,0.0,0.0,0.0,0.0,0.0,0.0,0.0,0.0,-1.0486,-1.0437,-1.056,-1.0609,0.0,0.0,0.0,0.0,0.0,0.0,0.0,-1.0792,-1.1746,-1.2023,-1.1529,-1.2093,-1.3965,-1.7029,-1.7774,-1.9159,-2.1028,-2.1014,-2.0714,-2.0126,-1.7708,-1.6767,-1.6911,-1.6911,-1.7821,-1.9156,-1.9045,-2.0034,-2.1198,-1.892,0.0,0.0,0.0,0.0,-1.3749,-1.3105,-1.2782,-1.2507,-1.1733,-1.194,0.0,0.0,0.0,0.0,0.0,0.0,0.0,0.0,0.0,0.0,0.0,0.0,0.0,0.0,0.0,0.0,0.0,0.0,0.0,0.0,0.0,0.0,0.0,0.0,0.0,0.0,0.0,0.0,0.0,0.0,-2.7908,-2.7315,-2.7821,-2.8289,-2.858,-2.9707,-3.0472,-3.0803,-3.159,-3.1967,-3.1944,-3.2575,-3.3228,-3.3911,-3.3911,-3.356,-3.3023,-3.3292,-3.2506,-3.1089,-3.1089,-3.1089,-3.1069,-3.0898,-3.0641,-3.0435,-3.0785,-3.0889,-3.0919,0.0,0.0,0.0,-1.1143,0.0,-1.0681,-1.0668,-1.062,-1.0688,-1.0939,0.0,0.0,0.0,0.0,-1.0977,-1.088,-1.0953,-1.091,-1.0683,-1.0681,0.0,0.0,0.0,0.0,-1.0779,-1.2002,-1.2294,-1.1558,-1.2137,-1.3579,-1.5846,-1.6591,-1.7852,-1.9499,-1.9522,-2.0059,-2.0793,-1.8506,-1.763,-1.7813,-1.8414,-1.9483,-2.0791,-2.1511,-2.2635,-2.3558,-2.1809,0.0,0.0,0.0,0.0,0.0,-1.4476,-1.3604,-1.2729,-1.1949,-1.2166,0.0,-1.3638,0.0,0.0,0.0,0.0,0.0,0.0,0.0,0.0,0.0,0.0,0.0,0.0,0.0,0.0,0.0,0.0,0.0,0.0,0.0,0.0,0.0,0.0,0.0,0.0,0.0,0.0,0.0,0.0,0.0,-2.7694,-2.8234,-2.8654,-2.8946,-3.0422,-3.1296,-3.1447,-3.207,-3.2367,-3.2326,-3.3185,-3.3783,-3.4136,-3.4319,-3.405,-3.3505,-3.4134,-3.3518,-3.2059,-3.2059,-3.2059,-3.2016,-3.1709,-3.1392,-3.11,-3.0963,-3.0891,-3.0891,-1.1878,-1.1649,-1.1402,-1.12,-1.094,-1.0735,-1.0661,-1.0649,-1.0851,-1.1454,0.0,0.0,0.0,0.0,0.0,-1.1509,-1.1562,-1.1344,-1.0663,-1.067,0.0,0.0,0.0,0.0,-1.1508,-1.2678,-1.2971,-1.2281,-1.2737,-1.3545,-1.4638,-1.578,-1.7212,-1.8754,-1.7669,-1.8114,-1.9708,-1.9682,-1.9394,-1.9107,-2.0767,-2.1185,-2.1315,-2.5759,-2.6465,-2.5127,-2.5185,-2.446,0.0,-2.0986,0.0,0.0,-1.702,-1.5036,-1.285,-1.2298,-1.2196,-1.2263,0.0,0.0,0.0,0.0,0.0,0.0,0.0,0.0,0.0,0.0,0.0,0.0,0.0,0.0,0.0,0.0,0.0,0.0,0.0,0.0,0.0,0.0,0.0,0.0,0.0,0.0,0.0,0.0,-2.89,-2.8426,-2.8386,-2.8426,-2.8821,-2.9704,-3.0545,-3.1248,-3.1771,-3.1784,-3.2058,-3.2672,-3.326,-3.3548,-3.3587,-3.4123,-3.4371,-3.4371,-3.4384,-3.3869,-3.3036,-3.3036,-3.3036,-3.2938,-3.2016,-3.1665,-3.1593,-3.1123,-3.0962,-3.0937,-1.258,-1.2847,-1.3003,-1.2549,-1.242,-1.2275,-1.2021,-1.1939,-1.198,0.0,0.0,0.0,-1.248,-1.2844,-1.3019,-1.2798,-1.2438,-1.1994,-1.1357,-1.0937,-1.0693,-1.0693,-1.1872,-1.2182,-1.1508,-1.2736,-1.2786,-1.1574,-1.2198,-1.2575,-1.2766,-1.3958,-1.5218,-1.6441,-1.6558,-1.6885,-1.7303,-1.6872,-1.8057,-2.0164,-1.9773,-2.1538,0.0,0.0,0.0,0.0,0.0,-2.6759,-2.5623,0.0,-2.2604,-2.0149,0.0,-1.5501,-1.3887,-1.34,-1.3503,-1.3636,-1.2905,0.0,0.0,0.0,0.0,0.0,0.0,0.0,0.0,0.0,0.0,0.0,0.0,0.0,0.0,0.0,0.0,0.0,0.0,0.0,0.0,0.0,0.0,0.0,0.0,0.0,0.0,0.0,-2.9459,-2.9069,-2.8426,-2.8978,-2.9742,-3.0621,-3.0861,-3.1065,-3.1222,-3.1222,-3.1509,-3.2032,-3.2215,-3.2542,-3.296,-3.3548,-3.3809,-3.3835,-3.4228,-3.4259,-3.3995,-3.3995,-3.3995,-3.3995,-3.3742,-3.3207,-3.2605,-3.2449,-3.2224,-3.1918,-1.3415,-1.3609,-1.3738,-1.3538,-1.343,-1.3347,-1.3259,-1.3225,-1.3307,0.0,0.0,0.0,-1.3997,-1.4541,-1.4579,-1.3758,-1.3427,-1.278,-1.1628,-1.1262,-1.1085,-1.1085,-1.1994,-1.2426,-1.2304,-1.3266,-1.3249,-1.2177,-1.2509,-1.249,-1.2136,-1.3022,-1.3778,-1.4428,-1.5061,-1.5578,-1.5983,-1.5369,-1.6866,-1.9706,-2.0675,0.0,0.0,-2.6608,-2.7943,0.0,0.0,0.0,-2.7834,-2.719,-2.5075,0.0,0.0,-1.7095,-1.6111,-1.4627,-1.4627,-1.4876,-1.38,-1.3939,0.0,0.0,0.0,0.0,0.0,-2.0382,0.0,0.0,0.0,0.0,0.0,0.0,0.0,0.0,0.0,0.0,0.0,0.0,0.0,0.0,0.0,0.0,0.0,-3.0986,-3.0785,-3.0266,-3.0216,-3.0024,-2.9498,-2.9986,-3.047,-3.0986,-3.0986,-3.0986,-3.0986,-3.0986,-3.1156,-3.1445,-3.1693,-3.1967,-3.2359,-3.2947,-3.3352,-3.3613,-3.3927,-3.4188,-3.4397,-3.4397,-3.4397,-3.4397,-3.4397,-3.4092,-3.356,-3.3122,-3.2835,-3.256,0.0,-1.4247,-1.4232,-1.444,-1.4356,-1.4329,-1.4538,-1.4536,-1.468,0.0,-1.5362,-1.567,-1.6412,-1.6845,-1.6425,-1.4759,-1.4471,-1.3661,-1.1926,-1.175,-1.1695,-1.1695,-1.2278,-1.2861,-1.339,-1.3988,-1.4002,-1.3403,-1.3266,-1.2896,-1.2307,-1.2714,-1.2902,-1.2928,-1.353,-1.4406,-1.5369,-1.4964,-1.616,-1.8655,-2.2256,-2.4047,0.0,0.0,-2.9574,-2.9143,-3.0173,-3.0213,-2.972,-2.9037,-2.6848,0.0,0.0,-1.9557,-1.9074,-1.6283,-1.6005,0.0,-1.5229,-1.4971,0.0,0.0,0.0,0.0,-1.9253,-1.9731,-2.0342,0.0,0.0,0.0,0.0,0.0,0.0,0.0,0.0,0.0,0.0,0.0,0.0,0.0,0.0,0.0,-3.0986,-3.0986,-3.0986,-3.0986,-3.0986,-3.0986,-3.0986,-3.0986,-3.0986,-3.0986,-3.0986,-3.0986,-3.0986,-3.0986,-3.0986,-3.0999,-3.1496,-3.1706,-3.1732,-3.2333,-3.2894,-3.3404,-3.3535,-3.3862,-3.4319,-3.4371,-3.4397,-3.4397,-3.4397,-3.4397,-3.4314,-3.3475,-3.3164,-3.3099,-1.4993,-1.5829,-1.6467,-1.6264,-1.6398,-1.6479,-1.6255,-1.595,-1.5788,-1.5915,-1.6349,-1.7205,-1.8685,-1.8166,-1.759,-1.7217,-1.5865,-1.4653,-1.381,-1.2861,-1.2319,-1.2319,-1.2902,-1.3281,-1.3403,-1.3988,-1.397,-1.3327,-1.3235,-1.2866,-1.2234,-1.2699,-1.2902,-1.2928,-1.353,-1.4154,-1.482,-1.5638,-1.7426,-1.9813,-2.0933,0.0,-2.7215,-2.8507,-2.9839,-3.1043,-3.1269,-3.1282,-3.103,-2.9848,-2.8079,-2.6025,0.0,-2.2789,-2.1963,-1.961,-1.9384,-1.9656,-1.8567,-1.8618,-1.8641,-1.7132,0.0,0.0,-1.6577,-1.6973,-1.8083,0.0,0.0,0.0,0.0,0.0,0.0,0.0,0.0,0.0,0.0,0.0,0.0,0.0,0.0,0.0,-3.0986,-3.0986,-3.0986,-3.0986,-3.0986,-3.0986,-3.0986,-3.0986,-3.0986,-3.0986,-3.0986,-3.0986,-3.0986,-3.0986,-3.0986,-3.0986,-3.1104,-3.1156,-3.1169,-3.1706,-3.2032,-3.2202,-3.3182,-3.3652,-3.3783,-3.4214,-3.4397,-3.4397,-3.4397,-3.4397,-3.4397,-3.4176,-3.4134,-3.4105,-1.5701,-1.6502,-1.7181,-1.7163,-1.743,-1.764,-1.7598,-1.7258,-1.7217,-1.7828,-1.8655,-1.9312,-1.9579,-1.9122,-1.8568,-1.7957,-1.6802,-1.5593,-1.4368,-1.373,-1.3254,-1.2969,-1.324,-1.3539,-1.3839,-1.4151,-1.4135,-1.379,-1.3398,-1.2867,-1.2251,-1.2701,-1.3072,-1.3374,-1.3937,-1.4844,-1.5968,-1.625,-1.7568,-1.9716,-2.2049,0.0,-2.8093,-2.9578,-3.08,-3.1743,-3.1743,-3.1743,-3.1492,-2.9821,-2.8643,0.0,0.0,-2.4786,-2.4461,0.0,-2.1613,-2.1787,-2.0353,-2.0013,-1.9761,-1.8546,0.0,0.0,0.0,-1.712,-1.7692,-1.9116,0.0,0.0,0.0,0.0,0.0,0.0,0.0,0.0,0.0,0.0,0.0,0.0,0.0,0.0,-3.0542,-3.0555,-3.0686,-3.096,-3.0986,-3.0986,-3.0986,-3.0986,-3.0986,-3.0986,-3.0986,-3.0986,-3.0986,-3.0986,-3.0986,-3.0986,-3.0986,-3.0986,-3.0999,-3.1287,-3.1536,-3.185,-3.2764,-3.3313,-3.3639,-3.4175,-3.4397,-3.4397,-3.4397,-3.4397,-3.4397,-3.4397,-3.4397,-3.4397,-1.6194,-1.684,-1.7456,-1.7691,-1.8089,-1.8473,-1.8698,-1.8319,-1.846,-1.9686,-2.0961,-2.1506,-2.0818,-2.0731,-2.0434,-1.9724,-1.8533,-1.7203,-1.5803,-1.5229,-1.4643,-1.3961,-1.381,-1.3975,-1.4449,-1.4419,-1.4365,-1.43,-1.3734,-1.3174,-1.263,-1.2958,-1.3438,-1.4019,-1.4678,-1.5891,-1.7441,0.0,0.0,-2.0471,0.0,-2.61,-2.752,-3.0104,-3.1235,-3.1456,-3.1842,-3.1963,-3.1684,-2.9846,-2.9188,-2.8667,-2.6372,-2.6369,0.0,0.0,0.0,0.0,0.0,0.0,0.0,0.0,0.0,-1.9941,0.0,0.0,0.0,-1.9526,0.0,0.0,0.0,0.0,0.0,0.0,0.0,0.0,0.0,0.0,0.0,0.0,0.0,0.0,0.0,-2.9343,-2.9689,-3.0594,-3.0364,-3.039,-3.0803,-3.0934,-3.0986,-3.0986,-3.0986,-3.0986,-3.0986,-3.0986,-3.0986,-3.0986,-3.0986,-3.0986,-3.0986,-3.0986,-3.1248,-3.1667,-3.228,-3.2868,-3.347,-3.4018,-3.4306,-3.4397,-3.4397,-3.4397,-3.4397,-3.4397,-3.4397,-3.4397,-1.6194,-1.7224,-1.8099,-1.8129,-1.8901,-1.9528,-1.9566,-1.8921,-1.8919,-2.0238,-2.1967,-2.3424,-2.4382,-2.4435,-2.4835,-2.595,-2.279,-2.0744,-2.077,-1.8602,-1.686,-1.5833,-1.5277,-1.5036,-1.5104,-1.4851,-1.4604,-1.43,-1.4383,-1.4221,-1.3816,-1.385,-1.4169,-1.4732,-1.5805,0.0,0.0,0.0,-2.105,0.0,-2.5271,-2.488,0.0,-2.7946,-2.9422,-2.9828,-3.1527,-3.2182,-3.1988,0.0,-3.049,-3.01,0.0,-2.8033,-2.8516,-2.6138,0.0,0.0,0.0,0.0,0.0,0.0,-2.314,0.0,0.0,0.0,-1.8495,-1.7928,0.0,0.0,0.0,0.0,0.0,0.0,0.0,0.0,0.0,0.0,0.0,0.0,0.0,0.0,0.0,-2.6705,-2.7327,-2.9353,-2.8131,-2.8138,-3.0113,-3.0712,-3.0986,-3.0986,-3.0986,-3.0986,-3.0986,-3.0986,-3.0986,-3.0986,-3.0986,-3.0986,-3.0986,-3.0986,-3.1013,-3.1117,-3.1692,-3.2228,-3.2842,-3.3443,-3.3966,-3.4397,-3.4397,-3.4397,-3.4397,-3.4397,-3.4397,-3.4397,-1.6194,-1.7285,-1.8191,-1.8191,-1.9029,-1.9708,-1.9708,-2.1123,-2.2296,-2.2511,-2.4237,-2.5616,-2.61,-2.5135,-2.5168,-2.6887,0.0,-2.3184,0.0,-2.0868,-1.9333,-1.8004,-1.6854,-1.6208,-1.6135,-1.5419,-1.4787,-1.43,-1.3981,-1.3757,-1.3599,-1.3834,-1.4641,-1.5958,-1.7385,0.0,-2.0948,0.0,-2.1382,0.0,0.0,0.0,0.0,-2.9448,-3.177,-3.2261,-3.2646,-3.2797,-3.2552,0.0,-3.0443,0.0,0.0,0.0,0.0,0.0,0.0,0.0,0.0,0.0,0.0,0.0,0.0,0.0,-1.993,0.0,-1.8573,0.0,0.0,0.0,0.0,0.0,0.0,0.0,0.0,0.0,0.0,0.0,0.0,0.0,0.0,0.0,0.0,0.0,0.0,0.0,-2.7317,-2.7582,-2.9536,-3.0176,-3.0647,-3.0973,-3.0986,-3.0986,-3.0986,-3.0986,-3.0986,-3.0986,-3.0986,-3.0986,-3.0986,-3.0986,-3.0986,-3.1013,-3.1549,-3.1941,-3.2228,-3.3208,-3.3731,-3.3966,-3.428,-3.4397,-3.4397,-3.4397,-3.4397,-3.4397,-1.6747,-1.7531,-1.8268,-1.8469,-1.9267,-1.9954,-2.0205,-2.2549,-2.4329,-2.4507,-2.6234,-2.7648,-2.8124,-2.71,0.0,0.0,-2.7804,-2.6389,0.0,-2.3624,-2.2047,-2.0676,-1.8736,-1.7644,-1.7572,-1.6427,-1.5493,-1.4789,-1.424,-1.3988,-1.4036,-1.4193,-1.5138,-1.6804,-1.8571,-2.0846,-2.3259,0.0,-2.3154,-2.4803,-2.5422,-2.6193,-2.7411,-3.1247,-3.3378,-3.4211,-3.3457,-3.3178,-3.2954,-3.1399,-3.0643,0.0,-3.0323,0.0,0.0,0.0,0.0,0.0,-2.6909,0.0,0.0,0.0,0.0,0.0,0.0,0.0,0.0,0.0,0.0,0.0,0.0,0.0,0.0,0.0,0.0,0.0,0.0,0.0,0.0,0.0,0.0,0.0,0.0,0.0,0.0,0.0,0.0,-2.6194,-2.8686,-2.9497,-3.0163,-3.0725,-3.0895,-3.0986,-3.0986,-3.0986,-3.0986,-3.0986,-3.0986,-3.0986,-3.0986,-3.0986,-3.0986,-3.1013,-3.1418,-3.1654,-3.1863,-3.2764,-3.33,-3.3626,-3.4018,-3.4267,-3.4397,-3.4397,-3.4397,-3.4397,-1.8146,-1.8161,0.0,0.0,-1.9825,-2.0592,-2.1512,-2.2233,-2.3451,-2.5555,-2.749,-2.936,0.0,0.0,0.0,0.0,0.0,-3.1025,-3.057,0.0,-2.5082,-2.3973,-2.1026,-1.944,0.0,-1.8148,-1.6959,-1.6032,-1.5754,-1.572,-1.5914,-1.5391,-1.5743,-1.6904,-1.9093,-2.1545,-2.4109,-2.4988,-2.7919,-3.1864,-3.0814,-3.225,-3.4763,0.0,-3.264,-3.4211,-3.3457,0.0,0.0,-3.2325,-3.1577,0.0,0.0,0.0,0.0,0.0,0.0,0.0,0.0,0.0,0.0,-2.4988,0.0,0.0,0.0,0.0,-2.2106,0.0,0.0,0.0,0.0,0.0,0.0,0.0,0.0,0.0,0.0,0.0,0.0,0.0,0.0,0.0,0.0,0.0,0.0,0.0,0.0,0.0,-2.7339,-2.8673,-2.9575,-3.0113,-3.0699,-3.0986,-3.0986,-3.0986,-3.0986,-3.0986,-3.0986,-3.0986,-3.0986,-3.0986,-3.0986,-3.0986,-3.0999,-3.1326,-3.1797,-3.1836,-3.2568,-3.3587,-3.3613,-3.394,-3.4397,-3.4397,-3.4397,-3.4397,0.0,0.0,0.0,0.0,0.0,-2.1006,-2.3091,-2.5131,-2.7174,0.0,-3.0157,0.0,0.0,-3.2869,-3.3257,0.0,0.0,-3.3137,-3.2571,-3.0303,0.0,-2.8293,-2.5396,-2.358,0.0,-2.148,-1.9599,-1.7562,-1.747,-1.7081,-1.6469,-1.6595,-1.6747,-1.7056,0.0,-2.2946,0.0,0.0,0.0,0.0,0.0,-3.3261,-3.604,0.0,-3.5179,-3.5672,-3.4912,-3.4647,0.0,-3.3782,-3.2809,-3.1944,-3.2284,-3.1446,-3.0355,-3.0542,-3.0392,0.0,0.0,0.0,-2.964,-2.676,0.0,0.0,0.0,0.0,0.0,0.0,0.0,0.0,0.0,0.0,0.0,0.0,0.0,0.0,0.0,0.0,0.0,0.0,0.0,0.0,0.0,0.0,0.0,0.0,-2.2046,0.0,0.0,-2.8438,-2.9549,-3.0074,-3.0699,-3.0986,-3.0986,-3.0986,-3.0986,-3.0986,-3.1123,-3.1123,-3.0986,-3.1123,-3.1123,-3.0986,-3.0986,-3.1091,-3.13,-3.1641,-3.2254,-3.3038,-3.343,-3.3927,-3.4397,-3.4397,-3.4397,-3.4397,-1.961,0.0,0.0,0.0,0.0,-2.2197,-2.4656,-2.7126,0.0,0.0,-3.241,0.0,-3.5301,0.0,-3.4513,0.0,-3.5512,-3.4759,-3.3846,-3.2453,0.0,-3.1124,-2.8673,0.0,-2.6302,-2.449,-2.2276,-1.9654,-1.92,-1.8495,-1.7548,-1.7647,-1.7637,0.0,0.0,-2.3555,-2.6322,0.0,-3.0082,0.0,0.0,-3.4637,0.0,0.0,-3.6492,-3.6383,0.0,-3.54,-3.5335,-3.4846,-3.3936,-3.3138,-3.3776,-3.2871,-3.1619,-3.174,-3.1449,-3.0969,-3.0417,-3.0539,0.0,-2.7941,-2.7086,0.0,-2.3681,0.0,0.0,0.0,0.0,0.0,0.0,0.0,0.0,0.0,0.0,0.0,0.0,0.0,0.0,0.0,0.0,0.0,0.0,0.0,-1.798,-2.0851,0.0,0.0,0.0,0.0,-2.9013,-2.981,-3.0581,-3.0986,-3.0986,-3.0986,-3.1061,-3.1099,-3.1235,-3.1272,-3.1224,-3.136,-3.1286,-3.1099,-3.1099,-3.1061,-3.1013,-3.1378,-3.1993,-3.2725,-3.3117,-3.3731,-3.4397,-3.4397,-3.4397,-3.4397,-2.0456,0.0,0.0,0.0,-2.2135,0.0,0.0,0.0,-3.0443,0.0,-3.4121,-3.5367,-3.7338,-3.6969,-3.6846,-3.7492,-3.6969,-3.603,-3.4736,-3.3952,0.0,0.0,-3.0901,-2.9656,-2.904,-2.7144,-2.4893,-2.2306,0.0,0.0,0.0,0.0,0.0,0.0,-2.0826,0.0,-2.6421,-2.9301,-3.2452,-3.5614,-3.623,-3.6492,-3.6492,-3.6492,-3.6492,-3.6429,-3.5705,-3.5464,-3.5464,-3.5464,-3.496,-3.448,-3.519,-3.4879,-3.4177,-3.3457,-3.3248,-3.2961,-3.1529,-3.1145,-3.0691,-2.8785,-2.825,0.0,0.0,0.0,-2.6784,0.0,0.0,0.0,0.0,0.0,0.0,0.0,0.0,0.0,0.0,0.0,0.0,0.0,0.0,0.0,0.0,0.0,-1.5888,-1.9547,-1.9421,0.0,0.0,0.0,-2.7994,-2.9231,-3.0346,-3.096,-3.0986,-3.0986,-3.1099,-3.131,-3.131,-3.1397,-3.1609,-3.1609,-3.1522,-3.131,-3.131,-3.1198,-3.1024,-3.0986,-3.1653,-3.2685,-3.2685,-3.3391,-3.4397,-3.4397,-3.4397,-3.4397,-2.1073,-2.2259,-2.3594,0.0,-2.4364,-2.5066,0.0,0.0,0.0,0.0,-3.5553,-3.6553,-3.8077,-3.8092,-3.8061,-3.8231,-3.8092,0.0,0.0,0.0,0.0,-3.5445,-3.4065,-3.2949,-3.2228,-2.98,-2.7439,-2.5211,0.0,0.0,-2.028,0.0,0.0,0.0,0.0,0.0,-2.681,-2.9468,-3.2762,-3.6245,-3.6415,-3.6492,0.0,0.0,-3.6492,-3.6492,-3.6289,-3.6226,-3.6226,-3.6226,-3.5737,-3.5157,-3.5335,-3.4879,-3.4279,-3.4075,-3.4007,-3.393,-3.3568,-3.3457,-3.3058,-3.1485,-3.045,-2.9348,0.0,0.0,0.0,0.0,0.0,0.0,0.0,0.0,0.0,0.0,0.0,0.0,0.0,0.0,0.0,0.0,0.0,0.0,0.0,-1.609,-1.7194,-1.8671,-1.9723,0.0,0.0,0.0,0.0,-2.859,-2.9745,-3.0555,-3.0986,-3.0986,-3.1099,-3.131,-3.1434,-3.1559,-3.1609,-3.1743,-3.1706,-3.1522,-3.1347,-3.1272,-3.1198,-3.1061,-3.1653,-3.2685,-3.2685,-3.3391,-3.4397,-3.4397,-3.4397,-3.4397,-2.2609,0.0,0.0,-2.7864,0.0,0.0,-3.0381,-3.1289,0.0,-3.5553,-3.6507,0.0,-3.84,-3.8769,-3.8954,-3.8954,-3.8677,0.0,-3.7538,0.0,0.0,-3.6522,-3.6045,-3.5337,-3.4337,-3.2244,0.0,-2.7218,0.0,0.0,-2.0962,0.0,0.0,0.0,0.0,-2.3562,0.0,-3.0137,-3.3461,-3.6076,-3.6368,0.0,0.0,-3.6492,-3.6492,-3.6492,-3.6492,-3.6492,-3.6492,-3.6492,-3.6211,-3.5879,-3.5879,-3.5608,-3.519,-3.4894,-3.478,-3.4714,-3.438,-3.4312,-3.409,-3.3257,-3.2577,-3.1725,-3.0271,-3.0192,-3.0162,0.0,-2.9323,-2.9422,0.0,0.0,0.0,0.0,0.0,0.0,0.0,0.0,0.0,0.0,0.0,0.0,-1.5842,-1.65,-1.7461,-1.853,-1.9431,0.0,0.0,0.0,0.0,-2.7968,-2.9356,-3.0375,-3.0973,-3.0986,-3.1136,-3.1434,-3.1572,-3.1683,-3.1853,-3.1963,-3.1927,-3.1706,-3.1619,-3.1508,-3.1397,-3.1211,-3.1662,-3.2476,-3.2921,-3.3626,-3.4397,-3.4397,-3.4397,-3.4397,-2.4964,0.0,0.0,0.0,0.0,0.0,0.0,-3.349,0.0,-3.6492,0.0,-3.8123,-3.8708,-3.9259,-3.9613,-3.9613,0.0,-3.8492,-3.7815,-3.8323,-3.8077,-3.6815,-3.723,-3.6953,-3.5799,-3.4214,-3.1797,0.0,-2.6357,-2.3933,-2.1288,0.0,0.0,0.0,0.0,0.0,0.0,-3.1156,-3.426,-3.566,-3.6261,-3.6492,-3.6492,-3.6492,-3.6492,-3.6492,-3.6492,-3.6492,-3.6492,-3.6492,-3.6492,-3.6492,-3.6492,-3.6492,-3.6352,-3.5737,-3.5529,-3.54,-3.4747,-3.4581,-3.4547,-3.448,-3.4447,-3.4122,-3.284,-3.2561,-3.2367,-3.1759,-3.0676,-3.0355,0.0,0.0,0.0,0.0,0.0,0.0,0.0,0.0,0.0,0.0,0.0,0.0,0.0,-1.6822,-1.7342,-1.8601,-1.8748,0.0,0.0,0.0,0.0,-2.7333,-2.9004,-3.0215,-3.0869,0.0,-3.1211,-3.1609,-3.1609,-3.1817,-3.2218,-3.2218,-3.2109,-3.1927,-3.189,-3.178,-3.1633,-3.1434,-3.1706,-3.2316,-3.3236,-3.3927,-3.4397,-3.4397,-3.4397,-3.4397,0.0,0.0,0.0,0.0,0.0,-3.5183,-3.6415,-3.623,-3.6476,-3.7969,-3.9198,-4.0013,-4.0136,-4.0243,-4.032,-4.032,-4.0213,0.0,0.0,0.0,0.0,-3.8185,-3.7738,-3.7384,-3.7153,-3.4691,-3.2044,0.0,-2.6588,-2.3933,-2.1288,0.0,0.0,0.0,0.0,0.0,-2.9562,-3.2262,0.0,-3.6322,-3.6445,-3.6492,-3.6492,-3.6492,-3.6492,-3.6492,-3.6492,-3.6492,-3.6492,-3.6492,-3.6492,-3.6492,-3.6492,-3.6492,-3.646,-3.6352,-3.632,-3.6289,-3.6148,-3.6116,-3.5975,-3.5367,-3.519,-3.4999,-3.4122,-3.3945,-3.3912,-3.3778,-3.3556,-3.3192,-3.2405,0.0,0.0,0.0,0.0,0.0,0.0,0.0,0.0,0.0,0.0,0.0,0.0,0.0,-1.8254,-1.7705,0.0,0.0,0.0,0.0,0.0,0.0,-2.8033,0.0,0.0,0.0,-3.1211,-3.1609,-3.1609,-3.1817,-3.2218,-3.2218,-3.2182,-3.2146,-3.1963,-3.189,-3.1817,-3.1633,-3.2057,-3.2869,-3.3393,-3.3927,-3.4397,-3.4397,-3.4397,-3.4397,0.0,0.0,0.0,0.0,0.0,0.0,0.0,-3.9416,-3.9385,-3.8616,-3.9077,-3.9444,-3.9444,-4.0074,-4.0489,-4.0489,-4.0489,-4.0351,-4.0028,-4.0013,-3.9705,-3.9062,-3.8723,-3.8215,-3.7523,-3.5861,-3.3506,-3.0443,-2.7719,-2.4995,-2.232,-2.0934,-2.0489,-2.0934,0.0,-2.698,0.0,0.0,0.0,-3.5999,-3.6353,-3.6492,-3.6492,-3.6492,-3.6492,-3.6492,-3.6492,-3.6492,-3.6492,-3.6492,-3.6492,-3.6492,-3.6492,-3.6492,-3.6492,-3.6492,-3.6492,-3.6492,-3.6492,-3.6492,-3.6414,-3.6053,-3.5975,-3.5879,-3.5529,-3.5432,-3.532,-3.496,-3.4861,-3.435,-3.2611,-3.0213,0.0,0.0,0.0,0.0,0.0,0.0,0.0,0.0,0.0,0.0,0.0,0.0,0.0,0.0,0.0,0.0,0.0,0.0,0.0,0.0,0.0,0.0,0.0,0.0,0.0,-3.1609,-3.2069,-3.225,-3.2218,-3.2574,-3.2538,-3.2182,-3.2109,-3.2073,-3.2036,-3.172,-3.2162,-3.3027,-3.3092,-3.3639,-3.4397,-3.4397,-3.4397,-3.4397,0.0,-3.5673,0.0,0.0,-3.9089,0.0,-4.1034,-4.2249,-4.219,-3.9696,-3.9385,-3.9385,-3.9385,-4.0201,-4.072,-4.072,-4.0582,-4.0489,-4.0489,-4.0489,-4.0259,-3.9721,-3.9567,-3.9016,-3.7954,-3.7123,-3.5106,0.0,-2.9273,-2.6565,0.0,-2.1966,-2.1673,-2.2752,0.0,0.0,0.0,0.0,-3.4982,-3.5753,-3.6276,-3.6492,-3.6492,-3.6492,-3.6492,-3.6492,-3.6492,-3.6492,-3.6492,-3.6492,-3.6492,-3.6492,-3.6492,-3.6492,-3.6492,-3.6492,-3.6492,-3.6492,-3.6492,-3.6492,-3.6492,-3.6492,-3.6492,-3.6492,-3.6492,-3.6492,-3.6352,-3.5737,-3.5625,-3.4996,-3.293,-3.1435,0.0,0.0,0.0,0.0,0.0,0.0,0.0,0.0,0.0,0.0,0.0,0.0,0.0,0.0,0.0,0.0,-1.9965,0.0,0.0,0.0,0.0,-2.8599,-2.9598,0.0,-3.1471,-3.1669,-3.2497,-3.2654,-3.2205,-3.2889,-3.2832,-3.2218,-3.2218,-3.2218,-3.2182,-3.1817,-3.2237,-3.3119,-3.2922,-3.3512,-3.4494,-3.4494,-3.4439,-3.4397,0.0,0.0,0.0,0.0,0.0,0.0,-4.3476,-4.4139,-4.401,-4.2412,-4.2232,-4.2232,-4.2232,-4.1801,-4.1509,-4.1509,-4.0909,-4.0489,-4.0489,-4.0489,-4.0459,-4.0397,-3.9813,-3.9428,-3.9339,-3.8061,-3.603,0.0,0.0,-2.8403,0.0,-2.4302,-2.4964,-2.6903,0.0,0.0,0.0,-3.412,-3.5244,-3.6399,-3.6461,-3.6492,-3.6492,-3.6492,-3.6492,-3.6492,-3.6492,-3.6492,-3.6492,-3.6492,-3.6492,-3.6492,-3.6492,-3.6492,-3.6492,-3.6492,-3.6492,-3.6492,-3.6492,-3.6492,-3.6492,-3.6492,-3.6492,-3.6492,-3.6492,-3.6492,-3.6492,-3.6429,-3.6383,-3.5813,-3.3848,-3.3767,-3.2651,0.0,0.0,0.0,0.0,0.0,0.0,0.0,0.0,0.0,0.0,0.0,0.0,0.0,0.0,0.0,0.0,0.0,0.0,-2.4342,0.0,-2.7419,-2.8026,-3.0383,-3.1669,-3.189,-3.2569,-3.2654,-3.2205,-3.2889,-3.2832,-3.2218,-3.2218,-3.2218,-3.2182,-3.1963,-3.2552,-3.3522,-3.3301,-3.3874,-3.4756,-3.4756,-3.4618,-3.4397,0.0,0.0,0.0,0.0,0.0,0.0,0.0,-4.5825,-4.58,-4.5193,-4.4024,-4.3255,-4.3255,-4.2627,-4.2202,-4.2202,-4.194,-4.1601,-4.1201,-4.117,-4.1129,-4.1107,-4.0452,-4.0093,-4.0108,-3.9168,-3.7369,0.0,0.0,0.0,0.0,-2.7072,-2.7642,-2.9289,0.0,-3.2644,-3.4121,-3.5214,-3.5999,-3.6492,-3.6492,-3.6492,-3.6492,-3.6492,-3.6492,-3.6492,-3.6492,-3.6492,-3.6492,-3.6492,-3.6492,-3.6492,-3.6492,-3.6492,-3.6492,-3.6492,-3.6492,-3.6492,-3.6492,-3.6492,-3.6492,-3.6492,-3.6492,-3.6492,-3.6492,-3.6492,-3.6492,-3.6492,-3.6492,-3.626,-3.5477,-3.4258,-3.2885,0.0,0.0,0.0,0.0,0.0,0.0,0.0,0.0,0.0,0.0,0.0,0.0,0.0,0.0,-1.7926,-1.9606,0.0,0.0,-2.3098,0.0,-2.7709,-2.7809,-3.0446,-3.2009,-3.2511,-3.3353,-3.3388,-3.2832,-3.3541,-3.3241,-3.2218,-3.2218,-3.2218,-3.2182,-3.1963,-3.2589,-3.356,-3.3392,-3.3993,-3.4962,-3.4839,-3.4714,-3.4618,-4.4089,0.0,-4.3919,0.0,-4.571,-4.5859,-4.7226,-4.7472,-4.7472,-4.7472,-4.5988,-4.4834,-4.4644,-4.398,-4.3533,-4.3533,-4.3345,-4.3067,-4.2567,-4.2535,-4.2412,-4.2154,-4.1675,0.0,-4.1087,-4.0447,-3.9058,-3.6986,-3.5386,0.0,0.0,-3.0197,-3.0705,0.0,-3.3891,-3.4999,-3.5752,-3.6676,-3.7092,-3.7092,-3.7092,-3.7092,-3.7092,-3.7092,-3.7092,-3.7092,-3.7092,-3.7092,-3.7061,-3.6861,-3.6784,-3.6753,-3.6553,-3.6492,-3.6492,-3.6492,-3.6492,-3.6492,-3.6492,-3.6492,-3.6492,-3.6492,-3.6492,-3.6492,-3.6492,-3.6492,-3.6492,-3.6492,-3.6492,-3.6492,-3.6492,-3.4836,-3.3351,-3.3036,0.0,0.0,0.0,0.0,0.0,0.0,0.0,-2.1659,-2.0643,0.0,0.0,0.0,0.0,-1.9234,-2.0009,0.0,0.0,0.0,0.0,0.0,-2.8575,-3.1029,-3.2618,-3.3318,-3.4197,-3.4245,-3.3526,-3.3837,-3.3346,-3.2218,-3.2218,-3.2218,-3.2182,-3.2036,-3.2651,-3.3677,-3.3547,-3.4192,-3.5154,-3.5044,-3.488,-3.4756,-4.6954,-4.7244,-4.7648,-4.894,-4.9135,-4.9104,-4.9001,-4.897,-4.897,-4.897,-4.8321,-4.7556,-4.6864,-4.6164,-4.5743,-4.5743,-4.5177,-4.4756,-4.4756,-4.4756,-4.4432,0.0,0.0,-4.3297,-4.2489,-4.1824,-4.1144,-4.0435,0.0,0.0,-3.4428,-3.3675,-3.4445,-3.6445,-3.7138,-3.7831,-3.8462,-3.8477,-3.8492,-3.8492,-3.8492,-3.8492,-3.8492,-3.8492,-3.8492,-3.8492,-3.8492,-3.8492,-3.8385,-3.7707,-3.7492,-3.7369,-3.6707,-3.6492,-3.6492,-3.6492,-3.6492,-3.6492,-3.6492,-3.6492,-3.6492,-3.6492,-3.6492,-3.6492,-3.6492,-3.6492,-3.6492,-3.6492,-3.6492,-3.6492,-3.6492,-3.5922,-3.4634,-3.2127,0.0,0.0,0.0,0.0,0.0,0.0,-2.2804,-2.1766,-2.141,0.0,0.0,0.0,0.0,-2.2887,-2.2751,0.0,0.0,-2.556,-2.7449,0.0,-3.0363,-3.2232,-3.3561,-3.4279,-3.5026,-3.4993,-3.4279,-3.3526,-3.2832,-3.2218,-3.2218,-3.2218,-3.2218,-3.2218,-3.2874,-3.3908,-3.3869,-3.4522,-3.5399,-3.5399,-3.5113,-3.4797,-4.8726,-4.88,-4.8924,-4.9325,-4.929,-4.9199,-4.9138,-4.9063,-4.9001,-4.9001,-4.8798,-4.8562,-4.8322,-4.7225,-4.6471,0.0,-4.6277,-4.5971,0.0,-4.5486,-4.5375,-4.5136,-4.4674,-4.4316,-4.4019,-4.2912,-4.174,-4.0482,0.0,0.0,0.0,-3.6522,-3.6799,-3.7877,-3.8092,-3.8308,-3.8508,-3.8508,-3.8508,-3.8508,-3.8508,-3.8508,-3.8508,-3.8508,-3.8508,-3.8508,-3.8508,-3.8508,-3.8477,-3.8262,-3.8185,-3.8154,-3.7938,-3.723,-3.6492,-3.6492,-3.6492,-3.6492,-3.6492,-3.6492,-3.6492,-3.6492,-3.6492,-3.6492,-3.6492,-3.6492,-3.6492,-3.6492,-3.6492,-3.6492,-3.6492,-3.5598,-3.4538,-3.3732,-3.2955,0.0,0.0,0.0,0.0,0.0,-2.4699,-2.3904,0.0,-2.3564,0.0,0.0,0.0,0.0,0.0,0.0,0.0,0.0,-2.7999,0.0,-3.0409,-3.2758,-3.4312,-3.5059,-3.5302,-3.5287,-3.5026,-3.3768,-3.3087,-3.2868,-3.2408,-3.2218,-3.2218,-3.2218,-3.2874,-3.3908,-3.3908,-3.46,-3.5602,-3.544,-3.5318,-3.5195,-4.9713,-4.9683,-4.9666,-4.9607,-4.9411,-4.929,-4.9199,-4.9094,-4.9001,-4.9001,-4.9001,-4.9001,-4.9001,-4.8177,0.0,-4.7638,-4.7638,-4.7441,-4.7029,-4.6996,-4.6876,-4.6586,-4.6194,-4.5831,-4.5484,-4.468,0.0,-4.2075,-4.0848,-4.0047,-3.9613,-3.8929,-3.8862,-3.9228,-3.9228,-3.9228,-3.9228,-3.9228,-3.9228,-3.9228,-3.9228,-3.9228,-3.9228,-3.9228,-3.9228,-3.9228,-3.9228,-3.9228,-3.9198,-3.897,-3.8893,-3.8846,-3.8585,-3.7938,-3.72,-3.6953,-3.6876,-3.6815,-3.6553,-3.6492,-3.6492,-3.6492,-3.6492,-3.6492,-3.6492,-3.6492,-3.6492,-3.6492,-3.6492,-3.6492,-3.6492,-3.5414,-3.4505,-3.4505,-3.3118,-3.1643,-3.054,0.0,0.0,0.0,0.0,0.0,0.0,-2.5846,-2.5843,0.0,0.0,0.0,0.0,0.0,0.0,-2.6675,-2.9933,0.0,-3.227,-3.3882,-3.5091,-3.58,-3.58,-3.5672,-3.5367,-3.4177,-3.3457,-3.3143,-3.2503,-3.2218,-3.2218,-3.2218,-3.2874,-3.3908,-3.3908,-3.4639,-3.5669,-3.5562,-3.548,-3.5399,-5.0011,-5.0011,-4.9935,0.0,-4.9607,0.0,-4.926,-4.9124,-4.9032,-4.9032,-4.9032,-4.9032,-4.9032,-4.9032,-4.9001,-4.9001,0.0,0.0,0.0,-4.9001,-4.8697,-4.799,-4.7973,-4.7631,-4.6887,-4.6824,-4.6126,-4.4693,-4.2649,-4.1643,-4.1654,-4.0942,-4.0631,-4.0646,-4.0578,-4.0558,-4.0558,-4.0524,-4.0489,-4.0489,-4.0489,-4.0489,-4.0489,-4.0489,-4.0489,-4.0489,-4.0489,-4.0489,-4.0397,-3.9767,-3.9551,-3.9444,-3.8846,-3.8646,-3.8508,-3.7784,-3.7569,-3.7415,-3.6738,-3.6569,-3.6553,-3.6507,-3.6492,-3.6492,-3.6492,-3.6492,-3.6492,-3.6492,-3.6492,-3.6492,-3.6492,-3.5414,-3.4505,-3.4505,-3.2764,-3.1166,-3.0494,0.0,0.0,0.0,0.0,0.0,-2.7203,-2.7742,-2.8532,0.0,0.0,0.0,0.0,0.0,-2.794,-3.1411,-3.2797,-3.41,-3.5385,-3.5464,-3.58,-3.6492,-3.6492,-3.6148,-3.5432,-3.4647,-3.3939,-3.3248,-3.2503,-3.2218,-3.2218,-3.2218,-3.2874,-3.3908,-3.3908,-3.4639,-3.571,-3.571,-3.5602,-3.544,0.0,0.0,-4.9964,-4.9935,-4.9801,-4.9649,-4.959,-4.9471,-4.9398,-4.9398,-4.9398,-4.9398,-4.9398,-4.9229,-4.9138,-4.9138,-4.9063,-4.9001,-4.9001,-4.9001,-4.8934,-4.8748,-4.8748,-4.8392,-4.7665,-4.7141,-4.618,-4.4788,-4.37,-4.3169,-4.3154,-4.2397,-4.2013,-4.2013,-4.1492,-4.1276,-4.1243,-4.0715,-4.0489,-4.0489,-4.0489,-4.0489,-4.0489,-4.0489,-4.0489,-4.0489,-4.0489,-4.0489,-4.0474,-4.0305,-4.0259,-4.0228,-4.0074,-4.0013,-3.9782,-3.8616,-3.8262,-3.8123,-3.7446,-3.7261,-3.7138,-3.6615,-3.6492,-3.6492,-3.6492,-3.6492,-3.6492,-3.6492,-3.6492,-3.6492,-3.6492,-3.5414,-3.4505,-3.4505,-3.2764,-3.1166,-3.0494,-3.0263,0.0,0.0,-2.9904,-3.0276,-2.9616,-3.062,-3.0673,0.0,0.0,0.0,0.0,-3.0986,-3.1205,-3.15,-3.3288,-3.4599,-3.5385,-3.5943,-3.632,-3.6492,-3.6492,-3.6429,-3.6179,-3.4879,-3.4197,-3.3973,-3.2739,-3.2218,-3.2218,-3.2218,-3.2874,-3.3908,-3.3908,-3.4639,-3.571,-3.571,-3.5669,-3.5642,-5.0011,-5.0011,-5.0011,-5.0011,-4.9813,-4.9708,-4.9708,-4.9607,-4.9518,-4.9518,-4.9518,-4.9518,-4.9518,-4.9381,-4.929,-4.9199,-4.9094,-4.9001,-4.9001,-4.9001,-4.9032,-4.9094,-4.9032,-4.8846,-4.8501,-4.8144,-4.7479,-4.6448,-4.5699,-4.518,-4.4886,-4.4443,-4.3848,-4.3132,-4.2815,-4.2237,-4.1492,-4.1525,-4.1309,-4.0956,-4.0956,-4.0956,-4.0922,-4.0612,-4.0489,-4.0489,-4.0489,-4.0489,-4.0489,-4.0489,-4.0489,-4.0489,-4.0489,-4.0489,-4.0351,-3.9613,-3.9216,-3.8831,-3.8138,-3.7738,-3.7338,-3.6661,-3.6492,-3.6492,-3.6492,-3.6492,-3.6492,-3.6492,-3.6492,-3.6492,-3.6492,-3.5414,-3.4397,-3.4058,-3.2548,-3.1166,-3.0494,-3.0402,0.0,-3.0751,-3.1413,-3.1967,-3.2244,-3.2921,-3.2819,-3.1494,-3.2336,0.0,-3.2516,-3.3738,-3.4107,-3.3334,-3.4665,-3.5579,-3.5911,-3.6289,-3.6492,-3.6492,-3.6492,-3.6492,-3.646,-3.5335,-3.4614,-3.4245,-3.3136,-3.2467,-3.2218,-3.2218,-3.2874,-3.3908,-3.3908,-3.4639,-3.571,-3.571,-3.571,-3.571,-5.0011,-5.0011,-5.0011,-5.0011,-4.9946,-4.9909,-4.9909,-4.982,-4.9748,-4.9748,-4.9646,-4.9577,-4.9577,-4.9547,-4.9471,-4.929,-4.9138,-4.9063,-4.9001,-4.9032,-4.9094,-4.9199,-4.9094,-4.9094,-4.9229,-4.926,-4.9014,-4.8548,-4.7825,-4.7185,-4.6615,-4.6514,-4.5734,-4.4399,-4.4445,-4.3601,-4.2285,-4.2923,-4.2638,-4.1766,-4.1865,-4.1703,-4.1343,-4.087,-4.0612,-4.0489,-4.0489,-4.0489,-4.0489,-4.0489,-4.0489,-4.0489,-4.0489,-4.0489,-4.0489,-4.0489,-4.009,-3.949,-3.8846,-3.8092,-3.7353,-3.6784,-3.6569,-3.6492,-3.6492,-3.6492,-3.6492,-3.6492,-3.6492,-3.6492,-3.6492,-3.5414,-3.4274,-3.3521,-3.2259,-3.1166,-3.0494,0.0,-3.1136,-3.2259,-3.2675,-3.329,-3.4397,-3.4597,-3.4659,-3.4659,-3.5183,-3.5306,-3.4828,-3.5876,-3.623,-3.566,-3.6184,-3.6492,-3.6492,-3.6492,-3.6492,-3.6492,-3.6492,-3.6492,-3.646,-3.5737,-3.4993,-3.4279,-3.3526,-3.2832,-3.2218,-3.2218,-3.282,-3.3786,-3.388,-3.4572,-3.5601,-3.5683,-3.571,-3.571,-5.0011,-5.0011,-5.0011,-5.0011,-5.0499,-5.0865,-5.0865,-5.0865,-5.0836,-5.0836,-5.0302,-4.9906,-4.9906,-4.9755,-4.9649,-4.9619,-4.95,-4.9307,-4.9001,-4.9124,-4.9168,-4.9199,-4.9168,-4.926,-4.9458,-4.9458,-4.9419,-4.9317,-4.8595,-4.8177,-4.8055,-4.7454,-4.7004,-4.6741,-4.6219,-4.5804,-4.5535,-4.5085,-4.4155,-4.2975,-4.3474,-4.259,-4.0953,-4.1409,-4.1125,-4.0489,-4.0489,-4.0489,-4.0489,-4.0489,-4.0489,-4.0489,-4.0489,-4.0489,-4.0489,-4.0489,-4.0428,-4.0197,-3.9521,-3.8446,-3.7477,-3.7369,-3.6923,-3.6492,-3.6492,-3.6492,-3.6492,-3.6492,-3.6492,-3.6492,-3.6492,-3.5414,-3.4274,-3.3521,-3.2259,-3.1166,-3.0494,0.0,-3.2167,-3.2367,-3.3937,-3.489,-3.4536,-3.5013,-3.5322,-3.5322,-3.5444,-3.5722,-3.6153,-3.6384,-3.6445,-3.6338,-3.6445,-3.6492,-3.6492,-3.6492,-3.6492,-3.6492,-3.6492,-3.6492,-3.646,-3.5737,-3.4993,-3.4279,-3.3526,-3.2832,-3.2218,-3.2218,-3.2612,-3.3292,-3.3718,-3.4328,-3.4992,-3.5533,-3.571,-3.571,-5.0011,-5.0011,-5.0011,-5.0011,-5.0735,-5.1132,-5.0597,-5.0856,-5.0976,-5.0562,-5.0218,-5.0011,-5.0011,-4.9935,-4.9813,-4.9708,-4.9725,-4.9624,-4.9307,-4.9337,-4.9381,-4.9471,-4.9411,-4.9441,-4.959,-4.9619,-4.9666,-4.9772,-4.9428,-4.9274,-4.9256,-4.8896,-4.8489,-4.7992,-4.7756,-4.7132,-4.6297,-4.6417,-4.5868,-4.4889,-4.5152,-4.4675,-4.3702,-4.3264,-4.2544,-4.1724,-4.1326,-4.0901,-4.0489,-4.0489,-4.0489,-4.0489,-4.0489,-4.0489,-4.0489,-4.0489,-4.0489,-4.0336,-3.9674,-3.88,-3.7954,-3.7584,-3.6999,-3.6492,-3.6492,-3.6492,-3.6492,-3.6492,-3.6492,-3.6492,-3.6492,-3.5722,-3.4828,-3.4091,-3.3136,0.0,0.0,-3.2552,-3.3213,-3.3967,-3.4936,-3.5537,-3.5553,-3.5845,-3.603,-3.603,-3.603,-3.6153,-3.6476,-3.6492,-3.6492,-3.6492,-3.6492,-3.6492,-3.6492,-3.6492,-3.6492,-3.6492,-3.6492,-3.6492,-3.6492,-3.6148,-3.5593,-3.4846,-3.4095,-3.3402,-3.2704,-3.2336,-3.2572,-3.3129,-3.3363,-3.4027,-3.4816,-3.51,-3.5398,-3.571,-5.0493,-5.0528,-5.0476,-5.0304,-5.1045,-5.1356,-5.0407,-5.0752,-5.0907,-5.0338,-5.0114,-5.0011,-5.0011,-5.0011,-4.9935,-4.9784,-4.9906,-4.9906,-4.9637,-4.9607,-4.9637,-4.9708,-4.9637,-4.9666,-4.9784,-4.9784,-4.986,-5.0011,-5.0011,-5.0011,-5.0011,-5.0011,-4.9625,-4.8942,-4.904,-4.8362,-4.7196,-4.782,-4.7527,-4.6669,-4.6819,-4.6569,-4.5991,-4.4903,-4.4039,-4.3342,-4.2598,-4.1762,-4.1034,-4.1016,-4.0785,-4.0489,-4.0489,-4.0489,-4.0489,-4.0489,-4.0489,-4.0382,-3.9859,-3.9262,-3.8585,-3.7908,-3.723,-3.6676,-3.6538,-3.6492,-3.6492,-3.6492,-3.6492,-3.6492,-3.6492,-3.5938,-3.529,-3.4613,0.0,0.0,0.0,-3.3675,-3.4291,-3.5383,-3.566,-3.5922,-3.6445,-3.6492,-3.6492,-3.6492,-3.6492,-3.6492,-3.6492,-3.6492,-3.6492,-3.6492,-3.6492,-3.6492,-3.6492,-3.6492,-3.6492,-3.6492,-3.6492,-3.6492,-3.6492,-3.6492,-3.6116,-3.5367,-3.4614,-3.3871,-3.3157,-3.248,-3.2477,-3.2898,-3.3047,-3.362,-3.4448,-3.4694,-3.5073,-3.5533,-5.1895,-5.2033,-5.1808,-5.1149,-5.1636,-5.1877,-5.1149,-5.108,-5.1097,-5.1045,-5.0424,-5.0011,-5.0011,-5.0011,-5.0011,-4.9982,-5.0011,-4.9982,-4.9964,-4.9964,-4.9889,-4.9708,-4.986,-4.9982,-4.9982,-4.9982,-4.9982,-5.0011,-5.0011,-5.0011,-5.0011,-5.0011,-4.9976,-4.9895,-4.9924,-4.9844,-4.9734,-4.978,-4.9042,-4.784,-4.8403,-4.7399,-4.554,-4.5367,-4.5239,-4.5014,-4.4145,-4.3361,-4.2708,-4.2572,-4.1638,-4.0489,-4.0489,-4.0489,-4.0489,-4.0489,-4.0489,-4.0489,-4.0428,-3.992,-3.9277,-3.86,-3.7923,-3.7261,-3.663,-3.6492,-3.6492,-3.6492,-3.6492,-3.6492,-3.6492,-3.5938,-3.529,-3.4613,0.0,0.0,-3.3506,-3.4522,-3.5398,-3.5506,-3.6045,-3.6445,-3.6492,-3.6492,-3.6492,-3.6492,-3.6492,-3.6492,-3.6492,-3.6492,-3.6492,-3.6492,-3.6492,-3.6492,-3.6492,-3.6492,-3.6492,-3.6492,-3.6492,-3.6492,-3.6492,-3.6492,-3.6116,-3.5367,-3.4614,-3.3871,-3.3157,-3.248,-3.2246,-3.2327,-3.2884,-3.3156,-3.3359,-3.4421,-3.4816,-3.4938,-5.136,-5.2166,-5.2511,-5.1877,-5.2822,-5.3063,-5.1373,-5.1511,-5.1459,-5.0545,-5.0183,-5.0011,-5.0011,-5.0011,-5.0011,-5.0011,-5.0011,-5.0011,-5.0011,-5.0011,-4.9982,-4.9889,-4.9964,-5.0011,-5.0011,-5.0011,-5.0011,-5.0011,-5.0011,-5.0011,-5.0011,-5.0011,-5.0011,-5.0011,-5.0011,-5.0011,-5.0011,-5.0011,-4.9705,-4.9208,-4.9458,-4.902,-4.8239,-4.7746,-4.7228,-4.6641,-4.5864,-4.5082,-4.4286,-4.3658,-4.281,-4.1886,-4.1345,-4.0858,-4.0489,-4.0489,-4.0489,-4.0489,-4.0489,-3.9997,-3.9428,-3.9167,-3.8308,-3.743,-3.7169,-3.6799,-3.6492,-3.6492,-3.6492,-3.6492,-3.6492,-3.6276,-3.603,-3.5768,0.0,-3.5183,-3.5291,-3.5414,-3.566,-3.6061,-3.6338,-3.6492,-3.6492,-3.6492,-3.6492,-3.6492,-3.6492,-3.6492,-3.6492,-3.6492,-3.6492,-3.6492,-3.6492,-3.6492,-3.6492,-3.6492,-3.6492,-3.6492,-3.6492,-3.6492,-3.6492,-3.6492,-3.6352,-3.6038,-3.5302,-3.4547,-3.3837,-3.3087,-3.2574,-3.2232,-3.2463,-3.2775,-3.3196,-3.3948,-3.4477,-3.4883,-5.1977,-5.2873,-5.3287,-5.2684,-5.346,-5.3546,-5.1735,-5.186,-5.1856,-5.0838,-5.0493,-5.0355,-5.0355,-5.0149,-5.0011,-5.0011,-5.0011,-5.0011,-5.0011,-5.0011,-5.0011,-5.0011,-5.0011,-5.0011,-5.0011,-5.0011,-5.0011,-5.0011,-5.0011,-5.0011,-5.0011,-5.0011,-5.0011,-5.0011,-5.0011,-5.0011,-5.0011,-5.0011,-5.0011,-5.0011,-5.0011,-5.0011,-4.9906,-4.9161,-4.867,-4.826,-4.7504,-4.6738,-4.5902,-4.4949,-4.4032,-4.3107,-4.2093,-4.1233,-4.0593,-4.0593,-4.0558,-4.0489,-4.0489,-4.0151,-3.9751,-3.9536,-3.8831,-3.8015,-3.76,-3.7138,-3.6738,-3.6538,-3.6492,-3.6492,-3.6492,-3.6492,-3.6492,-3.6492,-3.6107,-3.5953,-3.643,-3.6091,-3.5968,-3.6445,-3.6492,-3.6492,-3.6492,-3.6492,-3.6492,-3.6492,-3.6492,-3.6492,-3.6492,-3.6492,-3.6492,-3.6492,-3.6492,-3.6492,-3.6492,-3.6492,-3.6492,-3.6492,-3.6492,-3.6492,-3.6492,-3.6492,-3.6492,-3.646,-3.5705,-3.4993,-3.423,-3.3492,-3.2797,-3.2218,-3.2218,-3.2463,-3.2898,-3.3457,-3.3932,-3.4394,-5.4184,-5.4494,-5.427,-5.3546,-5.3408,-5.3149,-5.2326,-5.2188,-5.2188,-5.2188,-5.158,-5.1114,-5.1114,-5.0459,-5.0011,-5.0011,-5.0011,-5.0011,-5.0011,-5.0011,-5.0011,-5.0011,-5.0011,-5.0011,-5.0011,-5.0011,-5.0011,-5.0011,-5.0011,-5.0011,-5.0011,-5.0011,-5.0011,-5.0011,-5.0011,-5.0011,-5.0011,-5.0011,-5.0011,-5.0011,-5.0011,-5.0011,-4.9906,-4.9192,-4.9376,-4.9877,-4.9029,-4.8259,-4.7477,-4.6614,-4.5406,-4.398,-4.2563,-4.1513,-4.0833,-4.0799,-4.0662,-4.0524,-4.0524,-4.0489,-4.0336,-3.9659,-3.949,-3.917,-3.7815,-3.7507,-3.7307,-3.663,-3.6492,-3.6492,-3.6492,-3.6492,-3.6492,-3.6492,-3.6492,-3.6492,-3.6492,-3.6492,-3.6492,-3.6492,-3.6492,-3.6492,-3.6492,-3.6492,-3.6492,-3.6492,-3.6492,-3.6492,-3.6492,-3.6492,-3.6492,-3.6492,-3.6492,-3.6492,-3.6492,-3.6492,-3.6492,-3.6492,-3.6492,-3.6492,-3.6492,-3.6492,-3.6492,-3.646,-3.5705,-3.4993,-3.423,-3.3492,-3.2797,-3.2218,-3.2218,-3.2218,-3.2286,-3.2884,-3.3101,-3.3264,-5.267,-5.3356,-5.3822,-5.4132,-5.4184,-5.3925,-5.3166,-5.3046,-5.2856,-5.2257,-5.1998,-5.186,-5.186,-5.1218,-5.0787,-5.0787,-5.0304,-5.0011,-5.0011,-5.0011,-5.0011,-5.0011,-5.0011,-5.0011,-5.0011,-5.0011,-5.0011,-5.0011,-5.0011,-5.0011,-5.0011,-5.0011,-5.0011,-5.0011,-5.0011,-5.0011,-5.0011,-5.0011,-5.0011,-5.0011,-5.0011,-5.0011,-4.9982,-4.9772,-4.9801,-4.9982,-4.9713,-4.9453,-4.9141,-4.8219,-4.7325,-4.6147,-4.3652,-4.2991,-4.2912,-4.1931,-4.1608,-4.1542,-4.1542,-4.1142,-4.0615,-4.0278,-3.9844,-3.9259,-3.8415,-3.7846,-3.7307,-3.663,-3.6492,-3.6492,-3.6492,-3.6492,-3.6492,-3.6492,-3.6492,-3.6492,-3.6492,-3.6492,-3.6492,-3.6492,-3.6492,-3.6492,-3.6492,-3.6492,-3.6492,-3.6492,-3.6492,-3.6492,-3.6492,-3.6492,-3.6492,-3.6492,-3.6492,-3.6492,-3.6492,-3.6492,-3.6492,-3.6492,-3.6492,-3.6492,-3.6492,-3.6492,-3.6492,-3.646,-3.5705,-3.4993,-3.423,-3.3492,-3.2797,-3.2218,-3.2218,-3.2218,-3.2286,-3.2884,-3.3101,-3.321,-5.2528,-5.3304,-5.3891,-5.4046,-5.4322,-5.4253,-5.3511,-5.3649,-5.3667,-5.3153,-5.2873,-5.2684,-5.2684,-5.1752,-5.1114,-5.1114,-5.0442,-5.0011,-5.0011,-5.0011,-5.0011,-5.0011,-5.0011,-5.0011,-5.0011,-5.0011,-5.0011,-5.0011,-5.0011,-5.0011,-5.0011,-5.0011,-5.0011,-5.0011,-5.0011,-5.0011,-5.0011,-5.0011,-5.0011,-5.0011,-5.0011,-5.0011,-5.0011,-5.0011,-5.0011,-5.0011,-5.0011,-5.0011,-4.986,-4.9023,-4.8082,-4.697,-4.5177,-4.4443,-4.4043,-4.3213,-4.2699,-4.2331,-4.2062,-4.1625,-4.1192,-4.0833,-4.03,-3.9739,-3.9162,-3.8417,-3.774,-3.7203,-3.677,-3.6523,-3.6585,-3.6554,-3.6492,-3.6492,-3.6492,-3.6492,-3.6492,-3.6492,-3.6492,-3.6492,-3.6492,-3.6492,-3.6492,-3.6492,-3.6492,-3.6492,-3.6492,-3.6492,-3.6492,-3.6492,-3.6492,-3.6492,-3.6492,-3.6492,-3.6492,-3.6492,-3.6492,-3.6492,-3.6492,-3.6492,-3.6492,-3.6492,-3.6492,-3.6492,-3.6038,-3.5255,-3.4279,-3.3837,-3.3066,-3.2218,-3.2218,-3.2218,-3.2259,-3.2612,-3.2748,-3.283,-5.3063,-5.3804,-5.4098,-5.3408,-5.3908,-5.4184,-5.3511,-5.4029,-5.4512,-5.4512,-5.3925,-5.3494,-5.3494,-5.2132,-5.1218,-5.1218,-5.0476,-5.0011,-5.0011,-5.0011,-5.0011,-5.0011,-5.0011,-5.0011,-5.0011,-5.0011,-5.0011,-5.0011,-5.0011,-5.0011,-5.0011,-5.0011,-5.0011,-5.0011,-5.0011,-5.0011,-5.0011,-5.0011,-5.0011,-5.0011,-5.0011,-5.0011,-5.0011,-5.0011,-5.0011,-5.0011,-5.0011,-5.0011,-4.9906,-4.9222,-4.8166,-4.7065,-4.6935,-4.5926,-4.474,-4.4547,-4.3897,-4.3064,-4.2426,-4.2125,-4.1885,-4.1339,-4.0882,-4.0423,-3.9946,-3.9197,-3.8546,-3.8153,-3.7328,-3.6662,-3.6786,-3.6647,-3.6523,-3.6523,-3.6523,-3.6492,-3.6492,-3.6523,-3.6523,-3.6492,-3.6523,-3.6523,-3.6492,-3.6492,-3.6492,-3.6492,-3.6492,-3.6492,-3.6492,-3.6492,-3.6492,-3.6492,-3.6492,-3.6492,-3.6492,-3.6492,-3.6492,-3.6492,-3.6492,-3.6492,-3.6492,-3.6492,-3.6492,-3.6492,-3.6429,-3.564,-3.438,-3.4245,-3.3485,-3.2372,-3.2314,-3.2277,-3.2277,-3.2277,-3.2241,-3.2286,-5.1563,-5.2201,-5.2666,-5.2481,-5.3115,-5.358,-5.3425,-5.4029,-5.4512,-5.4512,-5.4374,-5.427,-5.427,-5.2908,-5.1946,-5.1946,-5.0769,-5.0011,-5.0011,-5.0011,-5.0011,-5.0011,-5.0011,-5.0011,-5.0011,-5.0011,-5.0011,-5.0011,-5.0011,-5.0011,-5.0011,-5.0011,-5.0011,-5.0011,-5.0011,-5.0011,-5.0011,-5.0011,-5.0011,-5.0011,-5.0011,-5.0011,-5.0011,-5.0011,-5.0011,-5.0011,-5.0011,-5.0011,-4.9982,-4.983,-4.9563,-4.9129,-4.8003,-4.7747,-4.7534,-4.5836,-4.519,-4.4879,-4.4147,-4.3122,-4.2205,-4.2061,-4.1489,-4.0795,-4.0177,-3.9897,-3.9568,-3.898,-3.8231,-3.767,-3.7701,-3.7142,-3.6662,-3.6662,-3.6585,-3.6492,-3.6492,-3.66,-3.6631,-3.6523,-3.66,-3.6616,-3.6523,-3.6492,-3.6492,-3.6492,-3.6492,-3.6492,-3.6492,-3.6492,-3.6492,-3.6492,-3.6492,-3.6492,-3.6492,-3.6492,-3.6492,-3.6492,-3.6492,-3.6492,-3.6492,-3.6492,-3.6492,-3.646,-3.5879,-3.5464,-3.5059,-3.3891,-3.3596,-3.3782,-3.3192,-3.2995,-3.2995,-3.2995,-3.2632,-3.2232,-5.1114,-5.2011,-5.2666,-5.2257,-5.3166,-5.3822,-5.346,-5.4029,-5.4374,-5.4029,-5.3977,-5.3839,-5.346,-5.239,-5.1515,-5.1183,-5.0459,-5.0011,-5.0011,-5.0011,-5.0011,-5.0011,-5.0011,-5.0011,-5.0011,-5.0011,-5.0011,-5.0011,-5.0011,-5.0011,-5.0011,-5.0011,-5.0011,-5.0011,-5.0011,-5.0011,-5.0011,-5.0011,-5.0011,-5.0011,-5.0011,-5.0011,-5.0011,-5.0011,-5.0011,-5.0011,-5.0011,-5.0011,-5.0011,-5.0011,-5.0011,-4.9866,-4.9145,-4.8838,-4.8581,-4.7472,-4.6624,-4.5919,-4.5213,-4.4206,-4.3273,-4.2939,-4.2349,-4.1592,-4.0866,-4.0372,-4.006,-3.9847,-3.9124,-3.856,-3.8607,-3.82,-3.7732,-3.739,-3.7266,-3.7095,-3.6801,-3.68,-3.68,-3.6754,-3.68,-3.68,-3.6754,-3.6647,-3.6616,-3.6616,-3.6554,-3.6492,-3.6492,-3.6492,-3.6492,-3.6492,-3.6492,-3.6492,-3.6492,-3.6492,-3.6492,-3.6492,-3.6492,-3.6492,-3.6492,-3.6492,-3.6492,-3.646,-3.5705,-3.519,-3.478,-3.365,-3.3227,-3.3241,-3.2868,-3.2725,-3.2725,-3.2725,-3.2503,-3.2218,-5.0925,-5.1942,-5.2615,-5.1959,-5.2994,-5.377,-5.327,-5.3718,-5.3942,-5.346,-5.3287,-5.2942,-5.2257,-5.1563,-5.0804,-5.0062,-5.0011,-5.0011,-5.0011,-5.0011,-5.0011,-5.0011,-5.0011,-5.0011,-5.0011,-5.0011,-5.0011,-5.0011,-5.0011,-5.0011,-5.0011,-5.0011,-5.0011,-5.0011,-5.0011,-5.0011,-5.0011,-5.0011,-5.0011,-5.0011,-5.0011,-5.0011,-5.0011,-5.0011,-5.0011,-5.0011,-5.0011,-5.0011,-5.0011,-5.0011,-5.0011,-5.0011,-5.0011,-4.9545,-4.8965,-4.8827,-4.7913,-4.6797,-4.5999,-4.5247,-4.4525,-4.3839,-4.3139,-4.2396,-4.1704,-4.0932,-4.0457,-4.0702,-4.0037,-3.939,-3.9487,-3.9313,-3.8919,-3.831,-3.82,-3.7935,-3.728,-3.7217,-3.717,-3.703,-3.7015,-3.7015,-3.7015,-3.6831,-3.6693,-3.6693,-3.6585,-3.6492,-3.6492,-3.6492,-3.6492,-3.6492,-3.6492,-3.6492,-3.6492,-3.6492,-3.6492,-3.6492,-3.6492,-3.6492,-3.6492,-3.6492,-3.6492,-3.646,-3.5705,-3.5059,-3.4413,-3.3561,-3.296,-3.2552,-3.2408,-3.2372,-3.2336,-3.2241,-3.2218,-3.2218,-5.0149,-5.0321,-5.0442,-5.0321,-5.1011,-5.1752,-5.2274,-5.2429,-5.2735,-5.3322,-5.2804,-5.2308,-5.2205,-5.1563,-5.0804,-5.0062,-5.0011,-5.0011,-5.0011,-5.0011,-5.0011,-5.0011,-5.0011,-5.0011,-5.0011,-5.0011,-5.0011,-5.0011,-5.0011,-5.0011,-5.0011,-5.0011,-5.0011,-5.0011,-5.0011,-5.0011,-5.0011,-5.0011,-5.0011,-5.0011,-5.0011,-5.0011,-5.0011,-5.0011,-5.0011,-5.0011,-5.0011,-5.0011,-5.0011,-5.0011,-5.0011,-5.0011,-5.0011,-4.9942,-4.9717,-4.8999,-4.8654,-4.8206,-4.6832,-4.5964,-4.5297,-4.4541,-4.3486,-4.2554,-4.2459,-4.1885,-4.1429,-4.1462,-4.0892,-4.0402,-4.0419,-3.9786,-3.9235,-3.9141,-3.903,-3.87,-3.7951,-3.7997,-3.7855,-3.7077,-3.7015,-3.7015,-3.7015,-3.6831,-3.6693,-3.6693,-3.6585,-3.6492,-3.6492,-3.6492,-3.6492,-3.6492,-3.6492,-3.6492,-3.6492,-3.6492,-3.6492,-3.6492,-3.6492,-3.6492,-3.6492,-3.6492,-3.6492,-3.646,-3.5705,-3.5335,-3.5124,-3.3768,-3.3526,-3.3939,-3.3332,-3.3052,-3.2995,-3.2408,-3.2218,-3.2218,-5.0011,-5.0338,-5.0614,-5.0614,-5.1205,-5.1808,-5.2136,-5.2188,-5.2201,-5.2132,-5.1821,-5.1442,-5.1028,-5.0683,-5.0355,-5.0045,-5.0011,-5.0011,-5.0011,-5.0011,-5.0011,-5.0011,-5.0011,-5.0011,-5.0011,-5.0011,-5.0011,-5.0011,-5.0011,-5.0011,-5.0011,-5.0011,-5.0011,-5.0011,-5.0011,-5.0011,-5.0011,-5.0011,-5.0011,-5.0011,-5.0011,-5.0011,-5.0011,-5.0011,-5.0011,-5.0011,-5.0011,-5.0011,-5.0011,-5.0011,-5.0011,-5.0011,-5.0011,-5.0011,-4.9942,-4.9579,-4.9137,-4.8568,-4.7482,-4.6697,-4.589,-4.4772,-4.381,-4.3017,-4.2679,-4.2093,-4.1588,-4.1588,-4.1351,-4.1146,-4.1146,-4.0861,-4.0449,-4.0086,-3.9975,-3.9675,-3.8937,-3.859,-3.8133,-3.735,-3.7271,-3.7271,-3.7271,-3.703,-3.6862,-3.6862,-3.6647,-3.6492,-3.6492,-3.6492,-3.6492,-3.6492,-3.6492,-3.6492,-3.6492,-3.6492,-3.6492,-3.6492,-3.6492,-3.6492,-3.6492,-3.6492,-3.6492,-3.646,-3.5705,-3.54,-3.5335,-3.4245,-3.4007,-3.4279,-3.3939,-3.3802,-3.3768,-3.3471,-3.3381,-3.3381]},{"header":{"parameterUnit":"m.s-1","parameterCategory":1,"la1":30.6,"la2":28.766,"lo1":-90.7593,"lo2":-88.6598,"dy":0.0162,"dx":0.0183,"nx":116,"ny":114,"refTime":"2024-07-06T06:00:00:Z","depth":0,"parameterNumber":3,"parameterNumberName":"V-component_of_WINDS"},"data":[0.0,0.0,0.0,0.0,0.0,0.0,0.0,0.0,0.0,0.0,0.0,0.0,0.0,0.0,0.0,0.0,0.0,0.0,0.0,0.0,0.0,0.0,0.0,0.0,0.0,0.0,0.0,0.0,0.0,0.0,0.0,0.0,0.0,0.0,0.0,0.0,0.0,0.0,0.0,0.0,0.0,0.0,0.0,0.0,0.0,0.0,0.0,0.0,0.0,0.0,0.0,0.0,0.0,0.0,0.0,0.0,0.0,0.0,0.0,0.0,0.0,0.0,0.0,0.0,0.0,0.0,0.0,0.0,0.0,0.0,0.0,0.0,0.0,0.0,0.0,0.0,0.0,0.0,0.0,0.0,0.0,0.0,0.0,0.0,0.0,0.0,0.0,0.0,0.0,0.0,0.0,0.0,0.0,0.0,0.0,0.0,0.0,0.0,0.0,0.0,0.0,0.0,0.0,0.0,0.0,0.0,0.0,0.0,0.0,0.0,0.0,0.0,0.0,0.0,0.0,0.0,0.0,0.0,0.0,0.0,0.0,0.0,0.0,0.0,0.0,0.0,0.0,0.0,0.0,0.0,0.0,0.0,0.0,0.0,0.0,0.0,0.0,0.0,0.0,0.0,0.0,0.0,0.0,0.0,0.0,0.0,0.0,0.0,0.0,0.0,0.0,0.0,0.0,0.0,0.0,0.0,0.0,0.0,0.0,0.0,0.0,0.0,0.0,0.0,0.0,0.0,0.0,0.0,0.0,0.0,0.0,0.0,0.0,0.0,0.0,0.0,0.0,0.0,0.0,0.0,0.0,0.0,0.0,0.0,0.0,0.0,0.0,0.0,0.0,0.0,0.0,0.0,0.0,0.0,0.0,0.0,0.0,0.0,0.0,0.0,0.0,0.0,0.0,0.0,0.0,0.0,0.0,0.0,0.0,0.0,0.0,0.0,0.0,0.0,0.0,0.0,0.0,0.0,0.0,0.0,0.0,0.0,0.0,0.0,0.0,0.0,0.0,0.0,0.0,0.0,0.0,0.0,0.0,0.0,0.0,0.0,0.0,0.0,0.0,0.0,0.0,0.0,0.0,0.0,0.0,0.0,0.0,0.0,0.0,0.0,0.0,0.0,0.0,0.0,0.0,0.0,0.0,0.0,0.0,0.0,0.0,0.0,0.0,0.0,0.0,0.0,0.0,0.0,0.0,0.0,0.0,0.0,0.0,0.0,0.0,0.0,0.0,0.0,0.0,0.0,0.0,0.0,0.0,0.0,0.0,0.0,0.0,0.0,0.0,0.0,0.0,0.0,0.0,0.0,0.0,0.0,0.0,0.0,0.0,0.0,0.0,0.0,0.0,0.0,0.0,0.0,0.0,0.0,0.0,0.0,0.0,0.0,0.0,0.0,0.0,0.0,0.0,0.0,0.0,0.0,0.0,0.0,0.0,0.0,0.0,0.0,0.0,0.0,0.0,0.0,0.0,0.0,0.0,0.0,0.0,0.0,0.0,0.0,0.0,0.0,0.0,0.0,0.0,0.0,0.0,0.0,0.0,0.0,0.0,0.0,0.0,0.0,0.0,0.0,0.0,0.0,0.0,0.0,0.0,0.0,0.0,0.0,0.0,0.0,0.0,0.0,0.0,0.0,0.0,0.0,0.0,0.0,0.0,0.0,0.0,0.0,0.0,0.0,0.0,0.0,0.0,0.0,0.0,0.0,0.0,0.0,0.0,0.0,0.0,0.0,0.0,0.0,0.0,0.0,0.0,0.0,0.0,0.0,0.0,0.0,0.0,0.0,0.0,0.0,0.0,0.0,0.0,0.0,0.0,0.0,0.0,0.0,0.0,0.0,0.0,0.0,0.0,0.0,0.0,0.0,0.0,0.0,0.0,0.0,0.0,0.0,0.0,0.0,0.0,0.0,0.0,0.0,0.0,0.0,0.0,0.0,0.0,0.0,0.0,0.0,0.0,0.0,0.0,0.0,0.0,0.0,0.0,0.0,0.0,0.0,0.0,0.0,0.0,0.0,0.0,0.0,0.0,0.0,0.0,0.0,0.0,0.0,0.0,0.0,0.0,0.0,0.0,0.0,0.0,0.0,0.0,0.0,0.0,0.0,0.0,0.0,0.0,0.0,0.0,0.0,0.0,0.0,0.0,0.0,0.0,0.0,0.0,0.0,0.0,0.0,0.0,0.0,0.0,0.0,0.0,0.0,0.0,0.0,0.0,0.0,0.0,0.0,0.0,0.0,0.0,0.0,0.0,0.0,0.0,0.0,0.0,0.0,0.0,0.0,0.0,0.0,0.0,0.0,0.0,0.0,0.0,0.0,0.0,0.0,0.0,0.0,0.0,0.0,0.0,0.0,0.0,0.0,0.0,0.0,0.0,0.0,0.0,0.0,0.0,0.0,0.0,0.0,0.0,0.0,0.0,0.0,0.0,0.0,0.0,0.0,0.0,0.0,0.0,0.0,0.0,0.0,0.0,0.0,0.0,0.0,0.0,0.0,0.0,0.0,0.0,0.0,0.0,0.0,0.0,0.0,0.0,0.0,0.0,0.0,0.0,0.0,0.0,0.0,0.0,0.0,0.0,0.0,0.0,0.0,0.0,0.0,0.0,0.0,0.0,0.0,0.0,0.0,0.0,0.0,0.0,0.0,0.0,0.0,0.0,0.0,0.0,0.0,0.0,0.0,0.0,0.0,0.0,0.0,0.0,0.0,0.0,0.0,0.0,0.0,0.0,0.0,0.0,0.0,0.0,0.0,0.0,0.0,0.0,0.0,0.0,0.0,0.0,0.0,0.0,0.0,0.0,0.0,0.0,0.0,0.0,0.0,0.0,0.0,0.0,0.0,0.0,0.0,0.0,0.0,0.0,0.0,0.0,0.0,0.0,0.0,0.0,0.0,0.0,0.0,0.0,0.0,0.0,0.0,0.0,0.0,0.0,0.0,0.0,0.0,0.0,0.0,0.0,0.0,0.0,0.0,0.0,0.0,0.0,0.0,0.0,0.0,0.0,0.0,0.0,0.0,0.0,0.0,0.0,0.0,0.0,0.0,0.0,0.0,0.0,0.0,0.0,0.0,0.0,0.0,0.0,0.0,0.0,0.0,0.0,0.0,0.0,0.0,0.0,0.0,0.0,0.0,0.0,0.0,0.0,0.0,0.0,0.0,0.0,0.0,0.0,0.0,0.0,0.0,0.0,0.0,0.0,0.0,0.0,0.0,0.0,0.0,0.0,0.0,0.0,0.0,0.0,0.0,0.0,0.0,0.0,0.0,0.0,0.0,0.0,0.0,0.0,0.0,0.0,0.0,0.0,0.0,0.0,0.0,0.0,0.0,0.0,0.0,0.0,0.0,0.0,0.0,0.0,0.0,0.0,0.0,0.0,0.0,0.0,0.0,0.0,0.0,0.0,0.0,0.0,0.0,0.0,0.0,0.0,0.0,0.0,0.0,0.0,0.0,0.0,0.0,0.0,0.0,0.0,0.0,0.0,0.0,0.0,0.0,0.0,0.0,0.0,0.0,0.0,0.0,0.0,0.0,0.0,0.0,0.0,0.0,0.0,0.0,0.0,0.0,0.0,0.0,0.0,0.0,0.0,0.0,0.0,0.0,0.0,0.0,0.0,0.0,0.0,0.0,0.0,0.0,0.0,0.0,0.0,0.0,0.0,0.0,0.0,0.0,0.0,0.0,0.0,0.0,0.0,0.0,0.0,0.0,0.0,0.0,0.0,0.0,0.0,0.0,0.0,0.0,0.0,0.0,0.0,0.0,0.0,0.0,0.0,0.0,0.0,0.0,0.0,0.0,0.0,0.0,0.0,0.0,0.0,0.0,0.0,0.0,0.0,0.0,0.0,0.0,0.0,0.0,0.0,0.0,0.0,0.0,0.0,0.0,0.0,0.0,0.0,0.0,0.0,0.0,0.0,0.0,0.0,0.0,0.0,0.0,0.0,0.0,0.0,0.0,0.0,0.0,0.0,0.0,0.0,0.0,0.0,0.0,0.0,0.0,0.0,0.0,0.0,0.0,0.0,0.0,0.0,0.0,0.0,0.0,0.0,0.0,0.0,0.0,0.0,0.0,0.0,0.0,0.0,0.0,0.0,0.0,0.0,0.0,0.0,0.0,0.0,0.0,0.0,0.0,0.0,0.0,0.0,0.0,0.0,0.0,0.0,0.0,0.0,0.0,0.0,0.0,0.0,0.0,0.0,0.0,0.0,0.0,0.0,0.0,0.0,0.0,0.0,0.0,0.0,0.0,0.0,0.0,0.0,0.0,0.0,0.0,0.0,0.0,0.0,0.0,0.0,0.0,0.0,0.0,0.0,0.0,0.0,0.0,0.0,0.0,0.0,0.0,0.0,0.0,0.0,0.0,0.0,0.0,0.0,0.0,0.0,0.0,0.0,0.0,0.0,0.0,0.0,0.0,0.0,0.0,0.0,0.0,0.0,0.0,0.0,0.0,0.0,0.0,0.0,0.0,0.0,0.0,0.0,0.0,0.0,0.0,0.0,0.0,0.0,0.0,0.0,0.0,0.0,0.0,0.0,0.0,0.0,0.0,0.0,0.0,0.0,0.0,0.0,0.0,0.0,0.0,0.0,0.0,0.0,0.0,0.0,0.0,0.0,0.0,0.0,0.0,0.0,0.0,0.0,0.0,0.0,0.0,0.0,0.0,0.0,0.0,0.0,0.0,0.0,0.0,0.0,0.0,0.0,0.0,0.0,0.0,0.0,0.0,0.0,0.0,0.0,0.0,0.0,0.0,0.0,0.0,0.0,0.0,0.0,0.0,0.0,0.0,0.0,0.0,0.0,0.0,0.0,0.0,0.0,0.0,0.0,0.0,0.0,0.0,0.0,0.0,0.0,0.0,0.0,0.0,0.0,0.0,0.0,0.0,0.0,0.0,0.0,0.0,0.0,0.0,0.0,0.0,0.0,0.0,0.0,0.0,0.0,0.0,0.0,0.0,0.0,0.0,0.0,0.0,0.0,0.0,0.0,0.0,0.0,0.0,0.0,0.0,0.0,0.0,0.0,0.0,0.0,0.0,0.0,0.0,0.0,0.0,0.0,0.0,0.0,0.0,0.0,0.0,0.0,0.0,0.0,0.0,0.0,0.0,0.0,0.0,0.0,0.0,0.0,0.0,0.0,0.0,0.0,0.0,0.0,0.0,0.0,0.0,0.0,0.0,0.0,0.0,0.0,0.0,0.0,0.0,0.0,0.0,0.0,0.0,0.0,0.0,0.0,0.0,0.0,0.0,0.0,0.0,0.0,0.0,0.0,0.0,0.0,0.0,0.0,0.0,0.0,0.0,0.0,0.0,0.0,0.0,0.0,0.0,0.0,0.0,0.0,0.0,0.0,0.0,0.0,0.0,0.0,0.0,0.0,0.0,0.0,0.0,0.0,0.0,0.0,0.0,0.0,0.0,0.0,0.0,0.0,0.0,0.0,0.0,0.0,0.0,0.0,0.0,0.0,0.0,0.0,0.0,0.0,0.0,0.0,0.0,0.0,0.0,0.0,0.0,0.0,0.0,0.0,0.0,0.0,0.0,0.0,0.0,0.0,0.0,0.0,0.0,0.0,0.0,0.0,0.0,0.0,0.0,0.0,0.0,0.0,0.0,0.0,0.0,0.0,0.0,0.0,0.0,0.0,0.0,0.0,0.0,0.0,0.0,0.0,0.0,0.0,0.0,0.0,0.0,0.0,0.0,0.0,0.0,0.0,0.0,0.0,0.0,0.0,0.0,0.0,0.0,0.0,0.0,0.0,0.0,0.0,0.0,0.0,0.0,0.0,0.0,0.0,0.0,0.0,0.0,0.0,0.0,0.0,0.0,0.0,0.0,0.0,0.0,0.0,0.0,0.0,0.0,0.0,0.0,0.0,0.0,0.0,0.0,0.0,0.0,0.0,0.0,0.0,0.0,0.0,0.0,0.0,0.0,0.0,0.0,0.0,0.0,0.0,0.0,0.0,0.0,0.0,0.0,0.0,0.0,0.0,0.0,0.0,0.0,0.0,0.0,0.0,0.0,0.0,0.0,0.0,0.0,0.0,0.0,0.0,0.0,0.0,0.0,0.0,0.0,0.0,0.0,0.0,0.0,0.0,0.0,0.0,0.0,0.0,0.0,-2.0579,0.0,0.0,0.0,0.0,0.0,0.0,0.0,0.0,0.0,0.0,0.0,0.0,0.0,0.0,0.0,0.0,0.0,0.0,0.0,0.0,0.0,0.0,0.0,0.0,-0.8431,-0.8775,-0.8923,-0.932,-0.9555,-0.9555,0.0,0.0,0.0,0.0,0.0,-0.991,-1.0043,-1.0665,-1.1796,-1.1799,-1.2623,-1.4212,-1.3875,-1.3168,-1.2224,0.0,0.0,0.0,0.0,0.0,0.0,0.0,0.0,0.0,0.0,0.0,0.0,0.0,0.0,0.0,0.0,0.0,0.0,0.0,0.0,0.0,0.0,0.0,0.0,0.0,0.0,0.0,0.0,0.0,0.0,0.0,0.0,0.0,0.0,0.0,0.0,0.0,0.0,0.0,0.0,0.0,0.0,0.0,0.0,0.0,0.0,0.0,0.0,0.0,0.0,0.0,0.0,0.0,0.0,0.0,0.0,0.0,0.0,0.0,0.0,0.0,0.0,0.0,0.0,0.0,0.0,0.0,0.0,0.0,0.0,0.0,-2.2989,0.0,0.0,0.0,0.0,0.0,0.0,0.0,0.0,0.0,0.0,0.0,0.0,0.0,0.0,0.0,0.0,0.0,0.0,0.0,0.0,0.0,-0.7908,-0.8049,-0.8796,-0.9428,-0.9725,-1.0295,-1.0704,-1.0865,-1.0759,0.0,0.0,0.0,-1.0786,-1.0974,-1.1262,-1.2116,-1.3557,-1.4021,-1.5078,-1.6663,-1.7486,-1.657,-1.425,-1.4252,0.0,0.0,0.0,0.0,0.0,0.0,0.0,0.0,0.0,0.0,0.0,0.0,0.0,0.0,0.0,0.0,0.0,0.0,0.0,0.0,0.0,0.0,0.0,0.0,0.0,0.0,0.0,0.0,0.0,0.0,0.0,0.0,0.0,0.0,0.0,0.0,0.0,0.0,0.0,0.0,0.0,0.0,0.0,0.0,0.0,0.0,0.0,0.0,0.0,0.0,0.0,0.0,0.0,0.0,0.0,0.0,0.0,0.0,0.0,0.0,0.0,0.0,0.0,-3.0418,-3.1128,-3.2117,-3.2156,-3.2418,-3.2626,-2.981,-2.815,-2.7298,-2.6239,0.0,0.0,0.0,0.0,0.0,0.0,0.0,0.0,0.0,0.0,0.0,0.0,0.0,0.0,0.0,0.0,0.0,0.0,0.0,-0.7899,-0.8599,-0.8804,-0.9483,-1.0994,-1.0657,-1.0709,-1.1512,-1.1011,0.0,0.0,-1.0695,-1.0764,-1.0906,-1.1502,-1.2607,-1.4174,-1.6513,-1.7777,-1.8051,-1.8692,-1.8781,-1.8361,-1.7296,-1.6498,-1.5871,0.0,0.0,0.0,0.0,0.0,0.0,0.0,0.0,0.0,0.0,0.0,0.0,0.0,0.0,0.0,0.0,0.0,0.0,0.0,0.0,0.0,0.0,0.0,0.0,0.0,0.0,0.0,0.0,0.0,0.0,0.0,0.0,0.0,0.0,0.0,0.0,0.0,0.0,0.0,0.0,0.0,-1.6504,-1.762,0.0,0.0,0.0,0.0,0.0,0.0,0.0,0.0,0.0,0.0,0.0,0.0,0.0,-2.9195,-3.0643,-3.2789,-3.3431,-3.2631,-3.5357,-3.5872,-3.4459,-3.5101,-3.5426,-3.5492,-3.5436,0.0,-3.0325,-2.8831,0.0,0.0,0.0,0.0,0.0,0.0,0.0,0.0,0.0,0.0,0.0,0.0,0.0,0.0,0.0,0.0,0.0,0.0,0.0,0.0,0.0,-1.0366,-1.1519,-1.2702,-1.3415,-1.3614,-1.3241,-1.3121,-1.2711,-1.191,-1.1878,-1.21,-1.2573,-1.3387,-1.4924,-1.7221,-1.9523,-2.0634,-2.0622,-2.1307,-2.1632,-2.16,-2.1027,-1.9602,-1.7567,-1.6586,0.0,0.0,0.0,0.0,0.0,0.0,0.0,0.0,0.0,0.0,0.0,0.0,0.0,0.0,0.0,0.0,0.0,0.0,0.0,0.0,0.0,0.0,0.0,0.0,0.0,0.0,0.0,0.0,0.0,0.0,0.0,0.0,0.0,0.0,0.0,0.0,0.0,0.0,0.0,-1.7213,-1.9739,-2.0182,-2.1336,-2.133,0.0,0.0,0.0,0.0,0.0,0.0,0.0,0.0,0.0,-3.0799,-3.1613,-3.2664,-3.3963,-3.5423,-3.6215,-3.6392,-3.7763,-3.8343,-3.8211,-3.8235,-3.8262,-3.8262,-3.8475,-3.7358,-3.5295,-3.3451,-3.1855,-3.0474,0.0,0.0,0.0,0.0,-3.034,-3.0736,0.0,0.0,0.0,0.0,0.0,0.0,0.0,0.0,0.0,0.0,0.0,0.0,-1.0111,-1.1689,-1.3172,-1.441,-1.5513,-1.5913,-1.5378,-1.4913,-1.4249,-1.3385,-1.3158,-1.342,-1.4139,-1.5747,-1.7687,-1.9963,-2.1839,-2.2719,-2.2685,-2.3237,-2.3496,-2.3496,-2.3496,-2.2003,-1.9443,-1.8688,-1.7326,-1.5556,0.0,0.0,0.0,0.0,0.0,0.0,0.0,0.0,0.0,0.0,0.0,0.0,0.0,0.0,0.0,0.0,0.0,0.0,0.0,0.0,0.0,0.0,0.0,0.0,0.0,0.0,0.0,0.0,0.0,0.0,0.0,0.0,0.0,0.0,0.0,0.0,0.0,-2.0379,-2.26,-2.2375,-2.4268,-2.4545,0.0,0.0,0.0,0.0,0.0,0.0,-3.0033,-3.1074,-3.2374,-3.408,-3.4953,-3.5914,-3.7011,-3.7911,-3.8806,-3.9691,-3.9747,-4.0262,-4.1153,-4.0781,-4.0578,-4.0603,-4.0889,-4.0614,-3.9773,-3.7463,-3.5799,-3.4599,-3.3917,-3.3692,-3.3882,-3.4472,-3.4561,-3.4667,0.0,0.0,0.0,0.0,0.0,0.0,0.0,0.0,0.0,0.0,0.0,-0.9179,-1.1184,-1.1954,-1.3367,-1.5939,-1.5558,-1.5939,-1.7791,-1.5426,-1.4195,-1.4762,-1.4179,-1.4156,-1.4837,-1.8265,-2.0433,-2.1212,-2.2702,-2.3464,-2.3447,-2.348,-2.3496,-2.3496,-2.3496,-2.3027,-2.2118,-2.0754,-1.9853,-1.909,-1.6326,0.0,0.0,0.0,0.0,0.0,0.0,0.0,0.0,0.0,0.0,0.0,0.0,0.0,0.0,0.0,0.0,0.0,0.0,0.0,0.0,0.0,0.0,0.0,0.0,0.0,0.0,0.0,0.0,0.0,0.0,0.0,0.0,0.0,0.0,0.0,0.0,0.0,0.0,-2.3498,-2.7046,0.0,0.0,0.0,0.0,-2.8765,-3.0322,-3.1742,-3.2841,-3.4325,-3.5683,-3.6862,-3.8068,-3.9039,-3.9783,-4.1096,-4.1785,-4.1836,-4.2057,-4.2153,-4.2213,-4.2187,-4.2187,-4.224,-4.326,-4.3393,-4.2662,-3.9669,-3.7777,-3.6687,-3.5939,-3.5898,-3.6221,-3.6274,-3.7238,-3.8522,0.0,0.0,0.0,-0.7264,-0.7374,-0.7452,-0.7492,-0.7505,-0.7748,-0.8407,-0.923,-1.05,-1.2507,-1.3978,-1.5548,-1.7357,-1.7852,-1.7954,-1.7731,-1.6372,-1.5673,-1.5927,-1.5032,-1.5755,-1.8316,-2.0063,-2.1535,-2.2718,-2.3674,-2.4144,-2.416,-2.4628,-2.5098,-2.5554,-2.5065,-2.4709,-2.4353,-2.2459,-2.1075,-2.0054,-1.8638,-1.7272,0.0,0.0,0.0,0.0,0.0,0.0,0.0,0.0,0.0,0.0,0.0,0.0,0.0,0.0,0.0,0.0,0.0,0.0,0.0,0.0,0.0,0.0,0.0,0.0,0.0,0.0,0.0,0.0,0.0,0.0,0.0,0.0,0.0,0.0,0.0,0.0,0.0,-2.7811,-3.0289,0.0,-2.8843,-3.0485,-3.1827,-3.2106,-3.355,-3.4971,-3.6305,-3.7345,-3.8317,-3.9216,-4.0438,-4.1222,-4.1467,-4.2293,-4.2892,-4.3237,-4.3308,-4.3502,-4.3787,-4.3478,-4.3332,-4.3357,-4.3716,-4.3787,-4.3541,-4.2775,-4.174,-4.0594,-4.0149,-4.0066,-4.0201,-4.0201,-4.0556,-4.1056,-0.6646,-0.6807,0.0,-0.7227,-0.7367,-0.7444,-0.7492,-0.7698,-0.8156,-0.9052,-1.0302,-1.1855,-1.3831,-1.5515,-1.7015,-1.8265,-1.8966,-1.9129,-1.8637,-1.751,-1.7038,-1.7398,-1.6972,-1.7944,-2.0581,-2.1779,-2.2977,-2.4225,-2.4887,-2.5357,-2.5584,-2.6085,-2.6571,-2.7025,-2.6539,-2.6309,-2.6212,-2.479,-2.3158,-2.1462,-2.0566,-1.9538,-1.8386,0.0,0.0,0.0,0.0,0.0,0.0,0.0,0.0,0.0,0.0,0.0,0.0,0.0,0.0,0.0,0.0,0.0,0.0,0.0,0.0,0.0,0.0,0.0,0.0,0.0,0.0,0.0,0.0,0.0,0.0,0.0,0.0,0.0,0.0,0.0,-3.0362,-3.0851,-3.2997,-3.3785,-3.2106,-3.345,-3.4778,-3.5586,-3.6555,-3.7748,-3.9206,-3.9934,-4.0525,-4.1026,-4.2218,-4.2859,-4.2859,-4.3607,-4.4196,-4.4534,-4.4636,-4.4829,-4.5123,-4.4806,-4.4689,-4.4689,-4.4853,-4.494,-4.4945,-4.4992,-4.452,-4.3708,-4.3252,-4.3072,-4.3072,-4.3072,-4.2912,-4.2662,-0.682,-0.6908,-0.7009,-0.7345,-0.7451,-0.7496,-0.7506,-0.8064,-0.8987,-1.0318,-1.1566,-1.3105,-1.5109,-1.6409,-1.7561,-1.861,-1.8666,-1.9245,-2.0681,-1.8806,-1.8111,-1.9186,-1.9949,-2.0694,-2.1423,-2.3462,-2.4903,-2.5662,-2.6377,-2.7057,-2.7705,-2.7705,-2.7721,-2.7737,-2.7721,-2.7721,-2.7737,-2.7721,-2.6175,-2.36,-2.2118,-2.1609,-2.1529,0.0,0.0,0.0,0.0,0.0,0.0,0.0,0.0,0.0,0.0,0.0,0.0,0.0,0.0,0.0,0.0,0.0,0.0,0.0,0.0,0.0,0.0,0.0,0.0,0.0,0.0,0.0,0.0,0.0,0.0,0.0,0.0,0.0,-2.9278,-3.1559,-3.2971,-3.2365,-3.5178,-3.634,-3.4203,-3.5943,-3.7798,-3.9265,-3.9365,-3.9951,-4.1342,-4.199,-4.2313,-4.2339,-4.3419,-4.398,-4.4003,-4.5275,-4.5909,-4.5927,-4.617,-4.6305,-4.6305,-4.6305,-4.6305,-4.633,-4.6843,-4.7051,-4.6962,-4.6195,-4.5856,-4.5766,-4.4906,-4.4603,-4.4603,-4.4603,-4.4139,-4.3429,-0.6858,-0.6977,-0.7145,-0.742,-0.7451,-0.7444,-0.7492,-0.8064,-0.8987,-1.0318,-1.2009,-1.3833,-1.5733,-1.7125,-1.819,-1.8914,-1.9245,-1.9569,-1.998,-1.8936,-1.8829,-1.995,-2.1163,-2.2637,-2.4384,-2.5001,-2.5907,-2.7118,-2.7332,-2.7527,-2.7705,-2.7705,-2.7996,-2.8466,-2.7948,-2.7996,-2.845,-2.7931,-2.7251,-2.6448,-2.5076,-2.3785,-2.2597,0.0,0.0,0.0,0.0,0.0,0.0,0.0,0.0,0.0,0.0,0.0,0.0,0.0,0.0,0.0,0.0,0.0,0.0,0.0,0.0,0.0,0.0,0.0,0.0,0.0,0.0,0.0,0.0,0.0,0.0,0.0,-3.0078,-3.1913,-3.1999,-3.3857,-3.5516,-3.6421,-3.7825,-3.8669,-3.8602,-3.9149,-3.9852,-4.0763,-4.0829,-4.0994,-4.1364,-4.2048,-4.2641,-4.3091,-4.4836,-4.5976,-4.6351,-4.7666,-4.833,-4.833,-4.8407,-4.8442,-4.8442,-4.8442,-4.8442,-4.8442,-4.8604,-4.8354,-4.7859,-4.7627,-4.7217,-4.6534,-4.5138,-4.4603,-4.4603,-4.4603,-4.446,-4.4264,-0.6732,-0.6908,-0.7088,-0.7294,-0.7374,-0.7415,-0.7497,-0.8285,-0.9361,-1.0702,-1.2804,-1.4819,-1.6445,-1.7795,-1.8622,-1.8724,-1.9324,-1.9521,-1.9105,-1.9499,-2.0158,-2.1131,-2.2523,-2.4013,-2.5565,-2.5907,-2.6749,-2.8158,-2.8158,-2.832,-2.8611,-2.8611,-2.8859,-2.9248,-2.8806,-2.8876,-2.9232,-2.8811,-2.8433,-2.8093,-2.7311,-2.6073,-2.458,-2.3553,-2.2852,-2.2275,-2.1206,-2.0432,-1.9853,-1.9326,0.0,0.0,0.0,0.0,0.0,0.0,0.0,0.0,0.0,0.0,0.0,0.0,0.0,0.0,0.0,0.0,0.0,0.0,0.0,0.0,0.0,0.0,0.0,0.0,-3.324,-3.4891,-3.5208,-3.6206,-3.735,-3.8526,-3.9315,-3.9928,-4.0359,-4.0647,-4.111,-4.1794,-4.1844,-4.2137,-4.275,-4.3431,-4.41,-4.4756,-4.6176,-4.7059,-4.7361,-4.8418,-4.8923,-4.8941,-4.9179,-4.9293,-4.9293,-4.9293,-4.9293,-4.9293,-4.9293,-4.9067,-4.8657,-4.8657,-4.8193,0.0,0.0,0.0,0.0,0.0,-4.5084,-4.5049,-0.6556,-0.6757,-0.6936,-0.7075,-0.7251,-0.7398,-0.748,-0.8576,-0.9877,-1.1214,-1.3603,-1.5675,-1.6951,-1.8154,-1.8695,-1.8245,-1.9043,-1.9278,-1.8576,-2.0353,-2.1762,-2.2537,-2.3882,-2.5001,-2.5824,-2.6555,-2.7575,-2.8924,-2.8924,-2.9264,-2.9896,-2.9896,-2.9929,-3.001,-3.001,-3.0058,-3.0139,-3.0139,-2.9718,-2.9032,-2.9032,-2.8233,-2.6858,-2.5535,-2.5259,-2.5378,-2.3902,-2.312,-2.2542,-2.1152,0.0,0.0,0.0,0.0,0.0,0.0,0.0,0.0,0.0,0.0,0.0,0.0,0.0,0.0,0.0,0.0,0.0,0.0,0.0,0.0,0.0,0.0,0.0,0.0,-3.6004,-3.7516,-3.8344,-3.846,-3.8692,-3.9348,-4.0078,-4.0558,-4.0641,-4.1177,-4.1844,-4.2671,-4.2738,-4.3363,-4.4738,0.0,0.0,0.0,0.0,-4.7578,-4.7734,-4.8373,-4.8696,-4.8791,-4.9305,-4.9561,-4.9561,-4.9561,-4.9561,-4.9561,-4.9561,-4.9507,-4.9436,-4.9436,-4.8996,-4.8252,-4.7359,-4.6998,-4.6908,-4.6195,-4.5945,-4.5838,-0.653,-0.6757,-0.6936,-0.7075,-0.7131,-0.7241,-0.7457,-0.8576,-0.9857,-1.1147,-1.3172,-1.4949,-1.6187,-1.7062,-1.7737,-1.8154,-1.8631,-1.9371,-2.0538,-2.1592,-2.2598,-2.3576,-2.4751,-2.6005,-2.7284,-2.8012,-2.8827,-2.9686,-2.9686,-2.9751,-2.9896,-2.9896,-3.0204,-3.071,-3.071,-3.1056,-3.1591,-3.1591,-3.117,-3.0483,-3.0483,-2.9372,-2.7626,-2.6727,-2.6194,-2.5787,-2.4893,-2.4199,-2.371,-2.3622,-2.3059,-2.233,-2.1923,0.0,0.0,0.0,0.0,0.0,0.0,0.0,0.0,0.0,0.0,0.0,0.0,0.0,0.0,0.0,0.0,0.0,0.0,0.0,0.0,-3.5761,-3.7153,-3.846,-3.9785,-3.9951,-4.0044,-4.0177,-4.0779,-4.1442,-4.2054,-4.2191,-4.285,-4.4158,-4.4257,-4.4655,-4.5533,-4.5706,-4.6046,-4.6688,-4.7365,-4.8209,-4.9178,-4.9933,-5.0576,-5.1058,0.0,0.0,-5.1244,-5.1244,-5.1244,-5.1244,-5.1244,-5.0869,-5.0281,-5.0281,-4.9817,-4.896,-4.7551,-4.6998,-4.6962,-4.6819,-4.6766,-4.6748,-0.6369,-0.6612,-0.6807,-0.6969,-0.705,-0.7171,-0.742,-0.8553,-0.9733,-1.0674,-1.2582,-1.4182,-1.5048,-1.5802,-1.624,-1.624,-1.6823,0.0,0.0,-2.1582,-2.2632,-2.386,-2.5359,-2.6652,-2.7688,-2.8417,-2.9167,-2.9896,-2.9896,-2.9896,-2.9896,-3.0253,-3.0587,-3.092,-3.1292,-3.1672,-3.2012,-3.2012,-3.1801,-3.1422,-3.105,-3.0295,-2.9312,-2.8327,-2.764,-2.709,-2.6363,-2.5671,-2.5061,-2.4829,-2.4244,-2.359,-2.3519,-2.2439,-2.1151,0.0,0.0,0.0,0.0,0.0,0.0,0.0,0.0,0.0,0.0,0.0,0.0,0.0,0.0,-3.1253,-3.2551,0.0,-3.6038,-3.8112,-3.8923,-3.9669,-4.0746,-4.121,-4.1309,-4.0945,-4.1524,-4.2092,-4.2456,-4.3181,-4.391,-4.4622,-4.5036,-4.5566,-4.6311,-4.6344,-4.6668,-4.7331,-4.773,-4.8192,-4.8792,-4.9521,-5.0011,-5.0321,-5.0946,-5.1245,-5.1245,-5.1546,-5.169,-5.169,-5.169,-5.1458,-5.1066,-5.0673,-5.0263,-4.9775,-4.8621,-4.7925,-4.7556,-4.7163,-4.6998,-4.6998,-0.6216,-0.643,-0.6612,-0.6866,-0.6985,-0.7139,-0.7368,-0.8422,-0.947,-1.02,-1.1877,-1.3268,-1.3953,-1.4573,-1.4805,-1.4515,-1.5477,0.0,0.0,-2.1253,-2.2519,-2.3915,-2.5771,-2.7018,-2.7529,-2.8505,-2.9254,-2.9732,-2.9836,-2.9961,-3.0107,-3.0645,-3.105,-3.1341,-3.1963,-3.2287,-3.2417,-3.2417,-3.2336,-3.2158,-3.1406,-3.1056,-3.0849,-2.9727,-2.9,-2.845,-2.7706,-2.6914,-2.6103,-2.5507,-2.4829,-2.4265,-2.4475,-2.3731,-2.2786,-2.2844,-2.1792,0.0,0.0,0.0,0.0,0.0,0.0,0.0,0.0,0.0,-2.9663,-3.1288,-3.2734,-3.4121,-3.5589,-3.6645,-3.7962,-4.0066,-4.0525,-4.0829,-4.1524,-4.2109,-4.2324,-4.1877,-4.234,-4.2754,-4.2916,-4.3992,-4.4804,-4.5102,-4.5665,-4.6328,-4.7073,-4.7106,-4.7388,-4.7984,-4.8001,-4.8066,-4.8163,-4.8776,-4.9158,-4.9278,-5.0439,-5.0964,-5.1008,-5.147,-5.169,-5.169,-5.169,-5.169,-5.1637,-5.0994,-5.0727,-5.0655,-4.9846,-4.9174,-4.8573,-4.7907,-4.7568,-4.7444,-0.6227,-0.6313,-0.6453,-0.6828,-0.6916,-0.7026,-0.7353,-0.8027,-0.8943,-1.0133,-1.1069,-1.2077,-1.3277,-1.353,-1.4035,-1.511,-1.6648,0.0,-1.9996,-2.139,-2.2771,-2.4194,-2.6047,-2.7031,-2.6994,-2.8823,-2.9585,-2.9182,-2.9665,-3.0204,-3.0791,-3.0856,-3.1584,-3.2854,-3.2935,-3.3307,-3.3874,-3.3874,-3.3518,-3.2902,-3.2174,-3.1625,-3.1182,-3.0385,-2.9636,-2.8936,-2.8197,-2.7177,-2.6185,-2.6103,-2.559,-2.4978,-2.5012,-2.4912,-2.4647,-2.4032,0.0,-2.1919,-2.3203,-2.463,-2.6239,-2.8213,-2.9075,-3.0572,0.0,0.0,-3.4035,-3.5963,-3.7004,-3.7651,-3.7833,-3.901,-4.0066,-4.0343,-4.0895,-4.1529,-4.2258,-4.244,-4.2704,-4.3284,-4.3416,-4.3714,-4.439,-4.4589,-4.5235,-4.656,-4.6725,-4.7106,-4.7835,-4.7885,-4.7918,-4.8001,-4.8001,-4.826,-4.8807,-4.9411,-5.0011,-5.0595,-5.1271,-5.1615,-5.1615,-5.1665,-5.169,-5.169,-5.169,-5.169,-5.169,-5.1601,-5.1565,-5.1476,-5.0691,-5.0334,-5.0227,-5.0138,-4.9674,-4.9026,-0.6216,-0.6295,-0.6383,-0.6672,-0.6824,-0.6969,-0.7195,-0.7896,-0.8721,-0.9597,-1.0394,-1.1208,-1.2094,-1.2241,-1.2812,-1.4078,-1.5506,-1.7252,-1.9396,-2.1028,-2.25,-2.3828,-2.5946,-2.7068,-2.701,-2.8919,-2.9643,-2.9097,-2.9319,-2.9569,-2.9872,-3.068,-3.1566,-3.2498,-3.3307,-3.3841,-3.4101,-3.4101,-3.3939,-3.3582,-3.2449,-3.1864,-3.1541,-2.9979,-2.9004,-2.8371,-2.7786,-2.6991,0.0,0.0,-2.4713,-2.4464,-2.4464,-2.4166,-2.3835,-2.3967,-2.3868,0.0,-2.703,-2.8221,0.0,0.0,-3.2392,-3.3866,-3.5453,-3.5841,-3.6238,-3.7492,-3.8328,-3.8825,-3.8825,-3.9696,-4.0542,0.0,-4.1591,-4.2291,-4.3035,-4.2754,-4.2605,-4.292,-4.2953,-4.3429,-4.4572,-4.5086,-4.5765,-4.6825,-4.7305,-4.7669,-4.7984,-4.8001,-4.8001,-4.8001,-4.8001,-4.8115,-4.8354,-4.8623,-4.8886,-4.9178,-4.978,-5.0248,-5.0597,-5.1017,-5.1367,-5.169,-5.169,-5.169,-5.169,-5.169,-5.169,-5.1672,-5.1333,-5.1191,-5.1083,-5.0156,-4.9578,-4.9293,-0.6224,-0.6351,-0.643,-0.6573,-0.6799,-0.6985,-0.7083,-0.7681,-0.8404,-0.919,-0.9824,-1.05,-1.1335,-1.1466,-1.2033,-1.3394,-1.4615,-1.6346,-1.8808,-2.0399,-2.1883,-2.3251,-2.533,-2.6585,-2.6859,-2.8728,-2.9493,-2.9097,-2.9097,-2.9192,-2.9397,-3.0305,-3.101,-3.1606,-3.2622,-3.3086,-3.3086,-3.3086,-3.3162,-3.319,-3.1983,-3.1465,-3.1248,-2.9312,-2.8119,-2.7394,-2.7036,-2.6333,0.0,0.0,-2.3868,-2.3735,-2.3934,-2.3636,-2.3421,-2.4564,-2.5706,-2.7081,-2.9297,0.0,0.0,-3.3243,-3.5114,-3.6522,-3.6191,-3.6936,-3.7864,-3.8394,-3.8924,-3.9299,-3.9299,-3.9912,-4.0641,-4.1293,-4.2009,-4.2754,-4.3499,-4.2969,-4.2572,-4.2771,-4.2605,-4.3081,-4.4556,-4.5168,-4.5881,-4.6825,-4.7388,-4.7785,-4.7984,-4.8001,-4.81,-4.8299,-4.8299,-4.8415,-4.8597,-4.8778,-4.8876,-4.8859,-4.9463,-5.0086,-5.0703,-5.1179,-5.1634,-5.2011,-5.1797,-5.169,-5.169,-5.169,-5.169,-5.169,-5.169,-5.169,-5.1547,-5.0388,-4.9953,-4.9953,-0.6224,-0.6457,-0.659,-0.6599,-0.6874,-0.7091,-0.7099,-0.7288,-0.7881,-0.9133,-0.9375,-0.9965,-1.1347,-1.1489,-1.2115,-1.3658,-1.47,-1.6252,-1.8478,-1.9581,-2.089,-2.2568,-2.4003,-2.5272,-2.6301,-2.8166,-2.9136,-2.9097,-2.9097,-2.9429,-3.0062,-2.9641,-2.9805,-3.0464,-3.0495,-3.051,-3.051,-3.051,-3.0807,-3.1209,-3.0449,-3.0117,-2.9897,-2.8539,-2.7213,-2.604,-2.5967,0.0,0.0,-2.4017,-2.352,-2.3056,-2.3768,-2.3984,0.0,-2.6553,-2.8688,0.0,0.0,0.0,-3.4038,-3.5528,-3.7036,-3.8328,-3.9017,-3.9199,-3.9232,-3.9265,-3.9282,-3.9299,-3.9299,-3.9912,-4.0641,-4.1293,-4.2009,-4.2754,-4.3499,-4.2969,-4.2754,-4.3466,-4.2936,-4.3081,0.0,-4.4735,-4.5317,-4.6792,-4.6924,-4.7255,-4.7968,-4.8001,-4.8332,-4.9044,-4.9077,-4.9425,-5.0137,-5.0725,-5.1017,-5.1017,-5.1617,-5.2268,-5.2906,-5.2865,-5.285,-5.2822,-5.2029,-5.169,-5.169,-5.169,-5.169,-5.169,-5.169,-5.169,-5.169,-5.1637,-5.1619,-5.1619,-0.6224,-0.6457,-0.6599,-0.6599,-0.6883,-0.7099,-0.7099,-0.7274,-0.7853,-0.9133,-1.0134,0.0,0.0,0.0,0.0,0.0,-1.3946,-1.5503,-1.7541,-1.8779,-2.0079,-2.1477,-2.3135,-2.4219,-2.4561,-2.6361,-2.7532,-2.7976,-2.7618,-2.7941,-2.8909,-2.8864,-2.919,-2.9749,-3.0197,-3.0592,-3.0936,-3.0936,-3.1249,-3.1646,-3.044,-2.9942,-2.9783,-2.8359,-2.6733,-2.5211,0.0,0.0,0.0,-2.2708,-2.2377,-2.221,-2.246,0.0,0.0,-2.6354,0.0,-3.0191,0.0,0.0,-3.5611,-3.7102,-3.8195,-3.9,-3.9249,-3.9299,-3.9299,-3.9299,-3.8907,-3.8709,-3.9216,-3.9497,-4.0061,-4.1226,-4.2009,-4.2754,-4.3499,-4.3383,-4.3135,-4.2886,-4.3069,0.0,0.0,0.0,0.0,-4.6792,-4.6891,-4.7438,-4.8663,-4.873,-4.9077,-4.9823,-4.9839,-4.9955,-5.022,-5.0391,-5.0493,-5.0493,-5.1117,-5.1529,-5.1761,-5.2588,-5.2948,-5.2941,-5.2641,-5.2501,-5.2465,-5.1904,-5.169,-5.169,-5.169,-5.169,-5.169,-5.169,-5.169,-5.169,-0.6224,-0.6526,-0.6698,-0.6698,-0.6977,0.0,0.0,0.0,0.0,0.0,0.0,0.0,0.0,0.0,0.0,0.0,0.0,-1.4965,-1.6562,-1.776,-1.8985,-2.0262,-2.1433,-2.247,-2.3357,-2.4508,-2.5505,-2.6368,-2.5819,-2.6059,-2.7016,-2.695,-2.723,-2.7794,-2.8233,-2.8631,-2.8953,-2.9109,-2.9469,-2.9851,-2.871,-2.8292,-2.819,-2.6618,-2.5181,0.0,0.0,0.0,-2.2427,-2.1961,-2.1812,0.0,0.0,0.0,0.0,0.0,-2.9433,-3.1603,-3.4502,-3.5827,-3.6754,-3.8228,-3.8941,-3.9299,-3.9299,-3.9299,-3.9232,-3.8941,-3.8328,-3.7963,-3.8427,-3.8304,-3.8768,-4.0729,-4.1657,-4.2568,-4.3827,-4.3992,-4.3926,-4.3711,-4.3786,-4.3836,0.0,0.0,0.0,-4.6427,-4.6742,-4.7537,-4.9028,-4.911,-4.9558,-5.0568,-5.0585,-5.0717,-5.0982,-5.0982,-5.0982,-5.0982,-5.1614,-5.1912,-5.1928,-5.2723,-5.3049,-5.3044,-5.272,-5.2427,-5.2164,-5.1891,-5.1475,-5.1035,-5.1297,-5.1228,-5.1008,-5.1008,-5.1008,-5.1079,-0.6224,-0.6625,-0.6908,0.0,0.0,0.0,0.0,0.0,0.0,0.0,0.0,0.0,0.0,0.0,0.0,0.0,0.0,0.0,-1.5563,-1.6547,0.0,-1.8941,-1.9072,-2.0196,-2.2565,-2.2671,-2.3279,-2.4405,-2.3885,-2.3959,-2.4649,-2.4112,-2.4152,-2.4723,-2.4776,-2.4815,-2.4849,-2.5245,-2.5727,-2.6163,-2.5506,-2.535,-2.5312,-2.3679,0.0,0.0,0.0,0.0,0.0,0.0,0.0,0.0,0.0,0.0,0.0,0.0,0.0,-3.422,-3.5678,-3.6622,-3.7549,-3.895,-3.9299,-3.9299,-3.9299,-3.9265,-3.9033,-3.8261,-3.7483,-3.6936,-3.6887,0.0,-3.6903,-3.9829,-4.0912,-4.2142,-4.4373,-4.4721,-4.5003,0.0,0.0,0.0,0.0,0.0,0.0,-4.5947,0.0,-4.762,-4.9144,-4.9226,-4.9872,-5.1315,-5.1365,-5.1696,-5.2373,-5.2409,-5.2409,-5.2426,-5.3042,-5.3365,-5.3365,-5.3271,-5.3211,-5.3239,-5.2433,-5.1752,-5.1151,-5.1721,-5.1165,-5.0017,-5.0567,-5.0394,-4.985,-4.9804,-4.9804,-4.9976,0.0,0.0,0.0,0.0,0.0,0.0,0.0,0.0,0.0,0.0,0.0,0.0,0.0,0.0,0.0,0.0,0.0,0.0,-1.457,-1.5357,0.0,0.0,-1.8593,-1.9409,-2.0025,-2.0979,-2.2055,-2.3229,-2.2717,-2.2957,-2.3951,-2.3414,-2.3244,-2.338,-2.3403,-2.3632,-2.4008,-2.4103,-2.4474,-2.4922,0.0,-2.4186,-2.3959,0.0,0.0,0.0,0.0,0.0,0.0,0.0,0.0,0.0,0.0,0.0,-3.0439,0.0,0.0,-3.5644,-3.6572,-3.7748,-3.8834,-3.9216,-3.9299,-3.9299,-3.9299,-3.8858,-3.8129,-3.6837,-3.5545,-3.4468,-3.3905,0.0,0.0,-3.8377,-4.0155,0.0,-4.4373,-4.4952,0.0,-4.5529,0.0,-4.6123,-4.6385,-4.6977,0.0,0.0,-4.7918,-4.8597,-5.0618,-5.0717,-5.1148,-5.2111,-5.2127,-5.2227,-5.2409,-5.2409,-5.2409,-5.2409,-5.257,-5.2659,-5.2659,-5.3129,-5.3637,-5.4094,-5.3774,-5.3822,-5.4024,-5.3052,-5.2422,-5.2015,-5.1139,-5.0694,-5.0495,-4.9993,-4.9804,-4.9833,0.0,0.0,0.0,0.0,0.0,0.0,0.0,0.0,0.0,0.0,0.0,0.0,0.0,0.0,0.0,0.0,0.0,0.0,0.0,-1.4515,-1.5428,-1.6721,-1.72,-1.7693,-1.8259,-1.897,-1.966,-2.0351,0.0,0.0,-2.1287,-2.1243,-2.1388,-2.1678,-2.1953,-2.2228,-2.2532,-2.2721,0.0,0.0,0.0,0.0,0.0,0.0,0.0,0.0,0.0,0.0,0.0,0.0,0.0,-2.882,-2.9566,-3.1023,-3.2729,-3.4203,0.0,-3.6721,-3.7781,-3.8685,-3.9299,-3.9299,-3.9299,-3.905,-3.8063,-3.7533,-3.6555,-3.4104,-3.2928,0.0,-3.1011,-3.2536,0.0,0.0,0.0,0.0,-4.4373,-4.538,-4.6026,0.0,-4.698,0.0,-4.7423,-4.8198,-4.9023,0.0,-4.9274,-4.9641,-5.1232,-5.1315,-5.1647,-5.2393,-5.2409,-5.2409,-5.2409,-5.2409,-5.2409,-5.2409,-5.2409,-5.2409,-5.2409,-5.2799,-5.3162,-5.3516,0.0,-5.3901,-5.3906,-5.3594,-5.2916,-5.1984,-5.1186,-5.0662,-5.0254,-4.9338,-4.9188,-4.9381,0.0,0.0,0.0,0.0,0.0,0.0,0.0,0.0,0.0,0.0,0.0,0.0,0.0,0.0,0.0,0.0,0.0,0.0,0.0,0.0,-1.4834,-1.6023,-1.566,-1.5936,-1.7038,-1.7139,-1.72,0.0,0.0,0.0,0.0,0.0,0.0,0.0,0.0,0.0,0.0,0.0,0.0,0.0,0.0,0.0,0.0,0.0,0.0,0.0,0.0,0.0,0.0,0.0,-2.9301,-3.1064,-3.2006,-3.37,-3.5611,-3.6986,-3.74,-3.7665,-3.895,-3.9299,-3.9299,-3.9299,-3.9232,-3.8602,-3.6473,-3.5777,-3.4551,-3.0952,0.0,-2.9533,-2.821,-3.0332,-3.2796,-3.4485,0.0,-4.1827,-4.431,-4.5577,-4.6634,-4.7654,-4.8041,-4.836,-4.8729,-4.9354,-5.0042,-5.0779,-5.0589,-5.0697,-5.1361,-5.1429,-5.1746,-5.2393,-5.2409,-5.2409,-5.2409,-5.2409,-5.2409,-5.2409,-5.2409,-5.2409,-5.2409,-5.2409,-5.2445,-5.257,-5.3145,-5.3077,-5.2646,-5.3653,-5.2915,-5.1127,-5.0934,-5.0376,-4.9541,-4.8435,-4.8339,-4.87,0.0,0.0,0.0,0.0,0.0,0.0,0.0,0.0,0.0,0.0,-1.1756,-1.1132,0.0,0.0,0.0,0.0,0.0,0.0,0.0,0.0,0.0,-1.5414,-1.582,-1.6155,-1.6372,0.0,0.0,0.0,0.0,0.0,0.0,0.0,0.0,0.0,0.0,0.0,0.0,0.0,0.0,0.0,0.0,0.0,0.0,0.0,0.0,0.0,0.0,0.0,0.0,0.0,-3.0363,-3.3396,-3.5358,-3.6736,-3.7798,-3.8642,-3.8917,-3.8984,-3.9232,-3.9299,-3.9299,-3.9299,-3.8825,-3.798,-3.6373,-3.4584,0.0,0.0,0.0,-2.6682,-2.5839,-2.8042,0.0,-3.3541,0.0,0.0,0.0,0.0,-4.5277,0.0,0.0,0.0,0.0,0.0,0.0,0.0,0.0,-5.1648,-5.1941,-5.212,-5.2293,-5.2409,-5.2409,-5.2409,-5.2409,-5.2409,-5.2409,-5.2409,-5.2409,-5.2409,-5.2409,-5.2409,-5.2694,-5.323,-5.3365,0.0,-5.4006,-5.3573,-5.281,-5.1808,-5.0642,-4.9729,-4.8975,-4.8243,-4.8066,-4.8147,0.0,0.0,0.0,0.0,0.0,0.0,0.0,-1.1291,-1.2531,-1.3769,-1.3389,-1.2812,-1.2203,-1.1589,0.0,0.0,0.0,0.0,0.0,0.0,0.0,0.0,0.0,0.0,0.0,0.0,0.0,0.0,0.0,0.0,0.0,0.0,0.0,0.0,0.0,0.0,0.0,0.0,0.0,0.0,0.0,0.0,0.0,0.0,0.0,0.0,0.0,0.0,0.0,0.0,-2.9001,-3.2457,-3.5497,-3.725,-3.8278,-3.8626,-3.9017,-3.9299,-3.9299,-3.9299,-3.9299,-3.9299,-3.8742,-3.7408,-3.4419,0.0,0.0,0.0,0.0,-2.4713,-2.3586,0.0,0.0,0.0,0.0,0.0,0.0,0.0,0.0,0.0,0.0,0.0,0.0,0.0,0.0,0.0,0.0,-5.1904,-5.2102,-5.2283,-5.2409,-5.2409,-5.2409,-5.2409,-5.2409,-5.2409,-5.2409,-5.2409,-5.2409,-5.2409,-5.2409,-5.2409,-5.257,-5.2886,-5.3264,-5.3566,-5.3893,-5.3837,-5.3149,-5.2002,-5.1012,-5.0099,-4.9261,-4.8339,-4.8195,-4.8418,0.0,0.0,0.0,0.0,0.0,0.0,0.0,-1.2221,-1.3628,-1.4836,-1.4878,-1.4443,-1.3488,-1.2301,-1.1523,0.0,0.0,0.0,0.0,0.0,0.0,0.0,0.0,0.0,0.0,0.0,0.0,0.0,0.0,0.0,0.0,0.0,0.0,0.0,0.0,0.0,0.0,0.0,0.0,0.0,0.0,0.0,0.0,0.0,0.0,0.0,0.0,0.0,0.0,0.0,-2.6889,-2.984,-3.3286,-3.5926,-3.7765,-3.793,-3.8493,-3.91,-3.9265,-3.9299,-3.9299,-3.9299,-3.851,-3.663,-3.2541,-3.0671,0.0,0.0,-2.3238,-2.3222,-2.2212,0.0,0.0,0.0,0.0,0.0,0.0,0.0,0.0,0.0,0.0,0.0,0.0,0.0,0.0,0.0,0.0,0.0,-5.2102,-5.2247,-5.2354,-5.2409,-5.2409,-5.2409,-5.2409,-5.2409,-5.2409,-5.2409,-5.2409,-5.2409,-5.2409,-5.2409,-5.2409,-5.2445,-5.2956,-5.3213,-5.323,-5.3764,-5.3053,-5.1654,-5.1182,-5.0345,-4.9308,-4.8339,-4.8307,-4.8637,0.0,0.0,0.0,0.0,0.0,0.0,0.0,-1.2292,-1.4246,-1.5452,-1.5129,-1.4766,-1.4654,-1.3558,-1.2487,0.0,0.0,0.0,0.0,0.0,0.0,0.0,0.0,0.0,0.0,0.0,0.0,0.0,0.0,0.0,0.0,0.0,0.0,0.0,0.0,0.0,0.0,0.0,0.0,0.0,0.0,0.0,0.0,0.0,0.0,0.0,0.0,0.0,0.0,0.0,0.0,-2.5931,-2.8357,-3.2365,-3.634,-3.7003,0.0,0.0,-3.9133,-3.9299,-3.9299,-3.9299,-3.7731,-3.5396,-3.2293,0.0,0.0,-2.3537,-2.241,-2.2177,-2.2692,-2.3669,0.0,0.0,0.0,0.0,0.0,0.0,0.0,0.0,0.0,0.0,0.0,0.0,0.0,0.0,0.0,0.0,-5.2066,-5.2102,-5.2211,-5.2373,-5.2409,-5.2409,-5.2409,-5.2409,-5.2409,-5.2409,-5.2409,-5.2409,-5.2409,-5.2409,-5.2409,-5.2409,-5.248,-5.248,0.0,-5.257,-5.1705,-5.0357,-5.0289,-4.9427,-4.8147,-4.8033,-4.8033,-4.8082,0.0,0.0,0.0,0.0,0.0,0.0,-1.0588,-1.2235,-1.3924,-1.5494,-1.5494,-1.5216,-1.4897,-1.411,-1.307,0.0,0.0,0.0,0.0,0.0,0.0,0.0,0.0,0.0,0.0,0.0,0.0,0.0,0.0,0.0,0.0,0.0,0.0,0.0,0.0,0.0,0.0,0.0,0.0,0.0,0.0,0.0,0.0,0.0,0.0,0.0,0.0,0.0,0.0,0.0,0.0,0.0,-2.5457,-2.8061,0.0,0.0,-3.5595,-3.7135,-3.8311,-3.8941,-3.9299,-3.9299,-3.7658,-3.5114,-3.1714,0.0,-2.6337,-2.2939,-2.2011,-2.1895,-2.2193,-2.2841,-2.41,0.0,-2.7637,-2.991,0.0,0.0,0.0,0.0,0.0,0.0,0.0,0.0,0.0,0.0,0.0,0.0,-5.1721,-5.1957,-5.2139,-5.2211,-5.2354,-5.2409,-5.2409,-5.2409,-5.2409,-5.2409,-5.2409,-5.2409,-5.2409,-5.2409,-5.2409,-5.2409,-5.2409,-5.2409,0.0,-5.1928,-5.1115,-5.0171,-4.9723,-4.8912,-4.8001,-4.8001,-4.8001,-4.8001,0.0,0.0,0.0,0.0,0.0,-0.9415,-1.0658,-1.1898,-1.3305,-1.4963,-1.5237,-1.5115,-1.4675,-1.3984,-1.3104,-1.1994,0.0,0.0,0.0,0.0,0.0,0.0,0.0,0.0,0.0,0.0,0.0,0.0,0.0,0.0,0.0,0.0,0.0,0.0,0.0,0.0,0.0,0.0,0.0,0.0,0.0,0.0,0.0,0.0,0.0,0.0,0.0,0.0,0.0,0.0,0.0,0.0,0.0,0.0,0.0,0.0,-3.3458,-3.5446,-3.7367,-3.8411,-3.8984,-3.8984,-3.7301,-3.4717,0.0,0.0,-2.5989,-2.2525,-2.1812,-2.1812,-2.1812,-2.2212,-2.3123,0.0,-2.5834,-2.7951,-3.239,0.0,0.0,0.0,0.0,0.0,0.0,0.0,0.0,0.0,0.0,0.0,-5.1387,-5.1737,-5.1993,-5.2102,-5.2318,-5.2409,-5.2409,-5.2409,-5.2409,-5.2409,-5.2409,-5.2409,-5.2409,-5.2409,-5.2409,-5.2409,-5.2409,0.0,0.0,-5.1531,-5.0734,-4.9839,-4.9309,-4.8647,-4.8001,-4.8001,-4.8001,-4.8001,0.0,0.0,0.0,0.0,0.0,0.0,-1.001,-1.1237,-1.2462,-1.3755,-1.4141,-1.4241,-1.4026,-1.3114,-1.2528,-1.2594,0.0,0.0,0.0,0.0,0.0,0.0,0.0,0.0,0.0,0.0,-1.6852,-1.72,-1.7835,-1.8187,0.0,0.0,0.0,0.0,0.0,0.0,0.0,0.0,0.0,0.0,0.0,0.0,0.0,0.0,0.0,0.0,0.0,0.0,0.0,0.0,0.0,0.0,0.0,0.0,-2.3934,0.0,-3.157,-3.3359,-3.6307,-3.7665,-3.8202,-3.8202,-3.6555,-3.3955,0.0,-2.7741,-2.5375,-2.241,-2.1812,-2.1812,-2.1812,-2.1812,-2.2526,-2.4746,-2.612,-2.8715,-3.3952,0.0,0.0,0.0,0.0,0.0,0.0,0.0,0.0,0.0,0.0,0.0,-5.1183,-5.1387,-5.17,-5.2102,-5.2318,-5.2409,-5.2409,-5.2409,-5.2409,-5.2409,-5.2409,-5.2409,-5.2409,-5.2409,-5.2409,-5.2409,0.0,0.0,0.0,-5.1315,-5.0419,-4.9127,-4.911,-4.8647,-4.8001,-4.8001,-4.8001,-4.8001,0.0,0.0,0.0,0.0,0.0,0.0,0.0,-1.0264,-1.1209,-1.2434,-1.2682,-1.2891,-1.3262,-1.2621,-1.2224,-1.2373,0.0,0.0,0.0,0.0,0.0,0.0,0.0,0.0,0.0,-1.6001,-1.6629,-1.72,-1.8101,-1.8629,-1.8811,-1.8632,0.0,0.0,0.0,0.0,0.0,0.0,0.0,0.0,0.0,0.0,0.0,0.0,0.0,0.0,0.0,0.0,0.0,0.0,0.0,0.0,0.0,0.0,0.0,-2.5292,-2.781,-3.0066,-3.147,-3.274,-3.3568,-3.3055,-3.2012,-3.046,-2.7808,-2.6301,-2.4762,-2.2294,-2.1812,-2.1812,-2.1812,-2.1768,-2.2811,-2.6071,-2.6761,0.0,0.0,0.0,0.0,0.0,0.0,0.0,0.0,0.0,0.0,0.0,0.0,0.0,-5.1183,-5.1387,-5.1536,-5.17,-5.1904,-5.2013,-5.2013,-5.2122,-5.2211,-5.2211,-5.2338,-5.2409,-5.2409,-5.2409,-5.2409,0.0,0.0,0.0,0.0,-5.0204,-4.9525,-4.9061,-4.8547,-4.8216,-4.8001,-4.8001,-4.8001,-4.8001,0.0,0.0,0.0,0.0,0.0,0.0,0.0,-0.9236,-0.9915,-1.1167,-1.1417,-1.1777,-1.2608,-1.219,-1.1954,-1.2248,0.0,0.0,0.0,0.0,0.0,0.0,0.0,0.0,-1.5463,-1.594,-1.6532,-1.72,-1.8223,-1.8914,-1.9328,-1.9152,-1.8616,-1.7726,0.0,0.0,0.0,0.0,0.0,0.0,0.0,0.0,-1.9129,0.0,0.0,0.0,0.0,0.0,0.0,0.0,0.0,0.0,0.0,0.0,0.0,0.0,-2.4663,-2.6718,0.0,-2.988,-3.0654,-3.0191,-2.9549,-2.8456,-2.6286,-2.5209,-2.4149,-2.221,-2.1812,-2.1812,-2.1812,-2.1738,-2.2664,-2.5574,-2.6512,0.0,0.0,0.0,0.0,0.0,0.0,0.0,0.0,0.0,0.0,0.0,0.0,0.0,-5.1183,-5.1036,-5.0981,-5.0981,-5.15,-5.1778,-5.1778,-5.1941,-5.1977,-5.1977,-5.1842,-5.1746,-5.1765,-5.1484,-5.1352,0.0,0.0,0.0,0.0,-4.9407,-4.8911,-4.853,-4.815,-4.8001,-4.8001,-4.8001,-4.8001,-4.8001,0.0,0.0,0.0,0.0,0.0,0.0,0.0,0.0,-0.8748,-1.0024,-1.0422,-1.0969,-1.2025,-1.18,-1.173,-1.2111,0.0,0.0,0.0,0.0,0.0,0.0,0.0,0.0,-1.5667,-1.6062,-1.659,-1.72,-1.8285,-1.9099,-1.9708,-1.9747,-1.9386,-1.8661,-1.7714,-1.7052,0.0,0.0,0.0,0.0,0.0,-1.9171,0.0,0.0,0.0,0.0,0.0,0.0,0.0,0.0,0.0,0.0,0.0,0.0,0.0,0.0,0.0,0.0,0.0,-2.8423,-2.8917,-2.8867,-2.8423,-2.7464,-2.5342,-2.4381,0.0,-2.2079,-2.1812,-2.1862,-2.2011,-2.1886,-2.2368,-2.4232,0.0,0.0,0.0,0.0,0.0,0.0,0.0,0.0,0.0,0.0,0.0,0.0,0.0,0.0,-5.1021,-5.039,-5.0017,-5.0017,-5.1051,-5.1594,-5.1594,-5.1614,-5.1631,-5.1614,-5.0943,-5.0615,-5.0599,-4.9911,-4.9599,0.0,0.0,0.0,0.0,-4.886,-4.8481,-4.7704,-4.7919,-4.8001,-4.8001,-4.8001,-4.8001,-4.8001,0.0,0.0,0.0,0.0,0.0,0.0,0.0,0.0,0.0,0.0,-1.0257,-1.0595,-1.1413,-1.1379,-1.1373,0.0,0.0,0.0,0.0,0.0,0.0,0.0,0.0,0.0,-1.5388,-1.6434,-1.7038,-1.72,-1.8972,-1.981,-1.9711,-2.0273,-1.9871,-1.8678,-1.8181,-1.7349,0.0,0.0,0.0,0.0,-1.9752,-1.9914,0.0,0.0,0.0,0.0,-1.8608,-1.9262,0.0,0.0,0.0,0.0,0.0,0.0,0.0,0.0,-2.1928,-2.226,-2.3122,0.0,-2.4299,-2.3719,-2.3884,-2.3917,0.0,-2.2874,-2.2891,-2.1995,0.0,-2.2326,-2.4017,-2.3259,-2.3999,-2.8933,0.0,0.0,0.0,0.0,0.0,0.0,0.0,0.0,0.0,0.0,0.0,0.0,0.0,-4.9532,-4.9532,-4.937,-4.9273,-4.9273,-4.9507,-4.9677,-4.9677,-4.9805,-4.9877,-4.9877,-4.9856,-4.9845,-4.9845,-4.9681,-4.9599,0.0,0.0,0.0,-4.8469,-4.8165,-4.7902,-4.7704,-4.7919,-4.8001,-4.8001,-4.8001,-4.8001,-4.8001,0.0,0.0,0.0,0.0,0.0,0.0,0.0,0.0,0.0,0.0,0.0,0.0,0.0,0.0,0.0,0.0,0.0,0.0,0.0,0.0,0.0,0.0,0.0,-1.5703,-1.5711,-1.6385,-1.6978,-1.7467,-1.9039,-1.9933,-2.0204,-2.0412,-2.0125,-1.9355,-1.8527,-1.7682,0.0,0.0,0.0,0.0,-1.9639,0.0,0.0,0.0,0.0,0.0,-1.8005,-1.857,0.0,-2.0187,-2.078,-2.1306,0.0,0.0,0.0,0.0,-2.1812,-2.1812,-2.1812,-2.2576,-2.3305,-2.2907,-2.3106,-2.3288,-2.2891,0.0,0.0,0.0,0.0,-2.2331,-2.4216,-2.3779,0.0,0.0,0.0,0.0,0.0,0.0,0.0,0.0,0.0,0.0,0.0,0.0,0.0,0.0,0.0,-4.8994,-4.8994,-4.8702,-4.8524,-4.8524,-4.822,-4.8366,-4.8977,-4.9121,-4.9157,-4.9157,-4.8955,-4.8879,-4.8863,-4.8521,-4.8358,0.0,0.0,0.0,-4.7738,-4.7635,-4.7554,-4.7521,-4.7754,-4.7853,-4.7853,-4.7968,-4.8001,-4.8001,0.0,0.0,0.0,0.0,0.0,0.0,0.0,0.0,0.0,0.0,0.0,0.0,0.0,0.0,0.0,0.0,0.0,0.0,0.0,0.0,0.0,0.0,-1.5648,-1.5515,-1.6202,-1.6304,-1.6855,-1.7847,-1.8965,-1.9941,-2.0752,-2.0533,-2.0278,-1.9989,-1.8747,-1.7957,0.0,0.0,0.0,0.0,0.0,0.0,0.0,0.0,0.0,0.0,0.0,0.0,0.0,-1.9899,-2.0519,-2.0801,-2.1448,0.0,0.0,0.0,0.0,0.0,-2.2047,-2.3192,-2.4247,-2.3901,-2.3968,-2.41,-2.3984,0.0,0.0,0.0,0.0,0.0,0.0,-2.4577,0.0,0.0,0.0,0.0,0.0,0.0,0.0,0.0,0.0,0.0,0.0,0.0,0.0,0.0,0.0,-4.869,-4.869,-4.8155,-4.7831,-4.7831,-4.7216,-4.7459,-4.869,-4.869,-4.869,-4.8654,-4.8107,-4.7831,-4.7815,-4.7168,-4.6876,-4.6927,0.0,0.0,-4.6927,-4.7301,-4.7352,-4.7217,-4.7554,-4.7671,-4.7671,-4.7886,-4.7968,-4.7968,0.0,0.0,0.0,0.0,0.0,0.0,0.0,0.0,0.0,0.0,0.0,0.0,0.0,0.0,0.0,0.0,0.0,0.0,0.0,0.0,0.0,-1.5808,-1.5691,-1.5802,-1.6195,-1.677,-1.7423,-1.8144,-1.967,-2.0482,-2.0647,-2.1211,-2.0699,-1.9335,-1.8773,-1.804,-1.7262,-1.827,0.0,-1.7408,0.0,0.0,0.0,0.0,0.0,0.0,0.0,0.0,0.0,-1.8741,-1.9677,-2.0718,-2.0834,0.0,0.0,0.0,0.0,0.0,-2.3177,-2.4598,-2.5343,-2.3523,-2.3885,-2.454,-2.3967,0.0,0.0,0.0,0.0,0.0,0.0,-2.7867,0.0,0.0,0.0,0.0,0.0,0.0,0.0,0.0,0.0,0.0,0.0,0.0,0.0,0.0,0.0,-4.7216,-4.7216,-4.7103,-4.7054,-4.7054,-4.6941,-4.6989,-4.7216,-4.7216,-4.7216,-4.7216,-4.7103,-4.7054,-4.7054,-4.6941,-4.6876,-4.6876,0.0,-4.6927,-4.6927,-4.7149,-4.7217,-4.7217,-4.7436,-4.7537,-4.7537,-4.7688,-4.7754,-4.7787,0.0,0.0,0.0,0.0,0.0,0.0,0.0,0.0,0.0,0.0,0.0,0.0,0.0,0.0,0.0,0.0,0.0,0.0,0.0,0.0,-1.5173,-1.6204,-1.6083,-1.6125,-1.6465,-1.6948,-1.7622,-1.846,-1.957,-2.0215,-2.0382,-2.0738,-2.0158,-1.8854,-1.8528,-1.8109,-1.7653,-1.7984,-1.8041,-1.7955,0.0,0.0,0.0,0.0,0.0,0.0,0.0,0.0,0.0,0.0,-1.9217,-2.0174,-2.0569,0.0,0.0,0.0,0.0,0.0,-2.2486,-2.3956,-2.5091,-2.4233,-2.5406,-2.6566,-2.5898,-2.5373,0.0,0.0,0.0,0.0,0.0,0.0,0.0,0.0,0.0,0.0,0.0,0.0,0.0,0.0,0.0,0.0,0.0,0.0,0.0,0.0,0.0,0.0,-4.6876,-4.6876,-4.6876,-4.6876,-4.6876,-4.6876,-4.6876,-4.6876,-4.6876,-4.6876,-4.6876,-4.6876,-4.6876,-4.6876,-4.6876,-4.6876,0.0,-4.6876,-4.6927,-4.6996,-4.703,-4.7064,-4.7251,-4.7335,-4.7369,-4.7537,-4.7654,-4.7704,0.0,0.0,0.0,0.0,0.0,0.0,0.0,0.0,0.0,0.0,0.0,0.0,0.0,0.0,0.0,0.0,0.0,0.0,0.0,-1.3771,-1.4687,-1.6084,-1.6162,-1.6438,-1.7032,-1.7303,-1.7893,-1.8793,-1.9534,-2.0134,-2.0559,-2.032,-1.9633,-1.8633,-1.8251,-1.7959,-1.7754,-1.77,-1.7857,-1.8157,0.0,0.0,0.0,0.0,0.0,0.0,0.0,0.0,0.0,0.0,0.0,0.0,0.0,0.0,0.0,-2.1812,-2.1738,-2.1745,-2.2091,-2.3241,-2.4491,-2.5084,-2.6538,-2.7852,-2.7821,-2.7088,0.0,0.0,0.0,0.0,0.0,0.0,0.0,0.0,0.0,0.0,0.0,0.0,0.0,0.0,0.0,0.0,0.0,0.0,0.0,0.0,0.0,0.0,-4.6876,-4.6876,-4.6876,-4.6876,-4.6876,-4.6876,-4.6876,-4.6876,-4.6876,-4.6876,-4.6876,-4.6876,-4.6876,-4.6876,-4.6876,-4.6876,-4.6876,-4.6876,-4.6876,-4.6876,-4.6876,-4.6927,-4.7064,-4.7149,-4.7217,-4.7369,-4.7521,-4.7638,0.0,0.0,0.0,0.0,0.0,0.0,0.0,0.0,0.0,0.0,0.0,0.0,0.0,0.0,0.0,0.0,0.0,0.0,0.0,-1.2977,-1.3706,-1.4427,-1.5526,-1.6739,-1.8059,-1.8114,-1.8452,-1.9066,-2.0053,-2.0889,-2.1555,-2.0638,-1.9698,-1.8752,-1.8043,-1.735,-1.6747,-1.7354,-1.7316,-1.6889,-1.7482,0.0,0.0,0.0,0.0,0.0,0.0,0.0,0.0,0.0,0.0,0.0,0.0,0.0,-2.1812,-2.1812,-2.1724,-2.1883,-2.3194,-2.3604,-2.4018,-2.5464,-2.6015,-2.6681,-2.8629,-2.7999,0.0,-2.9399,0.0,0.0,0.0,0.0,0.0,0.0,0.0,0.0,0.0,0.0,0.0,0.0,0.0,0.0,0.0,0.0,0.0,0.0,0.0,0.0,-4.6876,-4.6876,-4.6876,-4.6876,-4.6876,-4.6876,-4.6876,-4.6876,-4.6876,-4.6876,-4.6876,-4.6876,-4.6876,-4.6876,-4.6876,-4.6876,-4.6876,-4.6876,-4.6876,-4.6876,-4.6876,-4.6876,-4.6927,-4.703,-4.7217,-4.7217,-4.7369,-4.7504,0.0,0.0,0.0,0.0,0.0,0.0,0.0,0.0,0.0,0.0,0.0,0.0,0.0,0.0,0.0,0.0,0.0,0.0,0.0,-1.2955,-1.3833,-1.4877,-1.6121,-1.7033,-1.7577,-1.7998,-1.8618,-1.9457,-1.9856,-2.0177,-2.0449,-2.0066,-1.945,-1.8679,-1.8685,-1.8255,-1.7543,-1.7677,-1.7657,-1.7561,-1.7481,-1.7271,0.0,0.0,0.0,0.0,0.0,0.0,0.0,0.0,-1.8638,-1.9568,-1.9383,-2.0472,-2.1698,-2.1207,-2.1302,-2.1704,-2.2148,-2.3576,-2.505,-2.5686,-2.6662,0.0,0.0,-2.9575,-3.0374,-3.2272,-3.2901,0.0,0.0,0.0,0.0,0.0,0.0,0.0,0.0,0.0,0.0,0.0,0.0,0.0,0.0,0.0,0.0,0.0,0.0,0.0,-4.6876,-4.6876,-4.6876,-4.6876,-4.6876,-4.6876,-4.6876,-4.6876,-4.6876,-4.6876,-4.6876,-4.6876,-4.6876,-4.6876,-4.6876,-4.6876,-4.6876,-4.6876,-4.6876,-4.6876,-4.6876,-4.6876,-4.6876,-4.6961,-4.6996,-4.6996,-4.7149,-4.7319,0.0,0.0,0.0,0.0,0.0,0.0,0.0,0.0,0.0,0.0,0.0,0.0,0.0,0.0,0.0,0.0,0.0,0.0,-1.1945,-1.264,-1.3517,-1.4616,-1.5891,-1.6659,-1.688,-1.7751,-1.8548,-1.923,-1.9531,-1.9747,-1.9856,-1.9662,-1.9241,-1.8641,-1.8998,-1.8761,-1.8119,-1.7967,-1.7993,-1.8134,-1.7751,-1.7465,0.0,0.0,0.0,0.0,0.0,0.0,0.0,0.0,-1.8456,-1.925,-1.92,-2.0224,-2.14,-2.1048,-2.1328,-2.1745,-2.1811,-2.3167,-2.4823,-2.5917,0.0,0.0,-2.9837,-3.0734,-3.1868,-3.4171,-3.483,0.0,0.0,0.0,0.0,0.0,0.0,0.0,0.0,0.0,0.0,0.0,0.0,0.0,0.0,0.0,0.0,0.0,0.0,0.0,0.0,-4.6876,-4.6876,-4.6876,-4.6876,-4.6876,-4.6876,-4.6876,-4.6876,-4.6876,-4.6876,-4.6876,-4.6876,-4.6876,-4.6876,-4.6876,-4.6876,-4.6876,-4.6876,-4.6876,-4.6876,-4.6876,-4.6876,-4.6876,-4.6876,-4.6876,-4.6996,-4.7115,0.0,0.0,0.0,0.0,0.0,0.0,0.0,0.0,0.0,0.0,0.0,0.0,0.0,0.0,0.0,0.0,0.0,0.0,-1.1307,-1.187,-1.2537,-1.3273,-1.453,-1.5512,-1.6184,-1.7505,-1.8201,-1.8201,-1.9197,-1.9856,-2.0176,-1.9565,-1.9076,-1.8712,-1.878,-1.8589,-1.8192,-1.8147,-1.8182,-1.83,-1.83,-1.7942,-1.7494,0.0,0.0,0.0,0.0,0.0,0.0,0.0,-1.8493,-1.8754,-2.0207,-2.0685,-2.0837,-2.1493,-2.1827,-2.2119,-2.2645,-2.2468,-2.2917,0.0,0.0,0.0,-3.1337,-3.138,-3.1556,-3.4767,0.0,-3.6413,-3.6399,0.0,0.0,0.0,0.0,0.0,0.0,0.0,0.0,0.0,0.0,0.0,0.0,0.0,0.0,0.0,0.0,0.0,0.0,-4.686,-4.686,-4.686,-4.686,-4.686,-4.686,-4.686,-4.686,-4.686,-4.686,-4.6911,-4.6876,-4.6876,-4.6876,-4.6876,-4.6876,-4.6876,-4.6876,-4.6876,-4.6876,-4.6876,-4.6876,-4.6876,-4.6876,-4.6876,-4.6876,-4.6876,0.0,0.0,0.0,0.0,0.0,0.0,0.0,0.0,0.0,0.0,0.0,0.0,0.0,0.0,0.0,0.0,0.0,0.0,-1.1376,-1.1942,-1.26,-1.3339,-1.4587,-1.5355,-1.5559,-1.6371,-1.7258,-1.8201,-1.874,-1.8934,-1.8788,-1.8614,-1.8717,-1.9073,-1.9566,-1.9358,-1.8633,-1.8847,-1.8822,-1.8633,-1.8457,-1.8208,-1.8,0.0,0.0,0.0,0.0,0.0,0.0,0.0,0.0,0.0,-1.9002,0.0,-2.1385,-2.099,-2.1626,-2.2508,-2.2519,-2.3658,0.0,-2.7117,0.0,0.0,0.0,-3.3128,0.0,0.0,-3.6902,-3.6898,-3.643,0.0,0.0,-3.7235,-3.7463,0.0,0.0,0.0,0.0,0.0,0.0,0.0,0.0,0.0,0.0,0.0,0.0,0.0,0.0,-4.5419,-4.5419,-4.5419,-4.5419,-4.5419,-4.5419,-4.5419,-4.5419,-4.5419,-4.5419,-4.5921,-4.6876,-4.6876,-4.6876,-4.6876,-4.6876,-4.6876,-4.6876,-4.6876,-4.6876,-4.6876,-4.6876,-4.6876,-4.6876,-4.6876,-4.6876,-4.6876,0.0,0.0,0.0,0.0,0.0,0.0,0.0,0.0,0.0,0.0,-1.1132,-1.1132,0.0,0.0,0.0,0.0,0.0,0.0,0.0,-1.1736,-1.2378,-1.3311,-1.4123,-1.4892,-1.5631,-1.6269,-1.6849,-1.7417,-1.7876,-1.814,-1.8201,-1.8507,-1.8817,-1.9193,-2.0071,-1.9887,-1.8967,-1.8924,-1.8928,-1.8984,-1.8768,-1.8519,-1.8323,0.0,0.0,0.0,0.0,0.0,0.0,0.0,0.0,0.0,-1.841,0.0,-2.0445,-2.0607,-2.1344,-2.233,-2.3327,-2.4719,0.0,-2.8707,-3.0375,-3.1951,-3.3718,0.0,0.0,0.0,0.0,-3.7186,-3.678,-3.6707,0.0,0.0,0.0,0.0,0.0,0.0,0.0,0.0,0.0,0.0,0.0,0.0,0.0,0.0,0.0,0.0,0.0,-4.4787,-4.4787,-4.4787,-4.4787,-4.4787,-4.4787,-4.4787,-4.4787,-4.4787,-4.4787,-4.5241,-4.6067,-4.6326,-4.6601,-4.6876,-4.6876,-4.6876,-4.6876,-4.6876,-4.6876,-4.6876,-4.6876,-4.6876,-4.6876,-4.6876,-4.6876,-4.6876,0.0,0.0,-0.7357,-0.8315,0.0,0.0,0.0,0.0,0.0,-1.1097,-1.1108,-1.1108,0.0,0.0,0.0,-1.1204,0.0,0.0,0.0,-1.1422,-1.2031,-1.3257,-1.3528,-1.4471,-1.624,-1.6837,-1.6822,-1.6213,-1.6822,-1.7444,-1.8114,-1.8783,-1.9127,-1.9213,-2.0179,-2.0044,-1.9067,-1.8486,-1.8598,-1.9146,-1.9074,-1.8752,-1.8447,-1.9184,0.0,0.0,0.0,0.0,0.0,0.0,0.0,0.0,-1.8252,-1.8436,-1.8724,-2.0366,-2.1037,-2.1857,-2.459,0.0,0.0,0.0,0.0,0.0,0.0,0.0,0.0,0.0,0.0,0.0,0.0,0.0,0.0,0.0,0.0,0.0,0.0,0.0,0.0,0.0,0.0,0.0,0.0,0.0,0.0,0.0,0.0,0.0,0.0,-4.4593,-4.4593,-4.4593,-4.4593,-4.4593,-4.4593,-4.4593,-4.4593,-4.4593,-4.4593,-4.4625,-4.4706,-4.5403,-4.6099,-4.6795,-4.6795,-4.6828,-4.6876,-4.6876,-4.6876,-4.6876,-4.6876,-4.6876,-4.6876,-4.6876,-4.6876,-4.6876,0.0,0.0,-0.8562,-0.9601,0.0,0.0,0.0,0.0,-1.1155,-1.1108,-1.1192,-1.1227,-1.1108,-1.1192,0.0,-1.1204,-1.125,0.0,0.0,-1.1837,-1.2493,-1.3337,-1.479,-1.6039,-1.6951,-1.6619,-1.6327,-1.6213,-1.6327,-1.6764,-1.7417,-1.7573,-1.833,-1.9551,-1.9295,-1.8875,-1.8392,-1.7997,-1.7943,-1.8136,-1.8327,-1.8339,-1.8268,-1.8438,-1.8018,0.0,0.0,0.0,0.0,0.0,0.0,0.0,-1.8151,-1.8719,-1.935,-2.0236,-2.1103,-2.2205,0.0,-2.5553,0.0,0.0,0.0,0.0,0.0,0.0,0.0,0.0,0.0,0.0,0.0,0.0,0.0,0.0,0.0,0.0,0.0,0.0,0.0,0.0,0.0,0.0,0.0,0.0,0.0,0.0,0.0,0.0,-4.3055,-4.3055,-4.3055,-4.3055,-4.3055,-4.3055,-4.3055,-4.3055,-4.3055,0.0,-4.3055,-4.3395,-4.3962,-4.469,-4.5386,-4.6034,-4.6034,-4.6358,-4.6876,-4.6876,-4.6876,-4.6876,-4.6876,-4.6876,-4.6876,-4.6876,-4.6876,-4.6876,0.0,0.0,0.0,0.0,0.0,0.0,0.0,0.0,-1.1132,-1.1097,-1.1155,-1.1192,-1.1108,-1.1155,0.0,0.0,-1.1262,-1.133,0.0,0.0,-1.2793,-1.3802,-1.5356,-1.6226,-1.63,-1.6226,-1.6213,-1.6213,-1.6213,-1.653,-1.7229,-1.8015,-1.8927,-1.9874,-1.9379,-1.888,-1.835,-1.7577,-1.7466,-1.7775,-1.8004,-1.8166,-1.8248,-1.831,-1.7909,-1.7293,-1.7293,0.0,0.0,0.0,0.0,0.0,0.0,0.0,-1.8524,-1.9719,-2.0416,-2.1415,0.0,0.0,0.0,0.0,0.0,0.0,0.0,0.0,0.0,0.0,0.0,0.0,0.0,0.0,0.0,0.0,0.0,0.0,0.0,0.0,0.0,0.0,0.0,0.0,0.0,0.0,0.0,0.0,0.0,-4.2602,-4.2602,-4.2602,-4.2602,-4.2602,-4.2602,-4.2602,-4.2602,-4.2602,-4.2602,-4.2602,-4.2602,-4.2797,-4.3201,-4.4302,-4.4982,-4.5322,-4.5322,-4.571,-4.6358,-4.6358,-4.6568,-4.6876,-4.6876,-4.6876,-4.6876,-4.6876,-4.6876,-4.6876,0.0,0.0,0.0,0.0,0.0,0.0,0.0,0.0,0.0,-1.1097,-1.1108,-1.1108,-1.1097,-1.112,-1.1155,0.0,0.0,0.0,-1.1399,0.0,0.0,-1.4413,-1.5558,-1.5949,-1.5472,-1.5834,-1.6037,-1.6037,-1.6037,-1.6545,-1.7563,-1.8951,-1.9712,-1.9933,-1.9705,-1.9167,-1.8363,-1.7252,-1.7027,-1.7478,-1.7625,-1.78,-1.7974,-1.8117,-1.7773,-1.7203,-1.7257,-1.7261,-1.7228,-1.7345,0.0,0.0,0.0,0.0,-1.7562,-1.9001,-1.9515,-2.0353,0.0,0.0,0.0,0.0,0.0,0.0,0.0,0.0,0.0,0.0,0.0,0.0,0.0,0.0,0.0,0.0,0.0,0.0,0.0,0.0,0.0,0.0,0.0,0.0,0.0,0.0,0.0,0.0,0.0,-4.2602,-4.2602,-4.2602,-4.2602,-4.2602,-4.2602,-4.2602,-4.2602,-4.2602,-4.2602,-4.2602,-4.2602,-4.2523,-4.2461,-4.3654,-4.4381,-4.4609,-4.4609,-4.4998,-4.5629,-4.5629,-4.5986,-4.6536,-4.6649,-4.6698,-4.6714,-4.6828,-4.6876,-4.6876,0.0,0.0,0.0,0.0,0.0,0.0,0.0,0.0,0.0,0.0,-1.1143,-1.1155,-1.1108,-1.1204,-1.1285,-1.1296,-1.1296,-1.133,0.0,0.0,0.0,-1.5109,-1.5771,-1.6101,-1.6078,-1.5645,-1.5383,-1.5338,-1.5383,-1.6605,-1.8854,-1.907,-1.9201,-1.9232,-1.9201,-1.8634,-1.7694,-1.701,-1.6636,-1.648,-1.645,-1.6478,-1.6588,-1.6776,-1.6817,-1.6815,-1.7108,-1.7248,-1.7367,-1.7883,-1.8068,0.0,0.0,0.0,0.0,-1.8243,-1.8921,-1.9954,0.0,0.0,0.0,0.0,0.0,0.0,0.0,0.0,0.0,0.0,0.0,0.0,0.0,0.0,0.0,0.0,0.0,0.0,0.0,0.0,0.0,0.0,0.0,0.0,0.0,0.0,0.0,0.0,-4.2602,-4.2602,-4.2602,-4.2602,-4.2602,-4.2602,-4.2602,-4.2602,-4.2602,-4.2602,-4.2602,-4.2602,-4.2602,-4.2254,-4.164,-4.1863,-4.2636,-4.3848,-4.3848,-4.4269,-4.4917,-4.4917,-4.4982,-4.5127,-4.571,-4.5953,-4.6018,-4.6649,-4.6876,-4.6876,0.0,0.0,0.0,0.0,0.0,0.0,0.0,0.0,0.0,0.0,0.0,-1.1192,-1.1155,-1.125,-1.1307,-1.1307,-1.1307,0.0,0.0,0.0,0.0,-1.4139,-1.4732,-1.4905,-1.4631,-1.4703,-1.4906,-1.5268,-1.5298,-1.6808,-1.9667,-2.0001,-2.0741,-2.1743,-2.0654,-1.9919,-1.9383,-1.7494,-1.6623,-1.6514,-1.633,-1.6896,-1.7776,-1.6844,-1.7138,-1.7954,-1.7194,-1.6911,-1.6985,-1.7423,-1.7834,-1.8065,-1.7662,0.0,0.0,0.0,0.0,0.0,0.0,0.0,0.0,0.0,0.0,0.0,0.0,0.0,0.0,0.0,0.0,0.0,0.0,0.0,0.0,0.0,0.0,0.0,0.0,0.0,0.0,0.0,0.0,0.0,0.0,0.0,0.0,0.0,-4.2365,-4.2602,-4.2602,-4.2602,-4.2602,-4.2602,-4.219,-4.1965,-4.1965,-4.1965,-4.1965,-4.1981,-4.1558,-4.1211,-4.0894,-4.0894,-4.1451,-4.2476,-4.2476,-4.3121,-4.4188,-4.4188,-4.4431,-4.482,-4.5111,-4.5467,-4.584,-4.6164,-4.6536,-4.6876,0.0,0.0,0.0,0.0,0.0,0.0,0.0,0.0,0.0,0.0,0.0,-1.1227,-1.1204,0.0,0.0,0.0,-1.1307,0.0,0.0,0.0,0.0,0.0,-1.3753,-1.3824,-1.3097,-1.3733,-1.4298,-1.479,-1.4964,-1.6777,-2.0117,-2.0886,-2.2367,-2.4321,-2.2527,-2.138,-2.0616,-1.8288,-1.7224,-1.7063,-1.6864,-1.7622,-1.8802,-1.8159,-1.8663,-1.9543,-1.8341,-1.778,-1.7652,-1.7851,-1.8116,-1.8294,0.0,0.0,0.0,0.0,0.0,0.0,0.0,0.0,0.0,0.0,0.0,0.0,0.0,0.0,0.0,0.0,0.0,0.0,0.0,0.0,0.0,0.0,0.0,0.0,0.0,0.0,0.0,0.0,0.0,0.0,0.0,0.0,0.0,0.0,-4.1644,-4.2052,-4.2052,-4.2052,-4.199,-4.1818,-4.1278,-4.089,-4.0727,-4.0899,-4.1072,-4.1211,-4.0656,-4.0313,-4.0104,-4.0104,-4.0416,-4.0943,-4.1145,-4.1958,-4.3154,-4.3154,-4.3476,-4.4008,-4.4366,-4.4836,-4.5322,-4.5678,-4.6147,-4.6633,0.0,0.0,0.0,0.0,0.0,0.0,0.0,0.0,0.0,0.0,0.0,-1.1273,-1.1215,-1.1319,-1.1376,-1.1307,-1.1307,0.0,0.0,0.0,0.0,0.0,0.0,0.0,-1.2284,-1.2978,-1.3362,-1.3389,-1.4037,-1.6329,-2.0132,-2.1365,-2.3281,-2.5658,-2.4326,-2.2396,-2.0103,-1.9309,-1.864,-1.8117,-1.8106,-1.8167,-1.8538,-2.1114,-2.1773,-2.1351,-2.1278,-2.0874,-2.0363,0.0,-1.9688,-1.9151,-1.9102,-1.8635,-1.7986,0.0,0.0,0.0,0.0,0.0,0.0,0.0,0.0,0.0,0.0,0.0,0.0,0.0,0.0,0.0,0.0,0.0,0.0,0.0,0.0,0.0,0.0,0.0,0.0,0.0,0.0,0.0,0.0,0.0,0.0,0.0,-4.0246,-4.061,-4.061,-4.061,-4.0307,-3.9691,-3.9629,-3.9298,-3.8654,-3.9287,-3.9887,-4.0451,-4.0416,-4.0034,-3.9356,-3.9356,-3.9376,-3.9448,-4.0139,-4.0891,-4.1606,-4.1606,-4.1637,-4.1814,-4.3218,-4.3783,-4.3978,-4.5322,-4.5824,-4.5953,0.0,0.0,0.0,0.0,0.0,0.0,0.0,0.0,0.0,0.0,0.0,0.0,0.0,-1.1319,-1.1365,-1.125,-1.1204,0.0,0.0,0.0,0.0,0.0,0.0,0.0,-1.1701,-1.2707,-1.3063,-1.2721,-1.3343,-1.5442,-1.8912,-1.974,-2.1278,-2.3354,-2.3287,-2.3006,-2.2352,-1.9667,-1.8622,-1.8782,-1.8782,-1.9749,-2.1228,-2.1432,-2.2644,-2.4065,-2.2598,0.0,0.0,0.0,0.0,-1.9365,-1.8457,-1.8469,-1.8586,-1.7436,-1.7743,0.0,0.0,0.0,0.0,0.0,0.0,0.0,0.0,0.0,0.0,0.0,0.0,0.0,0.0,0.0,0.0,0.0,0.0,0.0,0.0,0.0,0.0,0.0,0.0,0.0,0.0,0.0,0.0,0.0,0.0,-4.0043,-4.0496,-4.0103,-3.9751,-3.9518,-3.8628,-3.8053,-3.7785,-3.7564,-3.8013,-3.9098,-3.865,-3.8478,-3.8583,-3.8583,-3.8863,-3.9269,-3.9066,-3.9697,-4.0792,-4.0792,-4.0792,-4.0857,-4.1377,-4.2173,-4.3065,-4.3559,-4.463,-4.584,0.0,0.0,0.0,-1.0644,0.0,-1.1108,-1.112,-1.1167,-1.1263,-1.1402,0.0,0.0,0.0,0.0,-1.1849,-1.1566,-1.1442,-1.1322,-1.116,-1.1108,0.0,0.0,0.0,0.0,-1.166,-1.2843,-1.3212,-1.2668,-1.3303,-1.4949,-1.756,-1.8386,-1.9827,-2.1656,-2.1634,-2.2229,-2.3093,-2.0553,-1.958,-1.9783,-2.0451,-2.1591,-2.2989,-2.3891,-2.5139,-2.6279,-2.5088,0.0,0.0,0.0,0.0,0.0,-1.9123,-1.8724,-1.8435,-1.7264,-1.7826,0.0,-1.8989,0.0,0.0,0.0,0.0,0.0,0.0,0.0,0.0,0.0,0.0,0.0,0.0,0.0,0.0,0.0,0.0,0.0,0.0,0.0,0.0,0.0,0.0,0.0,0.0,0.0,0.0,0.0,0.0,0.0,-3.9095,-3.8683,-3.8372,-3.8153,-3.6987,-3.6482,-3.6738,-3.6248,-3.6585,-3.7682,-3.7426,-3.752,-3.7912,-3.8115,-3.8486,-3.8884,-3.8412,-3.8899,-4.0034,-4.0034,-4.0034,-4.0069,-4.0313,-4.1003,-4.1933,-4.2422,-4.3508,-4.4842,-0.9879,-1.0148,-1.0425,-1.0698,-1.0964,-1.1165,-1.1235,-1.1246,-1.1459,-1.2044,0.0,0.0,0.0,0.0,0.0,-1.2288,-1.213,-1.1798,-1.1261,-1.1146,0.0,0.0,0.0,0.0,-1.2101,-1.336,-1.3728,-1.317,-1.3839,-1.4847,-1.615,-1.7487,-1.9116,-2.0828,-1.9624,-2.0117,-2.1888,-2.1859,-2.154,-2.122,-2.3064,-2.3528,-2.3621,-2.8608,-2.9392,-2.7968,-2.8908,-2.845,0.0,-2.5629,0.0,0.0,-2.1301,-1.9507,-1.7485,-1.6849,-1.7378,-1.8138,0.0,0.0,0.0,0.0,0.0,0.0,0.0,0.0,0.0,0.0,0.0,0.0,0.0,0.0,0.0,0.0,0.0,0.0,0.0,0.0,0.0,0.0,0.0,0.0,0.0,0.0,0.0,0.0,-3.6009,-3.6384,-3.6415,-3.6384,-3.6072,-3.54,-3.4754,-3.4704,-3.5363,-3.5378,-3.5683,-3.6286,-3.6939,-3.7259,-3.7302,-3.7897,-3.8173,-3.8173,-3.8188,-3.862,-3.9284,-3.9284,-3.9284,-3.9341,-4.0069,-4.0347,-4.0528,-4.1964,-4.2519,-4.2875,-1.044,-1.0851,-1.1329,-1.183,-1.1994,-1.2142,-1.2448,-1.2499,-1.2569,0.0,0.0,0.0,-1.3036,-1.3417,-1.3629,-1.3516,-1.3022,-1.2447,-1.1812,-1.135,-1.1097,-1.1097,-1.232,-1.2726,-1.2101,-1.3304,-1.3473,-1.2548,-1.3167,-1.3723,-1.4209,-1.5502,-1.6864,-1.8259,-1.839,-1.8753,-1.9217,-1.8738,-2.001,-2.2345,-2.196,-2.392,0.0,0.0,0.0,0.0,0.0,-3.0046,-2.8834,0.0,-2.6234,-2.4066,0.0,-1.9664,-1.7976,-1.8026,-1.8628,-1.9206,-1.8953,0.0,0.0,0.0,0.0,0.0,0.0,0.0,0.0,0.0,0.0,0.0,0.0,0.0,0.0,0.0,0.0,0.0,0.0,0.0,0.0,0.0,0.0,0.0,0.0,0.0,0.0,0.0,-3.5578,-3.5897,-3.6384,-3.5946,-3.5367,-3.4687,-3.4501,-3.4501,-3.4675,-3.4675,-3.4994,-3.5654,-3.5857,-3.6141,-3.6606,-3.7259,-3.7549,-3.7578,-3.8014,-3.83,-3.8509,-3.8509,-3.8509,-3.8509,-3.873,-3.9139,-3.9642,-4.0071,-4.0876,-4.188,-1.0839,-1.1218,-1.1733,-1.2487,-1.2689,-1.3002,-1.3641,-1.3755,-1.384,0.0,0.0,0.0,-1.4558,-1.5091,-1.5163,-1.4435,-1.3995,-1.3263,-1.2121,-1.1687,-1.1479,-1.1479,-1.2447,-1.2952,-1.2853,-1.3798,-1.3841,-1.2973,-1.3385,-1.3482,-1.3331,-1.4399,-1.5269,-1.6024,-1.669,-1.7301,-1.7751,-1.7069,-1.8691,-2.1837,-2.2962,0.0,0.0,-2.9552,-3.0899,0.0,0.0,0.0,-3.0576,-3.0,-2.8094,0.0,0.0,-2.0509,-1.9675,-1.8513,-1.9279,-2.0335,-1.9617,-2.0329,0.0,0.0,0.0,0.0,0.0,-2.4836,0.0,0.0,0.0,0.0,0.0,0.0,0.0,0.0,0.0,0.0,0.0,0.0,0.0,0.0,0.0,0.0,0.0,-3.4414,-3.4568,-3.4971,-3.499,-3.5154,-3.5546,-3.5187,-3.482,-3.4414,-3.4414,-3.4414,-3.4414,-3.4414,-3.4603,-3.5,-3.5276,-3.5581,-3.5938,-3.6591,-3.7041,-3.7331,-3.768,-3.797,-3.8202,-3.8202,-3.8202,-3.8202,-3.8202,-3.8449,-3.8863,-3.9211,-3.9832,-4.066,0.0,-1.1486,-1.1995,-1.286,-1.33,-1.3868,-1.4794,-1.4987,-1.5202,0.0,-1.5873,-1.6227,-1.7032,-1.7482,-1.7046,-1.5451,-1.5051,-1.4177,-1.2512,-1.2221,-1.2111,-1.2111,-1.2742,-1.3347,-1.3896,-1.4485,-1.4499,-1.391,-1.4041,-1.3799,-1.3226,-1.3966,-1.4297,-1.4326,-1.4993,-1.5965,-1.7069,-1.6619,-1.7908,-2.0628,-2.4718,-2.6707,0.0,0.0,-3.2558,-3.1734,-3.2857,-3.29,-3.2292,-3.1619,-2.9493,0.0,0.0,-2.2154,-2.2185,-1.915,-1.9987,0.0,-2.0487,-2.0941,0.0,0.0,0.0,0.0,-2.5035,-2.4585,-2.4082,0.0,0.0,0.0,0.0,0.0,0.0,0.0,0.0,0.0,0.0,0.0,0.0,0.0,0.0,0.0,-3.4414,-3.4414,-3.4414,-3.4414,-3.4414,-3.4414,-3.4414,-3.4414,-3.4414,-3.4414,-3.4414,-3.4414,-3.4414,-3.4414,-3.4414,-3.4428,-3.498,-3.529,-3.5319,-3.5909,-3.6533,-3.7099,-3.7244,-3.7607,-3.8115,-3.8173,-3.8202,-3.8202,-3.8202,-3.8202,-3.8277,-3.8936,-3.9175,-3.9358,-1.174,-1.2479,-1.3245,-1.3707,-1.4508,-1.5233,-1.5698,-1.609,-1.6385,-1.648,-1.693,-1.7895,-1.9561,-1.8894,-1.8175,-1.7829,-1.6393,-1.5174,-1.4332,-1.3347,-1.2812,-1.2812,-1.3389,-1.3783,-1.391,-1.4485,-1.453,-1.3983,-1.4069,-1.3827,-1.3293,-1.398,-1.4297,-1.4326,-1.4993,-1.5719,-1.6459,-1.7405,-1.9185,-2.1528,-2.3045,0.0,-2.9766,-3.1178,-3.2421,-3.3436,-3.3679,-3.3693,-3.3421,-3.236,-3.0643,-2.8525,0.0,-2.5421,-2.4771,-2.291,-2.305,-2.3739,-2.329,-2.3723,-2.4076,-2.3258,0.0,0.0,-2.2454,-2.2938,-2.3888,0.0,0.0,0.0,0.0,0.0,0.0,0.0,0.0,0.0,0.0,0.0,0.0,0.0,0.0,0.0,-3.4414,-3.4414,-3.4414,-3.4414,-3.4414,-3.4414,-3.4414,-3.4414,-3.4414,-3.4414,-3.4414,-3.4414,-3.4414,-3.4414,-3.4414,-3.4414,-3.4545,-3.4603,-3.4617,-3.529,-3.5654,-3.5842,-3.6852,-3.7375,-3.752,-3.7999,-3.8202,-3.8202,-3.8202,-3.8202,-3.8202,-3.8375,-3.8412,-3.8464,-1.2294,-1.295,-1.3697,-1.4337,-1.5286,-1.6164,-1.6809,-1.7296,-1.7829,-1.8461,-1.9318,-2.0042,-2.0408,-1.9845,-1.9186,-1.8554,-1.7361,-1.6112,-1.4878,-1.4218,-1.3755,-1.346,-1.3741,-1.405,-1.4331,-1.4654,-1.4669,-1.4405,-1.4211,-1.3799,-1.3224,-1.3952,-1.4141,-1.391,-1.5177,-1.6094,-1.6754,-1.7773,-1.9426,-2.1564,-2.4115,0.0,-3.0391,-3.1997,-3.3102,-3.3744,-3.3744,-3.3744,-3.3551,-3.2119,-3.1053,0.0,0.0,-2.7407,-2.7227,0.0,-2.4973,-2.5622,-2.4581,-2.4659,-2.501,-2.4836,0.0,0.0,0.0,-2.3242,-2.3425,-2.4523,0.0,0.0,0.0,0.0,0.0,0.0,0.0,0.0,0.0,0.0,0.0,0.0,0.0,0.0,-3.392,-3.3935,-3.408,-3.4385,-3.4414,-3.4414,-3.4414,-3.4414,-3.4414,-3.4414,-3.4414,-3.4414,-3.4414,-3.4414,-3.4414,-3.4414,-3.4414,-3.4414,-3.4428,-3.4748,-3.5101,-3.545,-3.6388,-3.6997,-3.736,-3.7955,-3.8202,-3.8202,-3.8202,-3.8202,-3.8202,-3.8202,-3.8202,-3.8202,-1.2709,-1.3216,-1.3885,-1.4649,-1.569,-1.667,-1.7436,-1.8002,-1.8909,-2.0386,-2.1517,-2.1885,-2.1138,-2.0867,-2.039,-1.9553,-1.8452,-1.7241,-1.5906,-1.543,-1.4966,-1.4457,-1.4332,-1.4471,-1.4963,-1.4802,-1.4746,-1.4808,-1.4378,-1.3913,-1.3485,-1.4141,-1.4254,-1.3989,-1.5501,-1.6746,-1.7748,0.0,0.0,-2.2488,0.0,-2.8111,-2.9511,-3.2282,-3.3203,-3.3075,-3.3408,-3.3536,-3.3316,-3.1936,-3.1507,-3.1217,-2.8843,-2.903,0.0,0.0,0.0,0.0,0.0,0.0,0.0,0.0,0.0,-2.5465,0.0,0.0,0.0,-2.5219,0.0,0.0,0.0,0.0,0.0,0.0,0.0,0.0,0.0,0.0,0.0,0.0,0.0,0.0,0.0,-3.2949,-3.319,-3.3978,-3.3871,-3.39,-3.4211,-3.4356,-3.4414,-3.4414,-3.4414,-3.4414,-3.4414,-3.4414,-3.4414,-3.4414,-3.4414,-3.4414,-3.4414,-3.4414,-3.4704,-3.5247,-3.5851,-3.6504,-3.7172,-3.7781,-3.8101,-3.8202,-3.8202,-3.8202,-3.8202,-3.8202,-3.8202,-3.8202,-1.2709,-1.3517,-1.4236,-1.4356,-1.5546,-1.6532,-1.6637,-1.7338,-1.8673,-2.0912,-2.1729,-2.2473,-2.3392,-2.2538,-2.2214,-2.2959,-2.0252,-1.876,-1.9453,-1.7652,-1.6532,-1.6396,-1.582,-1.5536,-1.5607,-1.4786,-1.4509,-1.4808,-1.4509,-1.4503,-1.4783,-1.4885,-1.5228,-1.5798,-1.6014,0.0,0.0,0.0,-2.1893,0.0,-2.7041,-2.6739,0.0,-2.9968,-3.1208,-3.1227,-3.279,-3.3326,-3.3269,0.0,-3.2697,-3.2419,0.0,-3.1134,-3.1671,-2.9029,0.0,0.0,0.0,0.0,0.0,0.0,-2.77,0.0,0.0,0.0,-2.4995,-2.2998,0.0,0.0,0.0,0.0,0.0,0.0,0.0,0.0,0.0,0.0,0.0,0.0,0.0,0.0,0.0,-3.0924,-3.116,-3.26,-3.1936,-3.2085,-3.3518,-3.4109,-3.4414,-3.4414,-3.4414,-3.4414,-3.4414,-3.4414,-3.4414,-3.4414,-3.4414,-3.4414,-3.4414,-3.4414,-3.4443,-3.4559,-3.5198,-3.5872,-3.6475,-3.7143,-3.7723,-3.8202,-3.8202,-3.8202,-3.8202,-3.8202,-3.8202,-3.8202,-1.2709,-1.3565,-1.4309,-1.4309,-1.5513,-1.65,-1.65,-1.8688,-2.0565,-2.1222,-2.295,-2.4362,-2.4931,-2.4272,-2.404,-2.4691,0.0,-2.1244,0.0,-1.929,-1.8187,-1.6863,-1.6817,-1.6494,-1.5821,-1.5351,-1.5015,-1.4808,-1.4383,-1.4246,-1.4425,-1.49,-1.5428,-1.6028,-1.7196,0.0,-2.0229,0.0,-2.1569,0.0,0.0,0.0,0.0,-2.9771,-3.1288,-3.0951,-3.2151,-3.2583,-3.2552,0.0,-3.2151,0.0,0.0,0.0,0.0,0.0,0.0,0.0,0.0,0.0,0.0,0.0,0.0,0.0,-2.5225,0.0,-2.4424,0.0,0.0,0.0,0.0,0.0,0.0,0.0,0.0,0.0,0.0,0.0,0.0,0.0,0.0,0.0,0.0,0.0,0.0,0.0,-3.0673,-3.1039,-3.2803,-3.3514,-3.4037,-3.4399,-3.4414,-3.4414,-3.4414,-3.4414,-3.4414,-3.4414,-3.4414,-3.4414,-3.4414,-3.4414,-3.4414,-3.4443,-3.5116,-3.5552,-3.5872,-3.6881,-3.7462,-3.7723,-3.8072,-3.8202,-3.8202,-3.8202,-3.8202,-3.8202,-1.3143,-1.3758,-1.4337,-1.4462,-1.5498,-1.6449,-1.6879,-1.943,-2.143,-2.173,-2.3725,-2.5335,-2.5884,-2.5437,0.0,0.0,-2.4871,-2.3347,0.0,-2.0901,-1.9764,-1.8132,-1.7936,-1.749,-1.6638,-1.6249,-1.58,-1.5314,-1.4649,-1.4485,-1.4791,-1.5153,-1.571,-1.6478,-1.833,-1.9912,-2.122,0.0,-2.2359,-2.3744,-2.4283,-2.4748,-2.5562,-2.9523,-3.099,-3.1007,-3.1819,-3.211,-3.2032,-3.1605,-3.1662,0.0,-3.1537,0.0,0.0,0.0,0.0,0.0,-2.9754,0.0,0.0,0.0,0.0,0.0,0.0,0.0,0.0,0.0,0.0,0.0,0.0,0.0,0.0,0.0,0.0,0.0,0.0,0.0,0.0,0.0,0.0,0.0,0.0,0.0,0.0,0.0,0.0,-2.9607,-3.1859,-3.2759,-3.3499,-3.4124,-3.4312,-3.4414,-3.4414,-3.4414,-3.4414,-3.4414,-3.4414,-3.4414,-3.4414,-3.4414,-3.4414,-3.4443,-3.4893,-3.5232,-3.5465,-3.6388,-3.6983,-3.7346,-3.7781,-3.8057,-3.8202,-3.8202,-3.8202,-3.8202,-1.4241,-1.4285,0.0,0.0,-1.5454,-1.6343,-1.7812,-1.8656,-2.0029,-2.2609,-2.3479,-2.4473,0.0,0.0,0.0,0.0,0.0,-2.4624,-2.5033,0.0,-2.1186,-2.0978,-1.9436,-1.8528,0.0,-1.7449,-1.6849,-1.6638,-1.5651,-1.5686,-1.6697,-1.6008,-1.6374,-1.7697,-1.9135,-2.0988,-2.3029,-2.3149,-2.5472,-2.8943,-2.7745,-2.8158,-2.9429,0.0,-2.9454,-3.1007,-3.1819,0.0,0.0,-3.1558,-3.1923,0.0,0.0,0.0,0.0,0.0,0.0,0.0,0.0,0.0,0.0,-2.7752,0.0,0.0,0.0,0.0,-2.594,0.0,0.0,0.0,0.0,0.0,0.0,0.0,0.0,0.0,0.0,0.0,0.0,0.0,0.0,0.0,0.0,0.0,0.0,0.0,0.0,0.0,-3.0497,-3.1845,-3.2846,-3.3518,-3.4095,-3.4414,-3.4414,-3.4414,-3.4414,-3.4414,-3.4414,-3.4414,-3.4414,-3.4414,-3.4414,-3.4414,-3.4428,-3.4791,-3.5392,-3.5436,-3.617,-3.7302,-3.7331,-3.7694,-3.8202,-3.8202,-3.8202,-3.8202,0.0,0.0,0.0,0.0,0.0,-1.6449,-1.8409,-2.008,-2.1809,0.0,-2.4859,0.0,0.0,-2.7887,-2.8154,0.0,0.0,-2.6954,-2.585,-2.4649,0.0,-2.2911,-2.1931,-2.0862,0.0,-1.8962,-1.7842,-1.6306,-1.5973,-1.5963,-1.629,-1.6523,-1.7005,-1.774,0.0,-2.1586,0.0,0.0,0.0,0.0,0.0,-2.7541,-2.8861,0.0,-2.8807,-2.9406,-3.0215,-3.0519,0.0,-3.0956,-3.1339,-3.1667,-3.1656,-3.1861,-3.2127,-3.2326,-3.2307,0.0,0.0,0.0,-3.1994,-2.9203,0.0,0.0,0.0,0.0,0.0,0.0,0.0,0.0,0.0,0.0,0.0,0.0,0.0,0.0,0.0,0.0,0.0,0.0,0.0,0.0,0.0,0.0,0.0,0.0,-2.5529,0.0,0.0,-3.1584,-3.2817,-3.3474,-3.4095,-3.4414,-3.4414,-3.4414,-3.4414,-3.4414,-3.4264,-3.4264,-3.4414,-3.4264,-3.4264,-3.4414,-3.4414,-3.453,-3.4762,-3.5218,-3.5901,-3.6693,-3.7128,-3.768,-3.8202,-3.8202,-3.8202,-3.8202,-1.5253,0.0,0.0,0.0,0.0,-1.7303,-1.9263,-2.1241,0.0,0.0,-2.5895,0.0,-2.8842,0.0,-2.9089,0.0,-2.9079,-2.8085,-2.6503,-2.5872,0.0,-2.4372,-2.3742,0.0,-2.149,-2.0917,-1.9536,-1.7312,-1.6912,-1.6617,-1.6436,-1.6673,-1.7106,0.0,0.0,-2.1965,-2.2831,0.0,-2.5977,0.0,0.0,-2.7613,0.0,0.0,-2.851,-2.8618,0.0,-2.9704,-2.9781,-3.0291,-3.0758,-3.1105,-3.1222,-3.133,-3.155,-3.2229,-3.2213,-3.1999,-3.2122,-3.2464,0.0,-3.016,-2.9301,0.0,-2.5957,0.0,0.0,0.0,0.0,0.0,0.0,0.0,0.0,0.0,0.0,0.0,0.0,0.0,0.0,0.0,0.0,0.0,0.0,0.0,-2.2007,-2.4521,0.0,0.0,0.0,0.0,-3.2222,-3.3108,-3.3964,-3.4414,-3.4414,-3.4414,-3.4346,-3.4312,-3.4162,-3.4128,-3.4225,-3.4074,-3.4142,-3.4312,-3.4312,-3.4346,-3.4443,-3.4849,-3.5532,-3.6344,-3.678,-3.7462,-3.8202,-3.8202,-3.8202,-3.8202,-1.5946,0.0,0.0,0.0,-1.7255,0.0,0.0,0.0,-2.3785,0.0,-2.6659,-2.757,-2.9172,-2.8883,-2.8787,-2.9292,-2.8883,-2.815,-2.7078,-2.6526,0.0,0.0,-2.4967,-2.4392,-2.3726,-2.3132,-2.1735,-1.9561,0.0,0.0,0.0,0.0,0.0,0.0,-2.0466,0.0,-2.2866,-2.598,-2.7473,-2.7762,-2.8306,-2.851,-2.851,-2.851,-2.851,-2.859,-2.9367,-2.9626,-2.9626,-2.9626,-3.019,-3.0707,-2.9922,-3.0253,-3.1044,-3.1819,-3.2037,-3.2109,-3.2436,-3.2535,-3.2131,-3.0466,-3.0031,0.0,0.0,0.0,-2.9101,0.0,0.0,0.0,0.0,0.0,0.0,0.0,0.0,0.0,0.0,0.0,0.0,0.0,0.0,0.0,0.0,0.0,-2.0847,-2.3295,-2.2891,0.0,0.0,0.0,-3.109,-3.2394,-3.3703,-3.4385,-3.4414,-3.4414,-3.4312,-3.4094,-3.4094,-3.404,-3.3896,-3.3896,-3.3951,-3.4094,-3.4094,-3.4196,-3.438,-3.4414,-3.5154,-3.6301,-3.6301,-3.7085,-3.8202,-3.8202,-3.8202,-3.8202,-1.6427,-1.7351,-1.8434,0.0,-1.9035,-1.9627,0.0,0.0,0.0,0.0,-2.7777,-2.8558,-2.9749,-2.9761,-2.9737,-2.9869,-2.9761,0.0,0.0,0.0,0.0,-2.7693,-2.6794,-2.6033,-2.5464,-2.3811,-2.2072,-2.0324,0.0,0.0,-1.7245,0.0,0.0,0.0,0.0,0.0,-2.2347,-2.4892,-2.6887,-2.8318,-2.845,-2.851,0.0,0.0,-2.851,-2.851,-2.8736,-2.8816,-2.8816,-2.8816,-2.9328,-2.9961,-2.9781,-3.0253,-3.0932,-3.1156,-3.123,-3.1228,-3.1303,-3.1336,-3.1303,-3.1076,-3.0317,-2.954,0.0,0.0,0.0,0.0,0.0,0.0,0.0,0.0,0.0,0.0,0.0,0.0,0.0,0.0,0.0,0.0,0.0,0.0,0.0,-2.0641,-2.1186,-2.3056,-2.2941,0.0,0.0,0.0,0.0,-3.1683,-3.3035,-3.3935,-3.4414,-3.4414,-3.4312,-3.4094,-3.4005,-3.3917,-3.3896,-3.3744,-3.3779,-3.3951,-3.4059,-3.4128,-3.4196,-3.4346,-3.5154,-3.6301,-3.6301,-3.7085,-3.8202,-3.8202,-3.8202,-3.8202,-1.7664,0.0,0.0,-2.1819,0.0,0.0,-2.3737,-2.4446,0.0,-2.7777,-2.8522,0.0,-3.0001,-3.029,-3.0434,-3.0434,-3.0218,0.0,-2.9328,0.0,0.0,-2.8534,-2.8162,-2.7609,-2.6827,-2.5192,0.0,-2.1313,0.0,0.0,-1.6974,0.0,0.0,0.0,0.0,-2.0169,0.0,-2.4513,-2.6676,-2.8186,-2.8414,0.0,0.0,-2.851,-2.851,-2.851,-2.851,-2.851,-2.851,-2.851,-2.8803,-2.9184,-2.9184,-2.9484,-2.9922,-3.0266,-3.0367,-3.0443,-3.082,-3.0895,-3.0966,-3.1149,-3.0646,-3.0041,-2.9748,-2.9995,-3.0162,0.0,-3.0167,-3.0534,0.0,0.0,0.0,0.0,0.0,0.0,0.0,0.0,0.0,0.0,0.0,0.0,-2.0414,-2.024,-2.0763,-2.2084,-2.2108,0.0,0.0,0.0,0.0,-3.1061,-3.2675,-3.3808,-3.4399,-3.4414,-3.4278,-3.4005,-3.3931,-3.3827,-3.364,-3.3536,-3.357,-3.3779,-3.3833,-3.3937,-3.404,-3.421,-3.4857,-3.5832,-3.6483,-3.7346,-3.8202,-3.8202,-3.8202,-3.8202,-1.9504,0.0,0.0,0.0,0.0,0.0,0.0,-2.6166,0.0,-2.851,0.0,-2.9785,-3.0242,-3.0742,-3.1019,-3.1019,0.0,-3.0074,-2.9544,-2.9941,-2.9749,-2.8763,-2.9088,-2.8871,-2.7906,-2.6731,-2.4843,0.0,-2.0639,-1.8698,-1.6595,0.0,0.0,0.0,0.0,0.0,0.0,-2.4616,-2.6767,-2.7861,-2.833,-2.851,-2.851,-2.851,-2.851,-2.851,-2.851,-2.851,-2.851,-2.851,-2.851,-2.851,-2.851,-2.851,-2.8657,-2.9328,-2.9549,-2.9704,-3.0405,-3.0594,-3.0632,-3.0707,-3.0745,-3.0522,-2.9699,-2.9512,-2.9724,-3.0402,-2.9753,-2.983,0.0,0.0,0.0,0.0,0.0,0.0,0.0,0.0,0.0,0.0,0.0,0.0,0.0,-1.9871,-2.0171,-2.0887,-2.0913,0.0,0.0,0.0,0.0,-3.0423,-3.2283,-3.3558,-3.4283,0.0,-3.421,-3.3896,-3.3896,-3.3675,-3.329,-3.329,-3.3396,-3.357,-3.3605,-3.3709,-3.3848,-3.4005,-3.4525,-3.5344,-3.6751,-3.768,-3.8202,-3.8202,-3.8202,-3.8202,0.0,0.0,0.0,0.0,0.0,-2.7488,-2.845,-2.8306,-2.8498,-2.9665,-3.0694,-3.1332,-3.1428,-3.1512,-3.1573,-3.1573,-3.1488,0.0,0.0,0.0,0.0,-2.9833,-2.9484,-2.9208,-2.9027,-2.7103,-2.5035,0.0,-2.082,-1.8698,-1.6595,0.0,0.0,0.0,0.0,0.0,-2.3357,-2.5263,0.0,-2.8378,-2.8474,-2.851,-2.851,-2.851,-2.851,-2.851,-2.851,-2.851,-2.851,-2.851,-2.851,-2.851,-2.851,-2.851,-2.855,-2.8657,-2.8697,-2.8736,-2.8882,-2.8922,-2.9067,-2.9742,-2.9922,-3.0025,-3.0522,-3.0631,-3.0668,-3.0816,-3.0682,-3.0415,-3.0086,0.0,0.0,0.0,0.0,0.0,0.0,0.0,0.0,0.0,0.0,0.0,0.0,0.0,-2.0724,-2.0684,0.0,0.0,0.0,0.0,0.0,0.0,-3.1134,0.0,0.0,0.0,-3.421,-3.3896,-3.3896,-3.3675,-3.329,-3.329,-3.3326,-3.3361,-3.3536,-3.3605,-3.3675,-3.3848,-3.4679,-3.5949,-3.6925,-3.768,-3.8202,-3.8202,-3.8202,-3.8202,0.0,0.0,0.0,0.0,0.0,0.0,0.0,-3.0795,-3.0771,-3.017,-3.053,-3.0886,-3.0886,-3.138,-3.1705,-3.1705,-3.1705,-3.1597,-3.1344,-3.1332,-3.1091,-3.0518,-3.0254,-2.9857,-2.9316,-2.8017,-2.6178,-2.3785,-2.1656,-1.9528,-1.7399,-1.6319,-1.5936,-1.6319,0.0,-2.1079,0.0,0.0,0.0,-2.8126,-2.8402,-2.851,-2.851,-2.851,-2.851,-2.851,-2.851,-2.851,-2.851,-2.851,-2.851,-2.851,-2.851,-2.851,-2.851,-2.851,-2.851,-2.851,-2.851,-2.851,-2.8578,-2.9,-2.9067,-2.9184,-2.9549,-2.9665,-2.9768,-3.019,-3.0304,-3.0058,-2.9428,-2.8484,0.0,0.0,0.0,0.0,0.0,0.0,0.0,0.0,0.0,0.0,0.0,0.0,0.0,0.0,0.0,0.0,0.0,0.0,0.0,0.0,0.0,0.0,0.0,0.0,0.0,-3.3896,-3.3353,-3.3178,-3.329,-3.286,-3.2895,-3.3326,-3.3396,-3.3431,-3.3466,-3.3793,-3.4716,-3.6043,-3.6592,-3.736,-3.8202,-3.8202,-3.8202,-3.8202,0.0,-2.6882,0.0,0.0,-2.9456,0.0,-3.1062,-3.1981,-3.2155,-3.0944,-3.0771,-3.0771,-3.0771,-3.1408,-3.1886,-3.1886,-3.1777,-3.1705,-3.1705,-3.1705,-3.1524,-3.1103,-3.0983,-3.0482,-2.9653,-2.9003,-2.7428,0.0,-2.2871,-2.0754,0.0,-1.7123,-1.6895,-1.7736,0.0,0.0,0.0,0.0,-2.727,-2.7933,-2.8342,-2.851,-2.851,-2.851,-2.851,-2.851,-2.851,-2.851,-2.851,-2.851,-2.851,-2.851,-2.851,-2.851,-2.851,-2.851,-2.851,-2.851,-2.851,-2.851,-2.851,-2.851,-2.851,-2.851,-2.851,-2.851,-2.8657,-2.9328,-2.9433,-2.9365,-2.907,-2.8805,0.0,0.0,0.0,0.0,0.0,0.0,0.0,0.0,0.0,0.0,0.0,0.0,0.0,0.0,0.0,0.0,-2.2077,0.0,0.0,0.0,0.0,-3.1623,-3.28,0.0,-3.3971,-3.3813,-3.2854,-3.2725,-3.3276,-3.2461,-3.2547,-3.329,-3.329,-3.329,-3.3326,-3.3675,-3.4646,-3.5906,-3.6086,-3.6975,-3.8142,-3.8142,-3.8165,-3.8202,0.0,0.0,0.0,0.0,0.0,0.0,-2.9394,-2.9913,-3.0959,-3.2765,-3.2996,-3.2996,-3.2996,-3.2659,-3.243,-3.243,-3.1961,-3.1705,-3.1705,-3.1705,-3.1681,-3.1633,-3.1175,-3.0874,-3.0735,-2.9737,-2.815,0.0,0.0,-2.224,0.0,-1.8987,-1.9504,-2.1019,0.0,0.0,0.0,-2.6597,-2.7474,-2.8438,-2.8486,-2.851,-2.851,-2.851,-2.851,-2.851,-2.851,-2.851,-2.851,-2.851,-2.851,-2.851,-2.851,-2.851,-2.851,-2.851,-2.851,-2.851,-2.851,-2.851,-2.851,-2.851,-2.851,-2.851,-2.851,-2.851,-2.851,-2.859,-2.8618,-2.8487,-2.8088,-2.8459,-2.8321,0.0,0.0,0.0,0.0,0.0,0.0,0.0,0.0,0.0,0.0,0.0,0.0,0.0,0.0,0.0,0.0,0.0,0.0,-2.6623,0.0,-2.9923,-3.0585,-3.2796,-3.3813,-3.3605,-3.2783,-3.2725,-3.3276,-3.2461,-3.2547,-3.329,-3.329,-3.329,-3.3326,-3.3536,-3.4377,-3.5557,-3.5711,-3.6644,-3.7929,-3.7929,-3.8028,-3.8202,0.0,0.0,0.0,0.0,0.0,0.0,0.0,-3.0837,-3.1257,-3.2162,-3.2279,-3.23,-3.23,-3.2709,-3.2971,-3.2971,-3.2767,-3.2503,-3.219,-3.2166,-3.1774,-3.0836,-3.118,-3.0974,-3.0018,-3.0191,-2.9196,0.0,0.0,0.0,0.0,-2.1151,-2.1596,-2.2883,0.0,-2.5504,-2.6659,-2.7512,-2.8126,-2.851,-2.851,-2.851,-2.851,-2.851,-2.851,-2.851,-2.851,-2.851,-2.851,-2.851,-2.851,-2.851,-2.851,-2.851,-2.851,-2.851,-2.851,-2.851,-2.851,-2.851,-2.851,-2.851,-2.851,-2.851,-2.851,-2.851,-2.851,-2.851,-2.851,-2.8457,-2.8283,-2.799,-2.7717,0.0,0.0,0.0,0.0,0.0,0.0,0.0,0.0,0.0,0.0,0.0,0.0,0.0,0.0,-1.9865,-2.1585,0.0,0.0,-2.5485,0.0,-2.9975,-3.0282,-3.2578,-3.3437,-3.2868,-3.1928,-3.1892,-3.2547,-3.1759,-3.2101,-3.329,-3.329,-3.329,-3.3326,-3.3536,-3.4342,-3.552,-3.5652,-3.6533,-3.7739,-3.7853,-3.7967,-3.8028,-2.7483,0.0,-2.7644,0.0,-2.905,-2.9216,-3.045,-3.0608,-3.0608,-3.0608,-3.0874,-3.1247,-3.1551,-3.2174,-3.2581,-3.2581,-3.2441,-3.216,-3.1786,-3.1763,-3.124,-2.9999,-3.0627,0.0,-2.924,-2.9725,-2.9432,-2.8189,-2.6969,0.0,0.0,-2.3592,-2.3989,0.0,-2.6478,-2.7344,-2.787,-2.8655,-2.8979,-2.8979,-2.8979,-2.8979,-2.8979,-2.8979,-2.8979,-2.8979,-2.8979,-2.8979,-2.8955,-2.8799,-2.8739,-2.8715,-2.8558,-2.851,-2.851,-2.851,-2.851,-2.851,-2.851,-2.851,-2.851,-2.851,-2.851,-2.851,-2.851,-2.851,-2.851,-2.851,-2.851,-2.851,-2.851,-2.7834,-2.7309,-2.7415,0.0,0.0,0.0,0.0,0.0,0.0,0.0,-2.2527,-2.1849,0.0,0.0,0.0,0.0,-2.0626,-2.1932,0.0,0.0,0.0,0.0,0.0,-3.0046,-3.2131,-3.2761,-3.1965,-3.0994,-3.097,-3.1746,-3.1415,-3.1992,-3.329,-3.329,-3.329,-3.3326,-3.3466,-3.4257,-3.541,-3.5506,-3.6347,-3.7534,-3.7663,-3.7815,-3.7929,-2.596,-2.6121,-2.648,-2.7689,-2.7941,-2.7994,-2.8291,-2.8344,-2.8344,-2.8344,-2.925,-3.0369,-3.1462,-3.1138,-3.0854,-3.0854,-3.0329,-3.0046,-3.0046,-3.0046,-2.9829,0.0,0.0,-2.9136,-2.8727,-2.8211,-2.841,-2.9378,0.0,0.0,-2.6837,-2.631,-2.6911,-2.8474,-2.9015,-2.9556,-3.005,-3.0062,-3.0074,-3.0074,-3.0074,-3.0074,-3.0074,-3.0074,-3.0074,-3.0074,-3.0074,-3.0074,-2.9989,-2.946,-2.9292,-2.9196,-2.8679,-2.851,-2.851,-2.851,-2.851,-2.851,-2.851,-2.851,-2.851,-2.851,-2.851,-2.851,-2.851,-2.851,-2.851,-2.851,-2.851,-2.851,-2.851,-2.8065,-2.7365,-2.6307,0.0,0.0,0.0,0.0,0.0,0.0,-2.2215,-2.1766,-2.217,0.0,0.0,0.0,0.0,-2.2937,-2.4291,0.0,0.0,-2.6876,-2.8799,0.0,-2.9514,-3.1262,-3.1709,-3.0932,-3.0114,-3.0152,-3.0932,-3.1746,-3.2547,-3.329,-3.329,-3.329,-3.329,-3.329,-3.4042,-3.5189,-3.5226,-3.6062,-3.7303,-3.7303,-3.7572,-3.7891,-2.6871,-2.6981,-2.7119,-2.7482,-2.7745,-2.7906,-2.8014,-2.8184,-2.8291,-2.8291,-2.8601,-2.8963,-2.9323,-3.0522,-3.1345,0.0,-3.1214,-3.0935,0.0,-3.0536,-3.0033,-2.8824,-2.9429,-2.9262,-2.8178,-2.9286,-2.9704,-2.9412,0.0,0.0,0.0,-2.8534,-2.8751,-2.9593,-2.9761,-2.9929,-3.0086,-3.0086,-3.0086,-3.0086,-3.0086,-3.0086,-3.0086,-3.0086,-3.0086,-3.0086,-3.0086,-3.0086,-3.0062,-2.9893,-2.9833,-2.9809,-2.9641,-2.9088,-2.851,-2.851,-2.851,-2.851,-2.851,-2.851,-2.851,-2.851,-2.851,-2.851,-2.851,-2.851,-2.851,-2.851,-2.851,-2.851,-2.851,-2.775,-2.7045,-2.6712,-2.6214,0.0,0.0,0.0,0.0,0.0,-2.219,-2.2048,0.0,-2.207,0.0,0.0,0.0,0.0,0.0,0.0,0.0,0.0,-2.8183,0.0,-2.9494,-3.0681,-3.0895,-3.0075,-2.9819,-2.9807,-3.0114,-3.1489,-3.2232,-3.2511,-3.3051,-3.329,-3.329,-3.329,-3.4042,-3.5189,-3.5189,-3.5986,-3.7109,-3.7264,-3.738,-3.7495,-2.7062,-2.7116,-2.7107,-2.7215,-2.753,-2.7745,-2.7906,-2.813,-2.8291,-2.8291,-2.8291,-2.8291,-2.8291,-2.9523,0.0,-3.0349,-3.0349,-3.0223,-2.9888,-2.9867,-2.9362,-2.8269,-2.8795,-2.8638,-2.76,-2.8739,0.0,-2.885,-2.9474,-2.9904,-3.0123,-2.9603,-2.982,-3.0718,-3.0718,-3.0718,-3.0718,-3.0718,-3.0718,-3.0718,-3.0718,-3.0718,-3.0718,-3.0718,-3.0718,-3.0718,-3.0718,-3.0718,-3.0694,-3.0446,-3.0386,-3.035,-3.0146,-2.9641,-2.9063,-2.8871,-2.8811,-2.8763,-2.8558,-2.851,-2.851,-2.851,-2.851,-2.851,-2.851,-2.851,-2.851,-2.851,-2.851,-2.851,-2.851,-2.7606,-2.6898,-2.6898,-2.5817,-2.4723,-2.3914,0.0,0.0,0.0,0.0,0.0,0.0,-2.3018,-2.3167,0.0,0.0,0.0,0.0,0.0,0.0,-2.6385,-2.8468,0.0,-2.957,-3.0175,-3.0037,-2.925,-2.925,-2.9406,-2.9742,-3.1044,-3.1819,-3.2146,-3.2931,-3.329,-3.329,-3.329,-3.4042,-3.5189,-3.5189,-3.5949,-3.7017,-3.7148,-3.7226,-3.7303,-2.6591,-2.6591,-2.6691,0.0,-2.7215,0.0,-2.7799,-2.8077,-2.8237,-2.8237,-2.8237,-2.8237,-2.8237,-2.8237,-2.8291,-2.8291,0.0,0.0,0.0,-2.8291,-2.8115,-2.7777,-2.7767,-2.75,-2.707,-2.7102,-2.7442,-2.8063,-2.8029,-2.8754,-3.0125,-2.961,-3.0134,-3.1472,-3.156,-3.1617,-3.1617,-3.1661,-3.1705,-3.1705,-3.1705,-3.1705,-3.1705,-3.1705,-3.1705,-3.1705,-3.1705,-3.1705,-3.1633,-3.1139,-3.097,-3.0886,-3.035,-3.0194,-3.0086,-2.952,-2.9352,-2.9232,-2.8703,-2.857,-2.8558,-2.8522,-2.851,-2.851,-2.851,-2.851,-2.851,-2.851,-2.851,-2.851,-2.851,-2.7606,-2.6898,-2.6898,-2.5541,-2.435,-2.3878,0.0,0.0,0.0,0.0,0.0,-2.3752,-2.4382,-2.4694,0.0,0.0,0.0,0.0,0.0,-2.6054,-2.8221,-2.9337,-2.9839,-2.9691,-2.9626,-2.925,-2.851,-2.851,-2.8882,-2.9665,-3.0519,-3.1304,-3.2037,-3.2931,-3.329,-3.329,-3.329,-3.4042,-3.5189,-3.5189,-3.5949,-3.6978,-3.6978,-3.7109,-3.7264,0.0,0.0,-2.6636,-2.6691,-2.6899,-2.7098,-2.7206,-2.7422,-2.7593,-2.7593,-2.7593,-2.7593,-2.7593,-2.7853,-2.8014,-2.8014,-2.8184,-2.8291,-2.8291,-2.8291,-2.8252,-2.8144,-2.8144,-2.7939,-2.7519,-2.8256,-2.8927,-2.9504,-2.9131,-2.9186,-2.952,-2.9071,-2.9077,-2.9418,-3.0215,-3.0543,-3.0588,-3.1383,-3.1705,-3.1705,-3.1705,-3.1705,-3.1705,-3.1705,-3.1705,-3.1705,-3.1705,-3.1705,-3.1693,-3.156,-3.1524,-3.15,-3.138,-3.1332,-3.1151,-3.017,-2.9893,-2.9785,-2.9256,-2.9112,-2.9015,-2.8607,-2.851,-2.851,-2.851,-2.851,-2.851,-2.851,-2.851,-2.851,-2.851,-2.7606,-2.6898,-2.6898,-2.5541,-2.435,-2.3878,-2.3697,0.0,0.0,-2.368,-2.4029,-2.3822,-2.463,-2.4783,0.0,0.0,0.0,0.0,-2.6,-2.7007,-2.8239,-2.8809,-2.929,-2.9691,-2.9106,-2.8697,-2.851,-2.851,-2.859,-2.8843,-3.0253,-3.0994,-3.1267,-3.2668,-3.329,-3.329,-3.329,-3.4042,-3.5189,-3.5189,-3.5949,-3.6978,-3.6978,-3.7017,-3.707,-2.6591,-2.6591,-2.6591,-2.6591,-2.6836,-2.6989,-2.6989,-2.7215,-2.7377,-2.7377,-2.7377,-2.7377,-2.7377,-2.7584,-2.7745,-2.7906,-2.813,-2.8291,-2.8291,-2.8291,-2.8237,-2.813,-2.8237,-2.813,-2.7791,-2.8288,-2.8528,-2.8533,-2.8073,-2.8095,-2.8527,-2.8313,-2.8407,-2.882,-2.922,-2.9712,-3.0215,-3.017,-3.0498,-3.1003,-3.1003,-3.1003,-3.1048,-3.1516,-3.1705,-3.1705,-3.1705,-3.1705,-3.1705,-3.1705,-3.1705,-3.1705,-3.1705,-3.1705,-3.1597,-3.1019,-3.0639,-3.0338,-2.9797,-2.9484,-2.9172,-2.8643,-2.851,-2.851,-2.851,-2.851,-2.851,-2.851,-2.851,-2.851,-2.851,-2.7606,-2.6813,-2.6549,-2.5373,-2.435,-2.3878,-2.3806,0.0,-2.4025,-2.4542,-2.4975,-2.5192,-2.5721,-2.5756,-2.5164,-2.5894,0.0,-2.5981,-2.7017,-2.7742,-2.8033,-2.8449,-2.8811,-2.9145,-2.8736,-2.851,-2.851,-2.851,-2.851,-2.855,-2.9781,-3.0557,-3.097,-3.2209,-3.2966,-3.329,-3.329,-3.4042,-3.5189,-3.5189,-3.5949,-3.6978,-3.6978,-3.6978,-3.6978,-2.6591,-2.6591,-2.6591,-2.6591,-2.6837,-2.7028,-2.7028,-2.7191,-2.7363,-2.7363,-2.7307,-2.7269,-2.7269,-2.7323,-2.7422,-2.7745,-2.8014,-2.8184,-2.8291,-2.8237,-2.813,-2.7906,-2.813,-2.813,-2.7853,-2.7799,-2.7519,-2.6911,-2.6442,-2.6628,-2.7459,-2.7399,-2.7752,-2.849,-2.8383,-2.8927,-2.9746,-2.8816,-2.9099,-3.0137,-3.0,-3.0091,-3.0453,-3.1149,-3.1516,-3.1705,-3.1705,-3.1705,-3.1705,-3.1705,-3.1705,-3.1705,-3.1705,-3.1705,-3.1705,-3.1705,-3.1392,-3.0922,-3.035,-2.9761,-2.9184,-2.8739,-2.857,-2.851,-2.851,-2.851,-2.851,-2.851,-2.851,-2.851,-2.851,-2.7606,-2.6717,-2.619,-2.5204,-2.435,-2.3878,0.0,-2.4326,-2.5204,-2.5528,-2.6009,-2.6813,-2.697,-2.7018,-2.7018,-2.7426,-2.7522,-2.715,-2.8029,-2.8306,-2.7861,-2.827,-2.851,-2.851,-2.851,-2.851,-2.851,-2.851,-2.851,-2.855,-2.9328,-3.0152,-3.0932,-3.1746,-3.2547,-3.329,-3.329,-3.3986,-3.5062,-3.5161,-3.5878,-3.6866,-3.695,-3.6978,-3.6978,-2.6591,-2.6591,-2.6591,-2.6591,-2.6921,-2.7188,-2.7188,-2.7188,-2.7244,-2.7244,-2.6958,-2.6745,-2.6745,-2.6944,-2.7098,-2.7152,-2.7368,-2.7755,-2.8291,-2.8077,-2.796,-2.7906,-2.796,-2.7799,-2.7485,-2.7485,-2.7394,-2.7337,-2.6867,-2.6774,-2.6912,-2.6507,-2.6391,-2.6579,-2.7361,-2.7863,-2.8041,-2.8722,-2.9364,-2.9952,-2.9117,-2.9684,-3.1071,-3.0362,-3.0779,-3.1705,-3.1705,-3.1705,-3.1705,-3.1705,-3.1705,-3.1705,-3.1705,-3.1705,-3.1705,-3.1705,-3.1657,-3.1476,-3.0946,-3.0037,-2.928,-2.9196,-2.8847,-2.851,-2.851,-2.851,-2.851,-2.851,-2.851,-2.851,-2.851,-2.7606,-2.6717,-2.619,-2.5204,-2.435,-2.3878,0.0,-2.5131,-2.5288,-2.6514,-2.7198,-2.6922,-2.7294,-2.7596,-2.7596,-2.763,-2.7846,-2.8246,-2.8426,-2.8474,-2.839,-2.8474,-2.851,-2.851,-2.851,-2.851,-2.851,-2.851,-2.851,-2.855,-2.9328,-3.0152,-3.0932,-3.1746,-3.2547,-3.329,-3.329,-3.3697,-3.4399,-3.4992,-3.5625,-3.6314,-3.6796,-3.6978,-3.6978,-2.6591,-2.6591,-2.6591,-2.6591,-2.6976,-2.7187,-2.6903,-2.704,-2.7105,-2.6885,-2.6701,-2.6591,-2.6591,-2.6691,-2.6836,-2.6989,-2.6999,-2.7225,-2.7755,-2.7701,-2.7584,-2.7422,-2.753,-2.7476,-2.7206,-2.7152,-2.7107,-2.6954,-2.6768,-2.6684,-2.6675,-2.6479,-2.6328,-2.6261,-2.6608,-2.7075,-2.7612,-2.741,-2.7833,-2.8666,-2.8214,-2.853,-2.9408,-3.0083,-3.0627,-3.1086,-3.171,-3.1812,-3.1705,-3.1705,-3.1705,-3.1705,-3.1705,-3.1705,-3.1705,-3.1705,-3.1705,-3.1585,-3.1067,-3.0314,-2.9653,-2.9364,-2.8907,-2.851,-2.851,-2.851,-2.851,-2.851,-2.851,-2.851,-2.851,-2.7846,-2.715,-2.6635,-2.5889,0.0,0.0,-2.5432,-2.5949,-2.6538,-2.7234,-2.7702,-2.7777,-2.8005,-2.815,-2.815,-2.815,-2.8246,-2.8498,-2.851,-2.851,-2.851,-2.851,-2.851,-2.851,-2.851,-2.851,-2.851,-2.851,-2.851,-2.851,-2.8882,-2.9471,-3.0291,-3.1106,-3.1905,-3.2704,-3.3122,-3.3655,-3.4231,-3.4548,-3.5236,-3.6131,-3.6427,-3.6736,-3.6978,-2.6848,-2.6866,-2.6839,-2.6747,-2.7141,-2.7306,-2.6802,-2.6985,-2.7068,-2.6765,-2.6646,-2.6591,-2.6591,-2.6591,-2.6691,-2.689,-2.6745,-2.6745,-2.7161,-2.7215,-2.7161,-2.6989,-2.7161,-2.7107,-2.689,-2.689,-2.6791,-2.6591,-2.6591,-2.6591,-2.6591,-2.6591,-2.6525,-2.6435,-2.6212,-2.6601,-2.7317,-2.6371,-2.6616,-2.7559,-2.7304,-2.7499,-2.8045,-2.972,-3.0267,-3.0278,-3.1449,-3.1685,-3.1416,-3.1472,-3.1579,-3.1705,-3.1705,-3.1705,-3.1705,-3.1705,-3.1705,-3.1621,-3.1211,-3.0675,-3.0146,-2.9617,-2.9088,-2.8655,-2.8546,-2.851,-2.851,-2.851,-2.851,-2.851,-2.851,-2.8077,-2.751,-2.6982,0.0,0.0,0.0,-2.631,-2.6791,-2.7582,-2.7798,-2.8065,-2.8474,-2.851,-2.851,-2.851,-2.851,-2.851,-2.851,-2.851,-2.851,-2.851,-2.851,-2.851,-2.851,-2.851,-2.851,-2.851,-2.851,-2.851,-2.851,-2.851,-2.8922,-2.9742,-3.0557,-3.1378,-3.216,-3.298,-3.3557,-3.3992,-3.4147,-3.4815,-3.5672,-3.6005,-3.6399,-3.6796,-2.7666,-2.7739,-2.762,-2.7196,-2.7528,-2.7656,-2.7196,-2.716,-2.7169,-2.7141,-2.6811,-2.6591,-2.6591,-2.6591,-2.6591,-2.6646,-2.6591,-2.6646,-2.6636,-2.6636,-2.6736,-2.6989,-2.6791,-2.6646,-2.6646,-2.6646,-2.6646,-2.6591,-2.6591,-2.6591,-2.6591,-2.6591,-2.6573,-2.66,-2.6545,-2.6572,-2.6653,-2.6608,-2.6905,-2.7412,-2.6486,-2.7159,-2.8734,-2.8971,-2.9098,-2.9373,-3.0767,-3.0929,-3.0533,-3.0789,-3.1234,-3.1705,-3.1705,-3.1705,-3.1705,-3.1705,-3.1705,-3.1705,-3.1657,-3.1259,-3.0687,-3.0158,-2.9629,-2.9112,-2.8619,-2.851,-2.851,-2.851,-2.851,-2.851,-2.851,-2.8077,-2.751,-2.6982,0.0,0.0,-2.6178,-2.6971,-2.7594,-2.7678,-2.8162,-2.8474,-2.851,-2.851,-2.851,-2.851,-2.851,-2.851,-2.851,-2.851,-2.851,-2.851,-2.851,-2.851,-2.851,-2.851,-2.851,-2.851,-2.851,-2.851,-2.851,-2.851,-2.8922,-2.9742,-3.0557,-3.1378,-3.216,-3.298,-3.3319,-3.3403,-3.3978,-3.4259,-3.4469,-3.5644,-3.6131,-3.6258,-2.7381,-2.7737,-2.7921,-2.7656,-2.8086,-2.8214,-2.7315,-2.7389,-2.7361,-2.6875,-2.6683,-2.6591,-2.6591,-2.6591,-2.6591,-2.6591,-2.6591,-2.6591,-2.6591,-2.6591,-2.6646,-2.6736,-2.6636,-2.6591,-2.6591,-2.6591,-2.6591,-2.6591,-2.6591,-2.6591,-2.6591,-2.6591,-2.6591,-2.6591,-2.6591,-2.6591,-2.6591,-2.6591,-2.6707,-2.6927,-2.6506,-2.6824,-2.7501,-2.8195,-2.8377,-2.8442,-2.9714,-2.991,-2.9731,-3.0712,-3.096,-3.1065,-3.1941,-3.1994,-3.1705,-3.1705,-3.1705,-3.1705,-3.1705,-3.132,-3.0874,-3.0669,-2.9929,-2.9244,-2.9039,-2.8751,-2.851,-2.851,-2.851,-2.851,-2.851,-2.8342,-2.815,-2.7945,0.0,-2.7426,-2.7572,-2.7669,-2.7798,-2.8174,-2.839,-2.851,-2.851,-2.851,-2.851,-2.851,-2.851,-2.851,-2.851,-2.851,-2.851,-2.851,-2.851,-2.851,-2.851,-2.851,-2.851,-2.851,-2.851,-2.851,-2.851,-2.851,-2.8657,-2.8988,-2.9819,-3.0632,-3.1415,-3.2232,-3.286,-3.3304,-3.3543,-3.3866,-3.4301,-3.5231,-3.578,-3.6202,-2.7636,-2.8113,-2.8333,-2.8012,-2.8425,-2.8471,-2.7508,-2.7647,-2.7572,-2.7031,-2.6848,-2.6774,-2.6774,-2.6664,-2.6591,-2.6591,-2.6591,-2.6591,-2.6591,-2.6591,-2.6591,-2.6591,-2.6591,-2.6591,-2.6591,-2.6591,-2.6591,-2.6591,-2.6591,-2.6591,-2.6591,-2.6591,-2.6591,-2.6591,-2.6591,-2.6591,-2.6591,-2.6591,-2.6591,-2.6591,-2.6591,-2.6591,-2.6745,-2.7814,-2.7888,-2.7583,-2.8826,-2.8993,-2.8892,-3.0319,-3.0689,-3.0748,-3.1863,-3.1926,-3.1572,-3.1572,-3.1617,-3.1705,-3.1705,-3.144,-3.1127,-3.0958,-3.0338,-2.9701,-2.9376,-2.9015,-2.8703,-2.8546,-2.851,-2.851,-2.851,-2.851,-2.851,-2.851,-2.821,-2.8089,-2.8462,-2.8198,-2.8102,-2.8474,-2.851,-2.851,-2.851,-2.851,-2.851,-2.851,-2.851,-2.851,-2.851,-2.851,-2.851,-2.851,-2.851,-2.851,-2.851,-2.851,-2.851,-2.851,-2.851,-2.851,-2.851,-2.851,-2.851,-2.855,-2.9367,-3.0152,-3.0957,-3.1783,-3.2583,-3.329,-3.329,-3.3543,-3.3992,-3.4646,-3.5138,-3.5616,-2.881,-2.8975,-2.8856,-2.8471,-2.8397,-2.826,-2.7895,-2.7822,-2.7822,-2.7822,-2.7426,-2.7178,-2.7178,-2.683,-2.6591,-2.6591,-2.6591,-2.6591,-2.6591,-2.6591,-2.6591,-2.6591,-2.6591,-2.6591,-2.6591,-2.6591,-2.6591,-2.6591,-2.6591,-2.6591,-2.6591,-2.6591,-2.6591,-2.6591,-2.6591,-2.6591,-2.6591,-2.6591,-2.6591,-2.6591,-2.6591,-2.6591,-2.6745,-2.7761,-2.7511,-2.68,-2.8165,-2.8285,-2.8036,-2.9411,-3.0268,-3.0866,-3.1495,-3.1496,-3.1261,-3.1306,-3.1484,-3.1661,-3.1661,-3.1705,-3.1585,-3.1055,-3.0922,-3.0603,-2.9544,-2.9304,-2.9148,-2.8619,-2.851,-2.851,-2.851,-2.851,-2.851,-2.851,-2.851,-2.851,-2.851,-2.851,-2.851,-2.851,-2.851,-2.851,-2.851,-2.851,-2.851,-2.851,-2.851,-2.851,-2.851,-2.851,-2.851,-2.851,-2.851,-2.851,-2.851,-2.851,-2.851,-2.851,-2.851,-2.851,-2.851,-2.851,-2.851,-2.855,-2.9367,-3.0152,-3.0957,-3.1783,-3.2583,-3.329,-3.329,-3.329,-3.3361,-3.3978,-3.4203,-3.4371,-2.8079,-2.837,-2.8618,-2.8783,-2.881,-2.8673,-2.8269,-2.8205,-2.8104,-2.7858,-2.7721,-2.7647,-2.7647,-2.7233,-2.7004,-2.7004,-2.6747,-2.6591,-2.6591,-2.6591,-2.6591,-2.6591,-2.6591,-2.6591,-2.6591,-2.6591,-2.6591,-2.6591,-2.6591,-2.6591,-2.6591,-2.6591,-2.6591,-2.6591,-2.6591,-2.6591,-2.6591,-2.6591,-2.6591,-2.6591,-2.6591,-2.6591,-2.6646,-2.6954,-2.6899,-2.6646,-2.7062,-2.7131,-2.717,-2.8545,-2.8859,-2.8906,-3.0141,-2.9963,-2.9424,-2.984,-3.0022,-3.0113,-3.0113,-3.0722,-3.1448,-3.1468,-3.1199,-3.0742,-3.0013,-2.9569,-2.9148,-2.8619,-2.851,-2.851,-2.851,-2.851,-2.851,-2.851,-2.851,-2.851,-2.851,-2.851,-2.851,-2.851,-2.851,-2.851,-2.851,-2.851,-2.851,-2.851,-2.851,-2.851,-2.851,-2.851,-2.851,-2.851,-2.851,-2.851,-2.851,-2.851,-2.851,-2.851,-2.851,-2.851,-2.851,-2.851,-2.851,-2.855,-2.9367,-3.0152,-3.0957,-3.1783,-3.2583,-3.329,-3.329,-3.329,-3.3361,-3.3978,-3.4203,-3.4315,-2.793,-2.8342,-2.8654,-2.8737,-2.8883,-2.8847,-2.8452,-2.8526,-2.8535,-2.8336,-2.8113,-2.8012,-2.8012,-2.7517,-2.7178,-2.7178,-2.682,-2.6591,-2.6591,-2.6591,-2.6591,-2.6591,-2.6591,-2.6591,-2.6591,-2.6591,-2.6591,-2.6591,-2.6591,-2.6591,-2.6591,-2.6591,-2.6591,-2.6591,-2.6591,-2.6591,-2.6591,-2.6591,-2.6591,-2.6591,-2.6591,-2.6591,-2.6591,-2.6591,-2.6591,-2.6591,-2.6591,-2.6591,-2.6791,-2.8019,-2.8393,-2.8502,-2.9409,-2.9069,-2.8466,-2.8806,-2.8869,-2.889,-2.9315,-2.9966,-3.0689,-3.1261,-3.1344,-3.1048,-3.039,-2.9947,-2.9419,-2.8676,-2.8534,-2.8471,-2.8391,-2.8431,-2.851,-2.851,-2.851,-2.851,-2.851,-2.851,-2.851,-2.851,-2.851,-2.851,-2.851,-2.851,-2.851,-2.851,-2.851,-2.851,-2.851,-2.851,-2.851,-2.851,-2.851,-2.851,-2.851,-2.851,-2.851,-2.851,-2.851,-2.851,-2.851,-2.851,-2.851,-2.851,-2.8988,-2.9845,-3.0932,-3.1415,-3.2282,-3.329,-3.329,-3.329,-3.3333,-3.3697,-3.3838,-3.3922,-2.8214,-2.8608,-2.8764,-2.8397,-2.8663,-2.881,-2.8452,-2.8728,-2.8984,-2.8984,-2.8673,-2.8443,-2.8443,-2.7719,-2.7233,-2.7233,-2.6839,-2.6591,-2.6591,-2.6591,-2.6591,-2.6591,-2.6591,-2.6591,-2.6591,-2.6591,-2.6591,-2.6591,-2.6591,-2.6591,-2.6591,-2.6591,-2.6591,-2.6591,-2.6591,-2.6591,-2.6591,-2.6591,-2.6591,-2.6591,-2.6591,-2.6591,-2.6591,-2.6591,-2.6591,-2.6591,-2.6591,-2.6591,-2.6745,-2.7707,-2.8443,-2.8983,-2.9044,-2.8559,-2.8025,-2.8039,-2.7898,-2.7966,-2.8819,-2.9223,-2.9601,-3.0589,-3.1229,-3.144,-3.0652,-3.0281,-2.9846,-2.8881,-2.8578,-2.8451,-2.829,-2.8375,-2.8471,-2.8471,-2.8471,-2.851,-2.851,-2.8471,-2.8471,-2.851,-2.8471,-2.8471,-2.851,-2.851,-2.851,-2.851,-2.851,-2.851,-2.851,-2.851,-2.851,-2.851,-2.851,-2.851,-2.851,-2.851,-2.851,-2.851,-2.851,-2.851,-2.851,-2.851,-2.851,-2.851,-2.859,-2.9445,-3.082,-3.097,-3.1846,-3.3086,-3.3171,-3.3206,-3.3206,-3.3206,-3.3241,-3.3361,-2.7416,-2.7756,-2.8003,-2.7978,-2.8242,-2.8489,-2.8407,-2.8728,-2.8984,-2.8984,-2.8911,-2.8856,-2.8856,-2.8132,-2.7693,-2.7693,-2.6995,-2.6591,-2.6591,-2.6591,-2.6591,-2.6591,-2.6591,-2.6591,-2.6591,-2.6591,-2.6591,-2.6591,-2.6591,-2.6591,-2.6591,-2.6591,-2.6591,-2.6591,-2.6591,-2.6591,-2.6591,-2.6591,-2.6591,-2.6591,-2.6591,-2.6591,-2.6591,-2.6591,-2.6591,-2.6591,-2.6591,-2.6591,-2.6646,-2.6845,-2.7051,-2.7233,-2.7715,-2.722,-2.6484,-2.6664,-2.6685,-2.6634,-2.6526,-2.7804,-2.9211,-2.9452,-3.0352,-3.1021,-3.0413,-3.0201,-3.0021,-2.9374,-2.8875,-2.858,-2.8539,-2.8371,-2.8259,-2.8259,-2.8391,-2.851,-2.851,-2.8339,-2.8299,-2.8471,-2.8339,-2.8351,-2.8471,-2.851,-2.851,-2.851,-2.851,-2.851,-2.851,-2.851,-2.851,-2.851,-2.851,-2.851,-2.851,-2.851,-2.851,-2.851,-2.851,-2.851,-2.851,-2.851,-2.851,-2.855,-2.9184,-2.9626,-3.0075,-3.1328,-3.1673,-3.1502,-3.2123,-3.2354,-3.2354,-3.2354,-3.2775,-3.3304,-2.7178,-2.7655,-2.8003,-2.7858,-2.8269,-2.8618,-2.8425,-2.8728,-2.8911,-2.8728,-2.87,-2.8627,-2.8425,-2.7856,-2.7463,-2.7215,-2.683,-2.6591,-2.6591,-2.6591,-2.6591,-2.6591,-2.6591,-2.6591,-2.6591,-2.6591,-2.6591,-2.6591,-2.6591,-2.6591,-2.6591,-2.6591,-2.6591,-2.6591,-2.6591,-2.6591,-2.6591,-2.6591,-2.6591,-2.6591,-2.6591,-2.6591,-2.6591,-2.6591,-2.6591,-2.6591,-2.6591,-2.6591,-2.6591,-2.6591,-2.6591,-2.6654,-2.6962,-2.6586,-2.6035,-2.6112,-2.591,-2.565,-2.5907,-2.6693,-2.7568,-2.8085,-2.9037,-3.0011,-3.0308,-3.0285,-3.005,-2.9552,-2.9215,-2.8925,-2.8829,-2.8786,-2.8692,-2.8432,-2.8466,-2.8464,-2.8238,-2.8111,-2.8111,-2.8203,-2.8111,-2.8111,-2.8203,-2.8311,-2.8351,-2.8351,-2.8431,-2.851,-2.851,-2.851,-2.851,-2.851,-2.851,-2.851,-2.851,-2.851,-2.851,-2.851,-2.851,-2.851,-2.851,-2.851,-2.851,-2.855,-2.9367,-2.9922,-3.0367,-3.1586,-3.2087,-3.2101,-3.2511,-3.2654,-3.2654,-3.2654,-3.2931,-3.329,-2.7077,-2.7618,-2.7976,-2.7627,-2.8177,-2.859,-2.8324,-2.8563,-2.8682,-2.8425,-2.8333,-2.815,-2.7858,-2.7416,-2.7013,-2.6619,-2.6591,-2.6591,-2.6591,-2.6591,-2.6591,-2.6591,-2.6591,-2.6591,-2.6591,-2.6591,-2.6591,-2.6591,-2.6591,-2.6591,-2.6591,-2.6591,-2.6591,-2.6591,-2.6591,-2.6591,-2.6591,-2.6591,-2.6591,-2.6591,-2.6591,-2.6591,-2.6591,-2.6591,-2.6591,-2.6591,-2.6591,-2.6591,-2.6591,-2.6591,-2.6591,-2.6591,-2.6591,-2.6344,-2.6104,-2.603,-2.5543,-2.5145,-2.5827,-2.5926,-2.5966,-2.6733,-2.7814,-2.9002,-3.0023,-3.0219,-3.0073,-2.9708,-2.9491,-2.9347,-2.9152,-2.9223,-2.9195,-2.8738,-2.8721,-2.8586,-2.8092,-2.7981,-2.7946,-2.7904,-2.7893,-2.7893,-2.7893,-2.807,-2.8219,-2.8219,-2.8391,-2.851,-2.851,-2.851,-2.851,-2.851,-2.851,-2.851,-2.851,-2.851,-2.851,-2.851,-2.851,-2.851,-2.851,-2.851,-2.851,-2.855,-2.9367,-3.0075,-3.0782,-3.1709,-3.239,-3.2909,-3.3051,-3.3086,-3.3122,-3.3241,-3.329,-3.329,-2.6664,-2.6756,-2.682,-2.6756,-2.7123,-2.7517,-2.7868,-2.795,-2.804,-2.8352,-2.8077,-2.7886,-2.7831,-2.7416,-2.7013,-2.6619,-2.6591,-2.6591,-2.6591,-2.6591,-2.6591,-2.6591,-2.6591,-2.6591,-2.6591,-2.6591,-2.6591,-2.6591,-2.6591,-2.6591,-2.6591,-2.6591,-2.6591,-2.6591,-2.6591,-2.6591,-2.6591,-2.6591,-2.6591,-2.6591,-2.6591,-2.6591,-2.6591,-2.6591,-2.6591,-2.6591,-2.6591,-2.6591,-2.6591,-2.6591,-2.6591,-2.6591,-2.6591,-2.6554,-2.6435,-2.6122,-2.5938,-2.5699,-2.5164,-2.561,-2.6152,-2.5976,-2.7305,-2.8771,-2.891,-2.9601,-3.0169,-3.0124,-2.9778,-2.9489,-2.9433,-2.9239,-2.9032,-2.8963,-2.9145,-2.9096,-2.8598,-2.8374,-2.8139,-2.794,-2.7893,-2.7893,-2.7893,-2.807,-2.8219,-2.8219,-2.8391,-2.851,-2.851,-2.851,-2.851,-2.851,-2.851,-2.851,-2.851,-2.851,-2.851,-2.851,-2.851,-2.851,-2.851,-2.851,-2.851,-2.855,-2.9367,-2.9781,-2.9999,-3.1489,-3.1746,-3.1304,-3.1978,-3.2268,-3.2354,-3.3051,-3.329,-3.329,-2.6591,-2.6765,-2.6912,-2.6912,-2.7298,-2.762,-2.7794,-2.7822,-2.7756,-2.7719,-2.7554,-2.7352,-2.7132,-2.6949,-2.6774,-2.6609,-2.6591,-2.6591,-2.6591,-2.6591,-2.6591,-2.6591,-2.6591,-2.6591,-2.6591,-2.6591,-2.6591,-2.6591,-2.6591,-2.6591,-2.6591,-2.6591,-2.6591,-2.6591,-2.6591,-2.6591,-2.6591,-2.6591,-2.6591,-2.6591,-2.6591,-2.6591,-2.6591,-2.6591,-2.6591,-2.6591,-2.6591,-2.6591,-2.6591,-2.6591,-2.6591,-2.6591,-2.6591,-2.6591,-2.6554,-2.6362,-2.6195,-2.5892,-2.5313,-2.5289,-2.5503,-2.5654,-2.6781,-2.8002,-2.8585,-2.9474,-3.0216,-3.0216,-3.0044,-2.9894,-2.9894,-2.9755,-2.9591,-2.9325,-2.9378,-2.9291,-2.8746,-2.836,-2.796,-2.7574,-2.7516,-2.7516,-2.7516,-2.7841,-2.803,-2.803,-2.8311,-2.851,-2.851,-2.851,-2.851,-2.851,-2.851,-2.851,-2.851,-2.851,-2.851,-2.851,-2.851,-2.851,-2.851,-2.851,-2.851,-2.855,-2.9367,-2.9704,-2.9781,-3.097,-3.123,-3.0932,-3.1304,-3.1452,-3.1489,-3.1833,-3.1955,-3.1955]}]]